[[{"header":{"parameterUnit":"m.s-1","parameterCategory":1,"la1":30.6,"la2":28.766,"lo1":-90.7593,"lo2":-88.6598,"dx":0.0162,"dy":0.0183,"nx":116,"ny":114,"refTime":"2023-01-25T06:00:00:Z","depth":0,"parameterNumber":2,"parameterNumberName":"U-component_of_WINDS"},"data":[0.0,0.0,0.0,0.0,0.0,0.0,0.0,0.0,0.0,0.0,0.0,0.0,0.0,0.0,0.0,0.0,0.0,0.0,0.0,0.0,0.0,0.0,0.0,0.0,0.0,0.0,0.0,0.0,0.0,0.0,0.0,0.0,0.0,0.0,0.0,0.0,0.0,0.0,0.0,0.0,0.0,0.0,0.0,0.0,0.0,0.0,0.0,0.0,0.0,0.0,0.0,0.0,0.0,0.0,0.0,0.0,0.0,0.0,0.0,0.0,0.0,0.0,0.0,0.0,0.0,0.0,0.0,0.0,0.0,0.0,0.0,0.0,0.0,0.0,0.0,0.0,0.0,0.0,0.0,0.0,0.0,0.0,0.0,0.0,0.0,0.0,0.0,0.0,0.0,0.0,0.0,0.0,0.0,0.0,0.0,0.0,0.0,0.0,0.0,0.0,0.0,0.0,0.0,0.0,0.0,0.0,0.0,0.0,0.0,0.0,0.0,0.0,0.0,0.0,0.0,0.0,0.0,0.0,0.0,0.0,0.0,0.0,0.0,0.0,0.0,0.0,0.0,0.0,0.0,0.0,0.0,0.0,0.0,0.0,0.0,0.0,0.0,0.0,0.0,0.0,0.0,0.0,0.0,0.0,0.0,0.0,0.0,0.0,0.0,0.0,0.0,0.0,0.0,0.0,0.0,0.0,0.0,0.0,0.0,0.0,0.0,0.0,0.0,0.0,0.0,0.0,0.0,0.0,0.0,0.0,0.0,0.0,0.0,0.0,0.0,0.0,0.0,0.0,0.0,0.0,0.0,0.0,0.0,0.0,0.0,0.0,0.0,0.0,0.0,0.0,0.0,0.0,0.0,0.0,0.0,0.0,0.0,0.0,0.0,0.0,0.0,0.0,0.0,0.0,0.0,0.0,0.0,0.0,0.0,0.0,0.0,0.0,0.0,0.0,0.0,0.0,0.0,0.0,0.0,0.0,0.0,0.0,0.0,0.0,0.0,0.0,0.0,0.0,0.0,0.0,0.0,0.0,0.0,0.0,0.0,0.0,0.0,0.0,0.0,0.0,0.0,0.0,0.0,0.0,0.0,0.0,0.0,0.0,0.0,0.0,0.0,0.0,0.0,0.0,0.0,0.0,0.0,0.0,0.0,0.0,0.0,0.0,0.0,0.0,0.0,0.0,0.0,0.0,0.0,0.0,0.0,0.0,0.0,0.0,0.0,0.0,0.0,0.0,0.0,0.0,0.0,0.0,0.0,0.0,0.0,0.0,0.0,0.0,0.0,0.0,0.0,0.0,0.0,0.0,0.0,0.0,0.0,0.0,0.0,0.0,0.0,0.0,0.0,0.0,0.0,0.0,0.0,0.0,0.0,0.0,0.0,0.0,0.0,0.0,0.0,0.0,0.0,0.0,0.0,0.0,0.0,0.0,0.0,0.0,0.0,0.0,0.0,0.0,0.0,0.0,0.0,0.0,0.0,0.0,0.0,0.0,0.0,0.0,0.0,0.0,0.0,0.0,0.0,0.0,0.0,0.0,0.0,0.0,0.0,0.0,0.0,0.0,0.0,0.0,0.0,0.0,0.0,0.0,0.0,0.0,0.0,0.0,0.0,0.0,0.0,0.0,0.0,0.0,0.0,0.0,0.0,0.0,0.0,0.0,0.0,0.0,0.0,0.0,0.0,0.0,0.0,0.0,0.0,0.0,0.0,0.0,0.0,0.0,0.0,0.0,0.0,0.0,0.0,0.0,0.0,0.0,0.0,0.0,0.0,0.0,0.0,0.0,0.0,0.0,0.0,0.0,0.0,0.0,0.0,0.0,0.0,0.0,0.0,0.0,0.0,0.0,0.0,0.0,0.0,0.0,0.0,0.0,0.0,0.0,0.0,0.0,0.0,0.0,0.0,0.0,0.0,0.0,0.0,0.0,0.0,0.0,0.0,0.0,0.0,0.0,0.0,0.0,0.0,0.0,0.0,0.0,0.0,0.0,0.0,0.0,0.0,0.0,0.0,0.0,0.0,0.0,0.0,0.0,0.0,0.0,0.0,0.0,0.0,0.0,0.0,0.0,0.0,0.0,0.0,0.0,0.0,0.0,0.0,0.0,0.0,0.0,0.0,0.0,0.0,0.0,0.0,0.0,0.0,0.0,0.0,0.0,0.0,0.0,0.0,0.0,0.0,0.0,0.0,0.0,0.0,0.0,0.0,0.0,0.0,0.0,0.0,0.0,0.0,0.0,0.0,0.0,0.0,0.0,0.0,0.0,0.0,0.0,0.0,0.0,0.0,0.0,0.0,0.0,0.0,0.0,0.0,0.0,0.0,0.0,0.0,0.0,0.0,0.0,0.0,0.0,0.0,0.0,0.0,0.0,0.0,0.0,0.0,0.0,0.0,0.0,0.0,0.0,0.0,0.0,0.0,0.0,0.0,0.0,0.0,0.0,0.0,0.0,0.0,0.0,0.0,0.0,0.0,0.0,0.0,0.0,0.0,0.0,0.0,0.0,0.0,0.0,0.0,0.0,0.0,0.0,0.0,0.0,0.0,0.0,0.0,0.0,0.0,0.0,0.0,0.0,0.0,0.0,0.0,0.0,0.0,0.0,0.0,0.0,0.0,0.0,0.0,0.0,0.0,0.0,0.0,0.0,0.0,0.0,0.0,0.0,0.0,0.0,0.0,0.0,0.0,0.0,0.0,0.0,0.0,0.0,0.0,0.0,0.0,0.0,0.0,0.0,0.0,0.0,0.0,0.0,0.0,0.0,0.0,0.0,0.0,0.0,0.0,0.0,0.0,0.0,0.0,0.0,0.0,0.0,0.0,0.0,0.0,0.0,0.0,0.0,0.0,0.0,0.0,0.0,0.0,0.0,0.0,0.0,0.0,0.0,0.0,0.0,0.0,0.0,0.0,0.0,0.0,0.0,0.0,0.0,0.0,0.0,0.0,0.0,0.0,0.0,0.0,0.0,0.0,0.0,0.0,0.0,0.0,0.0,0.0,0.0,0.0,0.0,0.0,0.0,0.0,0.0,0.0,0.0,0.0,0.0,0.0,0.0,0.0,0.0,0.0,0.0,0.0,0.0,0.0,0.0,0.0,0.0,0.0,0.0,0.0,0.0,0.0,0.0,0.0,0.0,0.0,0.0,0.0,0.0,0.0,0.0,0.0,0.0,0.0,0.0,0.0,0.0,0.0,0.0,0.0,0.0,0.0,0.0,0.0,0.0,0.0,0.0,0.0,0.0,0.0,0.0,0.0,0.0,0.0,0.0,0.0,0.0,0.0,0.0,0.0,0.0,0.0,0.0,0.0,0.0,0.0,0.0,0.0,0.0,0.0,0.0,0.0,0.0,0.0,0.0,0.0,0.0,0.0,0.0,0.0,0.0,0.0,0.0,0.0,0.0,0.0,0.0,0.0,0.0,0.0,0.0,0.0,0.0,0.0,0.0,0.0,0.0,0.0,0.0,0.0,0.0,0.0,0.0,0.0,0.0,0.0,0.0,0.0,0.0,0.0,0.0,0.0,0.0,0.0,0.0,0.0,0.0,0.0,0.0,0.0,0.0,0.0,0.0,0.0,0.0,0.0,0.0,0.0,0.0,0.0,0.0,0.0,0.0,0.0,0.0,0.0,0.0,0.0,0.0,0.0,0.0,0.0,0.0,0.0,0.0,0.0,0.0,0.0,0.0,0.0,0.0,0.0,0.0,0.0,0.0,0.0,0.0,0.0,0.0,0.0,0.0,0.0,0.0,0.0,0.0,0.0,0.0,0.0,0.0,0.0,0.0,0.0,0.0,0.0,0.0,0.0,0.0,0.0,0.0,0.0,0.0,0.0,0.0,0.0,0.0,0.0,0.0,0.0,0.0,0.0,0.0,0.0,0.0,0.0,0.0,0.0,0.0,0.0,0.0,0.0,0.0,0.0,0.0,0.0,0.0,0.0,0.0,0.0,0.0,0.0,0.0,0.0,0.0,0.0,0.0,0.0,0.0,0.0,0.0,0.0,0.0,0.0,0.0,0.0,0.0,0.0,0.0,0.0,0.0,0.0,0.0,0.0,0.0,0.0,0.0,0.0,0.0,0.0,0.0,0.0,0.0,0.0,0.0,0.0,0.0,0.0,0.0,0.0,0.0,0.0,0.0,0.0,0.0,0.0,0.0,0.0,0.0,0.0,0.0,0.0,0.0,0.0,0.0,0.0,0.0,0.0,0.0,0.0,0.0,0.0,0.0,0.0,0.0,0.0,0.0,0.0,0.0,0.0,0.0,0.0,0.0,0.0,0.0,0.0,0.0,0.0,0.0,0.0,0.0,0.0,0.0,0.0,0.0,0.0,0.0,0.0,0.0,0.0,0.0,0.0,0.0,0.0,0.0,0.0,0.0,0.0,0.0,0.0,0.0,0.0,0.0,0.0,0.0,0.0,0.0,0.0,0.0,0.0,0.0,0.0,0.0,0.0,0.0,0.0,0.0,0.0,0.0,0.0,0.0,0.0,0.0,0.0,0.0,0.0,0.0,0.0,0.0,0.0,0.0,0.0,0.0,0.0,0.0,0.0,0.0,0.0,0.0,0.0,0.0,0.0,0.0,0.0,0.0,0.0,0.0,0.0,0.0,0.0,0.0,0.0,0.0,0.0,0.0,0.0,0.0,0.0,0.0,0.0,0.0,0.0,0.0,0.0,0.0,0.0,0.0,0.0,0.0,0.0,0.0,0.0,0.0,0.0,0.0,0.0,0.0,0.0,0.0,0.0,0.0,0.0,0.0,0.0,0.0,0.0,0.0,0.0,0.0,0.0,0.0,0.0,0.0,0.0,0.0,0.0,0.0,0.0,0.0,0.0,0.0,0.0,0.0,0.0,0.0,0.0,0.0,0.0,0.0,0.0,0.0,0.0,0.0,0.0,0.0,0.0,0.0,0.0,0.0,0.0,0.0,0.0,0.0,0.0,0.0,0.0,0.0,0.0,0.0,0.0,0.0,0.0,0.0,0.0,0.0,0.0,0.0,0.0,0.0,0.0,0.0,0.0,0.0,0.0,0.0,0.0,0.0,0.0,0.0,0.0,0.0,0.0,0.0,0.0,0.0,0.0,0.0,0.0,0.0,0.0,0.0,0.0,0.0,0.0,0.0,0.0,0.0,0.0,0.0,0.0,0.0,0.0,0.0,0.0,0.0,0.0,0.0,0.0,0.0,0.0,0.0,0.0,0.0,0.0,0.0,0.0,0.0,0.0,0.0,0.0,0.0,0.0,0.0,0.0,0.0,0.0,0.0,0.0,0.0,0.0,0.0,0.0,0.0,0.0,0.0,0.0,0.0,0.0,0.0,0.0,0.0,0.0,0.0,0.0,0.0,0.0,0.0,0.0,0.0,0.0,0.0,0.0,0.0,0.0,0.0,0.0,0.0,0.0,0.0,0.0,0.0,0.0,0.0,0.0,0.0,0.0,0.0,0.0,0.0,0.0,0.0,0.0,0.0,0.0,0.0,0.0,0.0,0.0,0.0,0.0,0.0,0.0,0.0,0.0,0.0,0.0,0.0,0.0,0.0,0.0,0.0,0.0,0.0,0.0,0.0,0.0,0.0,0.0,0.0,0.0,0.0,0.0,0.0,0.0,0.0,0.0,0.0,0.0,0.0,0.0,0.0,0.0,0.0,0.0,0.0,0.0,0.0,0.0,0.0,0.0,0.0,0.0,0.0,0.0,0.0,0.0,0.0,0.0,0.0,0.0,0.0,0.0,0.0,0.0,0.0,0.0,0.0,0.0,0.0,0.0,0.0,0.0,0.0,0.0,0.0,0.0,0.0,0.0,0.0,0.0,0.0,0.0,0.0,0.0,0.0,0.0,0.0,0.0,0.0,0.0,0.0,0.0,0.0,0.0,0.0,0.0,0.0,0.0,0.0,0.0,0.0,0.0,0.0,0.0,0.0,0.0,0.0,0.0,0.0,0.0,0.0,0.0,0.0,0.0,0.0,0.0,0.0,0.0,0.0,0.0,0.0,0.0,0.0,0.0,0.0,0.0,0.0,0.0,0.0,0.0,0.0,0.0,0.0,0.0,0.0,0.0,0.0,0.0,0.0,0.0,0.0,0.0,0.0,0.0,0.0,0.0,0.0,0.0,0.0,0.0,0.0,-5.3891,0.0,0.0,0.0,0.0,0.0,0.0,0.0,0.0,0.0,0.0,0.0,0.0,0.0,0.0,0.0,0.0,0.0,0.0,0.0,0.0,0.0,0.0,0.0,0.0,0.0,0.0,0.0,0.0,0.0,0.0,0.0,0.0,0.0,0.0,0.0,0.0,0.0,0.0,0.0,0.0,0.0,0.0,0.0,0.0,0.0,0.0,0.0,0.0,0.0,0.0,0.0,0.0,0.0,0.0,0.0,0.0,0.0,0.0,0.0,0.0,0.0,0.0,0.0,0.0,0.0,0.0,0.0,0.0,0.0,0.0,0.0,0.0,0.0,0.0,0.0,0.0,0.0,0.0,0.0,0.0,0.0,0.0,0.0,0.0,0.0,0.0,0.0,0.0,0.0,0.0,0.0,0.0,0.0,0.0,0.0,0.0,0.0,0.0,0.0,0.0,0.0,0.0,0.0,0.0,0.0,0.0,0.0,0.0,0.0,0.0,0.0,0.0,0.0,0.0,0.0,0.0,-5.3852,0.0,0.0,0.0,0.0,0.0,0.0,0.0,0.0,0.0,0.0,0.0,0.0,0.0,0.0,0.0,0.0,0.0,0.0,0.0,0.0,0.0,0.0,0.0,0.0,0.0,0.0,0.0,0.0,0.0,0.0,0.0,0.0,0.0,0.0,0.0,0.0,0.0,0.0,0.0,0.0,0.0,0.0,0.0,0.0,0.0,0.0,0.0,0.0,0.0,0.0,0.0,0.0,0.0,0.0,0.0,0.0,0.0,0.0,0.0,0.0,0.0,0.0,0.0,0.0,0.0,0.0,0.0,0.0,0.0,0.0,0.0,0.0,0.0,0.0,0.0,0.0,0.0,0.0,0.0,0.0,0.0,0.0,0.0,0.0,0.0,0.0,0.0,0.0,0.0,0.0,0.0,0.0,0.0,0.0,0.0,0.0,0.0,0.0,0.0,0.0,0.0,0.0,0.0,0.0,0.0,0.0,0.0,0.0,-5.4109,-5.4409,-5.3584,-5.4093,-5.4137,-5.3697,-5.3047,-5.3099,-5.3694,-5.4768,0.0,0.0,0.0,0.0,0.0,0.0,0.0,0.0,0.0,0.0,0.0,0.0,0.0,0.0,0.0,0.0,0.0,0.0,0.0,0.0,0.0,0.0,0.0,0.0,0.0,0.0,0.0,0.0,0.0,0.0,0.0,0.0,0.0,0.0,0.0,0.0,0.0,0.0,-3.9644,-4.0311,-4.1015,-4.1672,0.0,0.0,0.0,0.0,0.0,0.0,0.0,0.0,0.0,0.0,0.0,0.0,0.0,0.0,0.0,0.0,0.0,0.0,0.0,0.0,0.0,0.0,0.0,0.0,0.0,0.0,0.0,0.0,0.0,0.0,0.0,0.0,0.0,0.0,0.0,0.0,0.0,0.0,0.0,0.0,0.0,0.0,0.0,0.0,-4.4852,-4.4528,0.0,0.0,0.0,0.0,0.0,0.0,0.0,0.0,0.0,0.0,0.0,0.0,0.0,-5.1603,-5.1825,-5.2269,-5.2611,-5.2863,-5.4177,-5.4156,-5.2943,-5.3856,-5.3788,-5.3078,-5.3342,0.0,-5.5184,-5.4893,0.0,0.0,0.0,0.0,0.0,0.0,0.0,0.0,0.0,0.0,0.0,0.0,0.0,0.0,0.0,0.0,0.0,0.0,0.0,0.0,0.0,0.0,0.0,0.0,0.0,0.0,0.0,0.0,0.0,0.0,0.0,0.0,0.0,0.0,0.0,0.0,-3.9958,-4.082,-4.1155,-4.2009,-4.2854,-4.3651,-4.3305,-4.328,-4.3515,-4.3515,0.0,0.0,0.0,0.0,0.0,0.0,0.0,0.0,0.0,0.0,0.0,0.0,0.0,0.0,0.0,0.0,0.0,0.0,0.0,0.0,0.0,0.0,0.0,0.0,0.0,0.0,0.0,0.0,0.0,0.0,0.0,0.0,0.0,0.0,0.0,0.0,0.0,0.0,0.0,-4.5718,-4.5627,-4.646,-4.708,-4.7704,0.0,0.0,0.0,0.0,0.0,0.0,0.0,0.0,0.0,-5.0893,-5.1631,-5.2236,-5.2741,-5.3754,-5.4296,-5.443,-5.5279,-5.5383,-5.4839,-5.5273,-5.4992,-5.4282,-5.5022,-5.5673,-5.6219,-5.6572,-5.7878,-5.9692,0.0,0.0,0.0,0.0,-6.3801,-6.4746,0.0,0.0,0.0,0.0,0.0,0.0,0.0,0.0,0.0,0.0,0.0,0.0,0.0,0.0,0.0,0.0,0.0,0.0,0.0,0.0,0.0,0.0,0.0,0.0,0.0,0.0,0.0,0.0,-4.1445,-4.2234,-4.2354,-4.3237,-4.3955,-4.4579,-4.4782,-4.4595,-4.4165,-4.4165,-4.4129,0.0,0.0,0.0,0.0,0.0,0.0,0.0,0.0,0.0,0.0,0.0,0.0,0.0,0.0,0.0,0.0,0.0,0.0,0.0,0.0,0.0,0.0,0.0,0.0,0.0,0.0,0.0,0.0,0.0,0.0,0.0,0.0,0.0,0.0,0.0,0.0,0.0,0.0,-4.6494,-4.6548,-4.8052,-4.8263,-4.8609,0.0,0.0,0.0,0.0,0.0,0.0,-5.0621,-5.0758,-5.1122,-5.1768,-5.2724,-5.3567,-5.4264,-5.5546,-5.6166,-5.62,-5.7055,-5.7124,-5.661,-5.7113,-5.6995,-5.6292,-5.693,-5.7548,-5.8125,-5.8336,-5.9429,-6.1023,-6.1921,-6.28,-6.3648,-6.3931,-6.4568,-6.5493,0.0,0.0,0.0,0.0,0.0,0.0,0.0,0.0,0.0,0.0,0.0,0.0,0.0,0.0,0.0,0.0,0.0,0.0,0.0,0.0,0.0,0.0,0.0,0.0,0.0,0.0,0.0,-4.0556,-4.1478,-4.2227,-4.2772,-4.3589,-4.3953,-4.3972,-4.4725,-4.5403,-4.5988,-4.591,-4.5878,-4.5855,0.0,0.0,0.0,0.0,0.0,0.0,0.0,0.0,0.0,0.0,0.0,0.0,0.0,0.0,0.0,0.0,0.0,0.0,0.0,0.0,0.0,0.0,0.0,0.0,0.0,0.0,0.0,0.0,0.0,0.0,0.0,0.0,0.0,0.0,0.0,0.0,0.0,0.0,0.0,-4.8152,-4.82,0.0,0.0,0.0,0.0,-5.0259,-5.0158,-5.0411,-5.1104,-5.172,-5.2379,-5.3168,-5.4665,-5.5818,-5.6632,-5.7398,-5.7773,-5.7773,-5.9425,-5.9109,-5.7156,-5.9107,-5.9607,-5.8891,-5.8677,-5.9809,-6.1694,-5.9691,-5.9637,-6.0925,-6.1985,-6.2757,-6.342,-6.4108,-6.4611,-6.512,0.0,0.0,0.0,0.0,0.0,0.0,0.0,0.0,0.0,0.0,0.0,0.0,0.0,0.0,0.0,0.0,0.0,0.0,0.0,0.0,0.0,0.0,0.0,0.0,0.0,0.0,-4.0647,-4.113,-4.2503,-4.3291,-4.3446,-4.4278,-4.46,-4.4571,-4.4843,-4.5079,-4.5269,-4.5464,-4.5534,-4.5578,-4.5686,-4.5606,0.0,0.0,0.0,0.0,0.0,0.0,0.0,0.0,0.0,0.0,0.0,0.0,0.0,0.0,0.0,0.0,0.0,0.0,0.0,0.0,0.0,0.0,0.0,0.0,0.0,0.0,0.0,0.0,0.0,0.0,0.0,0.0,0.0,0.0,0.0,0.0,0.0,-4.9327,-4.905,0.0,-4.9725,-5.008,-5.0389,-5.0631,-5.0526,-5.0743,-5.1527,-5.2215,-5.3044,-5.4025,-5.5572,-5.6743,-5.7501,-5.8221,-5.9116,-6.0082,-6.0422,-6.0716,-6.0913,-6.1885,-6.1587,-6.0347,-6.1242,-6.1891,-6.2326,-6.2035,-6.2415,-6.3149,-6.3551,-6.4087,-6.4741,-6.5425,-6.5989,-6.6583,0.0,0.0,0.0,0.0,0.0,0.0,0.0,0.0,0.0,0.0,0.0,0.0,0.0,0.0,0.0,0.0,0.0,0.0,0.0,0.0,0.0,0.0,0.0,0.0,0.0,0.0,0.0,0.0,0.0,0.0,-4.398,-4.4523,-4.4738,-4.4688,-4.4638,-4.4625,-4.4688,-4.4861,-4.495,-4.5065,-4.5217,-4.5145,-4.4957,0.0,0.0,0.0,0.0,0.0,0.0,0.0,0.0,0.0,0.0,0.0,0.0,0.0,0.0,0.0,0.0,0.0,0.0,0.0,0.0,0.0,0.0,0.0,0.0,0.0,0.0,0.0,0.0,0.0,0.0,0.0,0.0,0.0,0.0,0.0,-4.825,-5.0058,-4.9556,-4.9422,-5.0436,-5.0514,-5.0779,-5.1641,-5.1494,-5.1877,-5.2974,-5.3705,-5.4551,-5.558,-5.6845,-5.8048,-5.9047,-5.9806,-6.0806,-6.2082,-6.2309,-6.2802,-6.349,-6.4079,-6.3728,-6.2571,-6.3366,-6.3653,-6.3584,-6.3758,-6.42,-6.473,-6.473,-6.5028,-6.5437,-6.5888,-6.6508,-6.7345,0.0,0.0,0.0,0.0,0.0,0.0,0.0,0.0,0.0,0.0,0.0,0.0,0.0,0.0,0.0,0.0,0.0,0.0,0.0,0.0,0.0,0.0,0.0,0.0,0.0,0.0,0.0,0.0,0.0,0.0,0.0,0.0,-4.4304,-4.4289,-4.4085,-4.4162,-4.4452,-4.4192,-4.4285,-4.4562,-4.4575,-4.4575,-4.4599,0.0,0.0,0.0,0.0,0.0,0.0,0.0,0.0,0.0,0.0,0.0,0.0,0.0,0.0,0.0,0.0,0.0,0.0,0.0,0.0,0.0,0.0,0.0,0.0,0.0,0.0,0.0,0.0,0.0,0.0,0.0,0.0,0.0,-5.0259,-4.9536,-4.9287,-5.0259,-4.9507,-4.956,-5.1043,-5.1126,-5.167,-5.3207,-5.3122,-5.3734,-5.5421,-5.6124,-5.6894,-5.7816,-5.8632,-5.9806,-6.1323,-6.2117,-6.291,-6.3669,-6.5186,-6.5417,-6.4553,-6.565,-6.5932,-6.5557,-6.5031,-6.5109,-6.5569,-6.4641,-6.4719,-6.5425,-6.5425,-6.5425,-6.5425,-6.5425,-6.6105,-6.7305,0.0,0.0,0.0,0.0,0.0,0.0,0.0,0.0,0.0,0.0,0.0,0.0,0.0,0.0,0.0,0.0,0.0,0.0,0.0,0.0,0.0,0.0,0.0,0.0,0.0,0.0,0.0,0.0,0.0,0.0,0.0,0.0,-4.3976,-4.395,-4.3902,-4.3865,-4.3839,-4.3779,-4.3742,-4.3833,-4.4276,-4.4261,-4.405,0.0,0.0,0.0,0.0,0.0,0.0,0.0,0.0,0.0,0.0,0.0,0.0,0.0,0.0,0.0,0.0,0.0,0.0,0.0,0.0,0.0,0.0,0.0,0.0,0.0,0.0,0.0,0.0,0.0,0.0,0.0,-5.0114,-4.9968,-5.0219,-4.9452,-4.9152,-4.9935,-4.9801,-4.9979,-5.0993,-5.157,-5.2384,-5.3656,-5.4235,-5.5028,-5.6017,-5.6774,-5.7649,-5.8632,-5.9977,-6.1151,-6.2151,-6.291,-6.3945,-6.5255,-6.5669,-6.6312,-6.7073,-6.7423,-6.6794,-6.5393,-6.5213,-6.4884,-6.4374,-6.4086,-6.4564,-6.5425,-6.5425,-6.5425,-6.5437,-6.5965,-6.6534,-6.7325,0.0,0.0,0.0,0.0,0.0,0.0,0.0,0.0,0.0,0.0,0.0,0.0,0.0,0.0,0.0,0.0,0.0,0.0,0.0,0.0,0.0,0.0,0.0,0.0,0.0,0.0,0.0,0.0,0.0,0.0,0.0,0.0,0.0,-4.3231,-4.3195,-4.3142,-4.3032,-4.3032,-4.2977,-4.2903,-4.3243,-4.3503,-4.3664,-4.3802,-4.4429,-4.5223,-4.4979,-4.6327,-4.8218,-4.8087,0.0,0.0,0.0,0.0,0.0,0.0,0.0,0.0,0.0,0.0,0.0,0.0,0.0,0.0,0.0,0.0,0.0,0.0,0.0,0.0,0.0,0.0,0.0,0.0,-5.0301,-5.0268,-5.008,-4.9649,-4.9575,-5.0338,-5.0703,-5.1268,-5.2294,-5.3122,-5.4126,-5.5435,-5.5994,-5.6798,-5.7865,-5.8377,-5.9173,-6.0461,-6.1323,-6.2324,-6.3393,-6.4186,-6.5152,-6.6359,-6.6669,-6.7295,-6.8201,-6.7925,-6.7078,-6.5734,-6.568,-6.5102,-6.4254,-6.4439,-6.5062,0.0,0.0,0.0,0.0,0.0,-6.7003,-6.7495,0.0,0.0,0.0,0.0,0.0,0.0,0.0,0.0,0.0,0.0,0.0,0.0,0.0,0.0,0.0,0.0,0.0,0.0,0.0,0.0,0.0,0.0,0.0,0.0,0.0,0.0,0.0,0.0,0.0,0.0,0.0,0.0,0.0,0.0,-4.2362,-4.2322,-4.2409,-4.2236,-4.2118,-4.2,-4.2127,-4.2665,-4.3397,-4.3269,-4.4492,-4.6136,-4.5646,-4.726,-4.9496,-4.8938,0.0,0.0,0.0,0.0,0.0,0.0,0.0,0.0,0.0,0.0,0.0,0.0,0.0,0.0,0.0,0.0,0.0,0.0,0.0,0.0,0.0,0.0,0.0,0.0,-5.0467,-5.048,-5.0224,-5.0145,-5.0381,-5.1005,-5.1885,-5.2949,-5.4274,-5.509,-5.6233,-5.7808,-5.8022,-5.8723,-6.0254,0.0,0.0,0.0,0.0,-6.3568,-6.4982,-6.5776,-6.6539,-6.7195,-6.7851,-6.8241,-6.8397,-6.7879,-6.712,-6.6262,-6.6192,-6.5647,-6.4879,-6.5255,-6.5944,-6.663,-6.5967,-6.5702,-6.5836,-6.6998,-6.7619,-6.7942,0.0,0.0,0.0,0.0,0.0,0.0,0.0,0.0,0.0,0.0,0.0,0.0,0.0,0.0,0.0,0.0,0.0,0.0,0.0,0.0,0.0,0.0,0.0,0.0,0.0,0.0,0.0,0.0,0.0,0.0,0.0,0.0,0.0,0.0,-4.2486,-4.2557,-4.3051,-4.2347,-4.2021,-4.2092,-4.2935,-4.3407,-4.3548,-4.3528,-4.4841,-4.6744,-4.6636,-4.8366,-5.0583,-4.9889,-5.0807,-5.2197,-5.2197,0.0,0.0,0.0,0.0,0.0,0.0,0.0,0.0,0.0,0.0,0.0,0.0,0.0,0.0,0.0,0.0,0.0,0.0,0.0,0.0,-5.1288,-5.1059,-5.1177,-5.1682,-5.1746,-5.1584,-5.1073,-5.2675,-5.3967,-5.4261,-5.5383,-5.6801,-5.8555,-5.9344,-6.0148,-6.1047,-6.1703,-6.2461,-6.3358,-6.4565,-6.5711,-6.68,-6.7561,-6.8089,-6.8381,0.0,0.0,-6.8628,-6.8513,-6.7656,-6.6305,-6.6296,-6.6013,-6.5554,-6.5679,-6.6489,-6.7699,-6.7566,-6.75,-6.759,-6.8223,-6.8485,-6.8556,0.0,0.0,0.0,0.0,0.0,0.0,0.0,0.0,0.0,0.0,0.0,0.0,0.0,0.0,0.0,0.0,0.0,0.0,0.0,0.0,0.0,0.0,0.0,0.0,0.0,0.0,0.0,0.0,0.0,0.0,0.0,0.0,0.0,0.0,0.0,-4.2472,-4.3045,-4.2253,-4.2033,-4.2334,-4.3242,-4.4097,-4.4894,-4.5027,-4.6585,-4.87,-4.8241,-4.963,-5.1467,-5.0694,-5.099,-5.1675,-5.1675,-5.201,-5.2361,0.0,0.0,0.0,0.0,0.0,0.0,0.0,0.0,0.0,0.0,0.0,0.0,0.0,0.0,-5.3387,-5.2658,0.0,-5.2134,-5.1397,-5.1651,-5.201,-5.2177,-5.3437,-5.3954,-5.287,-5.4,-5.5127,-5.5717,-5.7083,-5.8371,-5.9445,-6.0284,-6.129,-6.2537,-6.2988,-6.3958,-6.5521,-6.6355,-6.7156,-6.7996,-6.8378,-6.859,-6.8705,-6.8705,-6.8781,-6.8892,-6.8551,-6.7851,-6.6837,-6.6871,-6.6612,-6.6219,-6.7083,-6.7811,-6.8406,-6.914,-6.8975,-6.835,-6.8439,-6.8695,-6.8924,0.0,0.0,0.0,0.0,0.0,0.0,0.0,0.0,0.0,0.0,0.0,0.0,0.0,0.0,0.0,0.0,0.0,0.0,0.0,0.0,0.0,0.0,0.0,0.0,0.0,0.0,0.0,0.0,0.0,0.0,0.0,0.0,0.0,0.0,0.0,-4.253,-4.3031,-4.2252,-4.2134,-4.2573,-4.353,-4.4872,-4.6333,-4.7008,-4.8711,-5.065,-4.995,-5.081,-5.2173,-5.1527,-5.1149,-5.0947,-5.0947,-5.1328,-5.1776,-5.1433,-5.1928,0.0,0.0,0.0,0.0,0.0,0.0,0.0,0.0,0.0,-5.371,-5.3674,-5.3815,-5.3637,-5.2692,-5.2501,-5.2303,-5.1647,-5.2305,-5.2908,-5.29,-5.4862,-5.6014,-5.5231,-5.5696,-5.6441,-5.7352,-5.8753,-5.9929,-6.0669,-6.143,-6.2538,-6.4104,-6.445,-6.553,-6.7521,-6.773,-6.8116,-6.8781,-6.8781,-6.8781,-6.8819,-6.8819,-6.8967,-6.9153,-6.8586,-6.8152,-6.7803,-6.7895,-6.7591,-6.714,-6.8698,-6.923,-6.9251,-7.0406,-7.0175,-6.9143,-6.8954,-6.9132,-6.9519,0.0,0.0,0.0,0.0,0.0,0.0,0.0,0.0,0.0,0.0,0.0,0.0,0.0,0.0,0.0,0.0,0.0,0.0,0.0,0.0,0.0,0.0,0.0,0.0,0.0,0.0,0.0,0.0,0.0,0.0,0.0,0.0,0.0,0.0,0.0,0.0,-4.3723,-4.2815,-4.243,-4.2634,-4.4395,-4.5657,-4.6725,-4.9072,-5.0484,-5.1207,-5.1098,-5.1665,-5.245,-5.2341,-5.2282,-5.2223,-5.2223,-5.2358,-5.2484,-5.204,0.0,-5.197,-5.1546,-5.1635,-5.1976,-5.2586,-5.2746,-5.2758,0.0,0.0,-5.4034,-5.4028,-5.4554,-5.4774,-5.3873,-5.371,-5.3584,-5.3172,-5.3258,-5.3754,-5.5038,-5.5521,-5.6127,-5.7276,-5.7598,-5.7791,-5.7912,-5.8988,-6.052,-6.2544,-6.3413,-6.4249,-6.5118,-6.644,-6.7313,-6.7591,-6.8218,-6.8749,-6.9078,-6.9078,-6.9153,-6.9339,-6.9339,-6.9339,-6.9376,-6.9302,-6.9241,-6.9273,-6.9465,-6.9266,-6.891,-6.9743,-7.0276,-7.0645,-7.0574,-7.0724,-7.103,-7.0985,-7.103,-7.1075,0.0,0.0,0.0,0.0,0.0,0.0,0.0,0.0,0.0,0.0,0.0,0.0,0.0,0.0,0.0,0.0,0.0,0.0,0.0,0.0,0.0,0.0,0.0,0.0,0.0,0.0,0.0,0.0,0.0,0.0,0.0,0.0,0.0,0.0,0.0,0.0,-4.4374,-4.351,-4.3634,-4.4467,-4.5682,-4.7031,-4.8399,-4.9485,-5.0758,-5.2009,-5.2009,-5.1808,0.0,0.0,-5.2293,-5.2018,-5.2186,-5.2173,-5.2054,-5.1687,-5.1597,0.0,-5.159,-5.2018,-5.2514,-5.2822,-5.3241,-5.362,-5.362,-5.4308,-5.4898,-5.4928,-5.5173,-5.5048,-5.4074,-5.4892,-5.5309,0.0,-5.5297,-5.6421,-5.6554,-5.7367,-5.8069,-5.8379,-5.9665,-6.0179,-5.949,-6.0959,-6.2447,-6.3623,-6.4841,-6.5924,-6.6766,-6.7429,-6.8062,-6.8628,-6.8943,-6.9155,-6.9264,-6.9264,-6.9302,-6.9412,-6.9832,-7.0043,-7.0043,-7.0534,-7.0597,-7.0443,-7.0354,-7.0197,-6.9942,-7.0415,-7.0641,-7.0687,-7.087,-7.1007,-7.1086,-7.1086,-7.1176,-7.1312,0.0,0.0,0.0,0.0,0.0,0.0,0.0,0.0,0.0,0.0,0.0,0.0,0.0,0.0,0.0,0.0,0.0,0.0,0.0,0.0,0.0,0.0,0.0,0.0,0.0,0.0,0.0,0.0,0.0,0.0,0.0,0.0,0.0,0.0,0.0,0.0,-4.472,-4.4347,-4.4637,-4.5495,-4.6554,-4.7726,-4.8793,-4.9266,-5.0336,-5.1643,-5.2036,-5.1739,0.0,0.0,-5.2054,-5.1597,-5.1833,-5.1901,-5.1876,-5.1695,-5.1759,-5.2059,-5.2473,-5.2936,-5.3276,-5.355,-5.4005,-5.4454,-5.4601,-5.5145,-5.5625,-5.5625,-5.5801,-5.5669,-5.4736,-5.5902,-5.6598,-5.5314,-5.6847,-5.8115,-5.7944,-5.9072,-5.9957,-6.0038,-6.1896,-6.2871,-6.205,-6.324,-6.4337,-6.495,-6.6207,-6.7293,-6.7928,-6.8209,-6.8669,-6.9376,-6.9412,-6.9412,-6.9412,-6.9412,-6.9555,-6.9876,-7.0439,-7.0828,-7.1151,-7.1962,-7.1944,-7.1255,-7.1309,-7.1032,-7.0608,-7.0825,-7.0825,-7.0779,-7.1176,-7.1176,-7.1007,-7.1007,-7.1131,-7.1345,0.0,0.0,0.0,0.0,0.0,0.0,0.0,0.0,0.0,0.0,0.0,0.0,0.0,0.0,0.0,0.0,0.0,0.0,0.0,0.0,0.0,0.0,0.0,0.0,0.0,0.0,0.0,0.0,0.0,0.0,0.0,0.0,0.0,0.0,0.0,0.0,-4.4649,-4.5331,-4.5229,-4.4812,-4.6769,-4.7189,-4.68,-4.8523,-4.9233,-4.9472,-5.0872,0.0,0.0,0.0,-5.1783,-5.1324,-5.1324,-5.1794,0.0,-5.2458,-5.2989,0.0,0.0,0.0,-5.4285,-5.5203,-5.5284,-5.5224,-5.5443,-5.5706,-5.5872,-5.5872,-5.6509,-5.6888,-5.6344,-5.6666,-5.7042,-5.7193,-5.726,-5.7842,-5.9312,-6.0203,-6.1229,-6.2696,-6.4414,-6.5614,0.0,-6.5562,-6.5786,-6.6811,-6.7654,-6.8145,-6.8181,-6.8919,-6.934,-6.9412,-6.9412,-6.9412,-6.9412,-6.9412,-6.9948,-7.1053,-7.1053,-7.1659,-7.2762,-7.3583,-7.3131,-7.1717,-7.2409,-7.203,-7.087,-7.0916,-7.1052,-7.1267,-7.1312,-7.1312,-7.1267,-7.1267,-7.1312,-7.1413,0.0,0.0,0.0,0.0,0.0,0.0,0.0,0.0,0.0,0.0,0.0,0.0,0.0,0.0,0.0,0.0,0.0,0.0,0.0,0.0,0.0,0.0,0.0,0.0,0.0,0.0,0.0,0.0,0.0,0.0,0.0,0.0,0.0,0.0,0.0,0.0,-4.4615,-4.4857,-4.5365,-4.6099,-4.6659,-4.7511,-4.8566,-4.9025,-4.9793,-5.0659,0.0,0.0,0.0,0.0,0.0,0.0,-5.2664,0.0,0.0,-5.3176,0.0,0.0,0.0,0.0,-5.5162,-5.5636,-5.57,-5.5729,-5.6021,-5.6588,-5.7028,-5.7028,-5.7633,-5.7988,-5.751,-5.8694,-5.9439,-5.8654,-6.0107,-6.1527,-6.2056,-6.3254,-6.4487,-6.5544,-6.6812,0.0,0.0,0.0,0.0,-6.7796,-6.8533,-6.8989,-6.8989,-6.9235,-6.9522,-6.9741,-6.9741,-6.9849,-7.0132,-7.0629,-7.1055,-7.141,-7.2513,-7.3761,-7.5154,-7.5693,-7.503,-7.353,-7.4549,-7.3549,-7.121,-7.1683,-7.1661,-7.1312,-7.1312,-7.1367,-7.1501,-7.1501,-7.159,-7.1756,0.0,0.0,0.0,0.0,0.0,0.0,0.0,0.0,0.0,0.0,0.0,0.0,0.0,0.0,0.0,0.0,0.0,0.0,0.0,0.0,0.0,0.0,0.0,0.0,0.0,0.0,0.0,0.0,0.0,0.0,0.0,0.0,0.0,0.0,0.0,-4.3802,-4.3836,-4.4378,-4.4959,-4.5659,-4.622,-4.7096,-4.8076,-4.86,-4.9566,0.0,0.0,0.0,0.0,0.0,0.0,0.0,0.0,0.0,0.0,0.0,0.0,0.0,0.0,-5.5385,-5.5953,-5.6239,-5.6538,-5.6837,-5.7148,-5.7715,-5.8156,-5.8156,-5.8765,-5.9252,-5.9242,-6.0262,-6.1004,-6.0661,-6.219,-6.3586,-6.4158,-6.5621,-6.6907,-6.7728,-6.8841,-6.9453,0.0,0.0,0.0,-6.8857,-6.9422,-6.9812,-6.9812,-6.9812,-6.9884,-7.0097,-7.0132,-7.0237,-7.0514,-7.1228,-7.1974,-7.2685,-7.4402,-7.58,-7.6841,-7.7092,-7.6465,-7.5293,-7.5703,-7.4556,-7.2395,-7.287,-7.2632,-7.1953,-7.1953,-7.1872,-7.1732,-7.1732,-7.1854,-7.1985,0.0,0.0,0.0,0.0,0.0,0.0,0.0,0.0,0.0,0.0,0.0,0.0,0.0,0.0,0.0,0.0,0.0,0.0,0.0,0.0,0.0,0.0,0.0,0.0,0.0,0.0,0.0,0.0,0.0,0.0,0.0,0.0,0.0,0.0,-4.2286,-4.232,-4.2455,-4.3938,-4.4147,-4.3667,-4.5664,-4.6017,-4.5554,-4.7404,0.0,0.0,0.0,0.0,0.0,0.0,0.0,0.0,0.0,0.0,0.0,0.0,0.0,-5.5872,-5.5872,-5.6235,-5.6716,-5.7011,-5.7729,-5.842,-5.8702,-5.902,-5.9312,-5.9285,-5.9896,-6.0716,0.0,0.0,-6.176,-6.3326,-6.3576,-6.4148,-6.5756,-6.7257,-6.8508,0.0,0.0,0.0,0.0,0.0,0.0,-6.9991,0.0,-7.0514,-7.0514,-7.0514,-7.0514,-7.0548,-7.0548,-7.0548,-7.0584,-7.1368,-7.2756,-7.4716,-7.6574,-7.7572,-7.7813,-7.7811,-7.7401,-7.6753,-7.6018,-7.5163,-7.4319,-7.4353,-7.3909,-7.3147,-7.3113,-7.2703,-7.2088,-7.2063,-7.2063,-7.2097,0.0,0.0,0.0,0.0,0.0,0.0,0.0,0.0,0.0,0.0,0.0,0.0,0.0,0.0,0.0,0.0,0.0,0.0,0.0,0.0,0.0,0.0,0.0,0.0,0.0,0.0,0.0,0.0,0.0,0.0,0.0,0.0,0.0,0.0,-4.2286,-4.2591,-4.3166,-4.3538,-4.4248,-4.5151,0.0,-4.5845,-4.6323,0.0,0.0,0.0,0.0,0.0,0.0,0.0,0.0,0.0,0.0,-5.3661,-5.4929,0.0,0.0,-5.5879,-5.5648,-5.627,-5.704,-5.7391,-5.8251,-5.9048,-5.9286,-5.997,-6.0511,-6.0404,-6.1625,-6.2958,-6.3683,-6.3744,-6.4259,-6.5822,-6.5987,0.0,-6.8131,-6.9214,0.0,-7.0843,0.0,-7.0946,-7.0847,-7.0946,0.0,0.0,-7.0581,-7.0514,-7.0514,-7.0514,-7.0615,-7.0847,-7.0847,-7.1267,-7.2142,-7.3513,-7.4841,-7.6088,-7.6587,-7.7195,-7.7943,-7.854,-7.8063,-7.6788,-7.7752,-7.6698,-7.4353,-7.49,-7.4695,-7.3943,-7.3318,-7.345,-7.3788,-7.2656,-7.2717,-7.3258,0.0,0.0,0.0,0.0,0.0,0.0,0.0,0.0,0.0,0.0,0.0,0.0,0.0,0.0,0.0,0.0,0.0,0.0,0.0,0.0,0.0,0.0,0.0,0.0,0.0,0.0,0.0,0.0,0.0,0.0,0.0,0.0,0.0,-4.1443,-4.1331,-4.1745,-4.2455,0.0,0.0,0.0,0.0,0.0,0.0,0.0,0.0,0.0,0.0,0.0,0.0,0.0,0.0,-5.2623,-5.2794,-5.3671,-5.4706,-5.4909,0.0,-5.6049,-5.5764,-5.6721,-5.7861,-5.8032,-5.9171,-6.0303,-6.0629,-6.1151,-6.164,-6.194,-6.2874,-6.4047,-6.5459,-6.5403,-6.5747,0.0,0.0,0.0,-6.9569,-7.0372,-7.1024,0.0,-7.1336,0.0,-7.1207,-7.1207,-7.1207,0.0,-7.1048,-7.0949,-7.0949,-7.0949,-7.1048,-7.1207,-7.1207,-7.1914,-7.3329,-7.4599,-7.5713,-7.6676,-7.704,-7.7539,-7.8175,-7.8574,-7.8315,-7.7518,0.0,-7.7104,-7.5101,-7.5513,-7.5238,-7.4518,-7.4072,-7.4263,-7.4591,-7.3387,-7.3344,-7.3671,0.0,0.0,0.0,0.0,0.0,0.0,0.0,0.0,0.0,0.0,0.0,0.0,0.0,0.0,0.0,0.0,0.0,0.0,0.0,0.0,0.0,0.0,0.0,0.0,0.0,0.0,0.0,0.0,0.0,0.0,0.0,0.0,0.0,0.0,0.0,0.0,0.0,0.0,0.0,0.0,0.0,0.0,0.0,0.0,0.0,0.0,0.0,0.0,0.0,0.0,-5.1945,-5.1865,-5.26,-5.3385,-5.4135,-5.4955,-5.5776,-5.6328,-5.6049,-5.7249,-5.8609,-5.8609,-6.0016,-6.154,-6.196,-6.2139,-6.2483,-6.3282,-6.3627,-6.4529,-6.6801,-6.6652,-6.6967,-6.9398,0.0,-6.9703,-7.0501,-7.1158,-7.1557,-7.1526,-7.1526,-7.1526,-7.1526,-7.1526,-7.1526,-7.1557,-7.1557,-7.1526,-7.1494,-7.1494,-7.1494,-7.1526,-7.1635,-7.2454,-7.4029,-7.4865,-7.5689,-7.6542,-7.7344,-7.781,-7.8007,-7.8082,-7.8135,-7.8146,-7.7465,-7.6698,-7.5947,-7.5947,-7.5568,-7.4869,-7.4766,-7.48,-7.48,-7.3947,-7.3705,-7.3671,0.0,0.0,0.0,0.0,0.0,0.0,0.0,0.0,0.0,0.0,0.0,0.0,0.0,0.0,0.0,0.0,0.0,0.0,0.0,0.0,0.0,0.0,0.0,0.0,0.0,0.0,0.0,0.0,0.0,0.0,0.0,0.0,0.0,0.0,0.0,0.0,0.0,0.0,0.0,0.0,0.0,0.0,0.0,0.0,0.0,0.0,0.0,0.0,0.0,0.0,-5.2102,-5.2148,-5.2712,-5.3411,-5.4161,-5.4982,-5.5767,-5.6383,-5.6328,-5.7198,-5.8098,-5.8098,-5.961,-6.1125,-6.1204,-6.1897,0.0,-6.2579,-6.3894,-6.5527,-6.714,-6.7853,-6.8995,-7.1399,-7.1069,-7.0804,-7.1636,-7.1854,-7.1866,0.0,-7.1718,-7.1718,-7.1718,-7.1718,0.0,0.0,-7.1897,-7.1805,-7.1494,-7.1494,-7.1593,-7.1718,-7.2372,-7.2938,-7.3379,-7.415,-7.4717,-7.5086,-7.5859,-7.6318,-7.6509,-7.7195,-7.7163,-7.6506,-7.6407,0.0,-7.5076,-7.5076,-7.5007,-7.4834,-7.4223,-7.4361,-7.4731,-7.3395,-7.3299,-7.3671,0.0,0.0,0.0,0.0,0.0,0.0,0.0,0.0,0.0,0.0,0.0,0.0,0.0,0.0,0.0,0.0,0.0,0.0,0.0,0.0,0.0,0.0,0.0,0.0,0.0,0.0,0.0,0.0,0.0,0.0,0.0,0.0,0.0,0.0,0.0,0.0,0.0,0.0,0.0,0.0,0.0,0.0,0.0,0.0,0.0,0.0,0.0,0.0,0.0,0.0,-5.2384,-5.2376,-5.246,-5.3293,-5.4358,-5.4881,-5.5903,-5.6812,-5.6653,-5.7441,-5.829,-5.8159,-5.9641,-6.1193,-6.1508,0.0,0.0,-6.3468,-6.4522,-6.5752,-6.7313,-6.855,-6.9701,-7.0836,-7.1267,-7.1404,-7.1368,-7.1732,-7.1957,-7.1933,-7.1903,-7.1903,-7.1903,-7.1903,-7.1933,-7.1988,-7.1988,-7.1927,-7.1775,-7.1744,-7.1775,-7.1903,-7.2667,-7.3197,-7.3349,-7.4153,-7.4647,-7.4799,-7.5605,-7.6039,-7.6099,-7.657,-7.6514,-7.6078,-7.5736,-7.5101,-7.4326,-7.4326,-7.4326,-7.4292,-7.3947,-7.4257,-7.4766,-7.3671,-7.3464,-7.3671,0.0,0.0,0.0,0.0,0.0,0.0,0.0,0.0,0.0,0.0,0.0,0.0,0.0,0.0,0.0,0.0,0.0,0.0,0.0,0.0,0.0,0.0,0.0,0.0,0.0,0.0,0.0,0.0,0.0,0.0,0.0,0.0,0.0,0.0,0.0,0.0,0.0,0.0,0.0,0.0,0.0,0.0,0.0,0.0,0.0,0.0,0.0,0.0,0.0,0.0,-5.268,-5.2649,-5.2544,-5.3471,-5.4697,-5.5281,-5.6271,-5.7163,-5.6959,-5.7608,-5.8282,-5.8104,-5.9423,-6.092,-6.1675,-6.2177,0.0,-6.4193,-6.4979,-6.5834,-6.7253,-6.8697,-6.9778,0.0,-7.0938,-7.1479,-7.1004,-7.145,-7.1895,-7.2048,-7.2048,0.0,-7.2048,-7.2048,0.0,-7.2108,-7.2108,-7.2078,-7.2018,-7.1988,-7.2024,-7.2048,-7.2668,-7.3094,-7.328,-7.3933,-7.4286,-7.4404,-7.5395,-7.5866,-7.5903,-7.5967,-7.6012,-7.5939,-7.4984,-7.421,0.0,-7.3575,-7.3533,-7.3533,-7.3533,-7.3912,-7.4317,-7.3525,-7.3275,-7.3129,0.0,0.0,0.0,0.0,0.0,0.0,0.0,0.0,0.0,0.0,0.0,0.0,0.0,0.0,0.0,0.0,0.0,0.0,0.0,0.0,0.0,0.0,0.0,0.0,0.0,0.0,0.0,0.0,0.0,0.0,0.0,0.0,0.0,0.0,0.0,0.0,0.0,0.0,0.0,0.0,0.0,0.0,0.0,0.0,0.0,0.0,0.0,0.0,0.0,0.0,0.0,-5.3083,-5.3622,-5.4288,-5.5196,-5.6721,0.0,0.0,-5.7313,-5.7436,-5.7521,-5.7619,-5.8434,-5.954,-6.0737,0.0,-6.2569,-6.3416,-6.4782,-6.6049,-6.6662,-6.8094,-6.9446,-7.0317,0.0,-7.0689,-7.1351,-7.1386,-7.1574,-7.2189,0.0,0.0,-7.2299,-7.2299,-7.2321,-7.2438,-7.2438,-7.2321,-7.2018,-7.1988,-7.2078,-7.227,-7.2336,-7.2468,-7.2577,-7.265,-7.2687,-7.2753,-7.4294,-7.5088,-7.5279,-7.5345,-7.5478,-7.5549,-7.3896,-7.315,0.0,-7.2858,-7.2774,-7.2774,-7.2774,-7.2809,-7.2793,-7.1791,-7.1446,-7.1278,0.0,0.0,0.0,0.0,0.0,0.0,0.0,0.0,0.0,0.0,0.0,0.0,0.0,0.0,0.0,0.0,0.0,0.0,0.0,0.0,0.0,0.0,0.0,0.0,0.0,0.0,0.0,0.0,0.0,0.0,0.0,0.0,0.0,0.0,0.0,0.0,0.0,0.0,0.0,0.0,0.0,0.0,0.0,0.0,0.0,0.0,0.0,0.0,0.0,0.0,0.0,0.0,-5.3865,-5.4533,0.0,0.0,-5.7122,-5.7437,-5.7486,-5.7559,-5.7631,-5.7715,-5.8456,-5.9462,-6.0825,0.0,-6.2717,-6.4174,-6.5285,-6.6179,-6.674,-6.814,-6.9173,-6.9067,0.0,0.0,-7.018,-7.0964,-7.1479,-7.1185,-7.1563,0.0,0.0,0.0,-7.1988,-7.2467,-7.2496,-7.2438,-7.2321,-7.2321,-7.2351,-7.2409,-7.2409,-7.2438,-7.2496,-7.2496,-7.2496,-7.2532,-7.4147,-7.5007,-7.5198,-7.5275,-7.5442,-7.5477,-7.3751,-7.3005,0.0,-7.2797,-7.2713,-7.2628,-7.2038,-7.1786,-7.1654,-7.0645,-7.0243,-7.015,0.0,0.0,0.0,0.0,0.0,0.0,0.0,0.0,0.0,0.0,0.0,0.0,0.0,0.0,0.0,0.0,0.0,0.0,0.0,0.0,0.0,0.0,0.0,0.0,0.0,0.0,0.0,0.0,0.0,0.0,0.0,0.0,-3.8408,-3.9216,0.0,0.0,0.0,0.0,0.0,0.0,0.0,0.0,0.0,0.0,0.0,0.0,0.0,0.0,0.0,0.0,0.0,0.0,0.0,0.0,0.0,0.0,-5.6987,-5.7583,-5.7631,-5.7739,-5.781,-5.7857,-5.839,-5.9306,0.0,0.0,-6.2625,-6.4678,-6.5657,-6.6319,-6.6889,-6.8084,-6.8849,0.0,0.0,-6.9747,-6.9414,-7.0534,-7.113,-7.0493,0.0,-7.1484,0.0,-7.1277,-7.1609,-7.2137,-7.238,-7.2496,-7.2496,-7.2496,-7.2496,-7.2496,-7.2304,-7.2333,-7.2553,-7.2353,-7.2353,-7.259,-7.4264,-7.5124,-7.5256,-7.5409,-7.5583,-7.5652,-7.3948,-7.317,0.0,-7.288,-7.2586,-7.2167,-7.1478,-7.0996,-7.0599,-6.9504,-6.9169,-6.9121,0.0,0.0,0.0,0.0,0.0,0.0,0.0,0.0,0.0,0.0,0.0,0.0,0.0,0.0,0.0,0.0,0.0,0.0,0.0,0.0,0.0,0.0,0.0,0.0,0.0,0.0,0.0,0.0,0.0,0.0,0.0,0.0,0.0,0.0,0.0,0.0,0.0,0.0,0.0,0.0,0.0,0.0,0.0,0.0,0.0,0.0,0.0,0.0,0.0,0.0,0.0,0.0,0.0,0.0,0.0,0.0,-5.7058,-5.7607,-5.7786,-5.781,-5.7834,-5.7973,-5.8125,-5.8755,0.0,-6.1351,-6.2106,-6.4588,-6.5724,-6.647,-6.7011,-6.7753,-6.8334,-6.8457,-6.842,0.0,-6.9395,-7.0069,-7.0507,0.0,0.0,-7.1351,-7.0496,-7.1014,-7.1422,-7.1422,-7.2108,0.0,-7.2496,-7.2496,-7.2496,-7.2496,-7.1838,-7.1885,-7.2695,-7.2051,-7.2051,-7.2695,-7.4523,-7.542,-7.5391,-7.5738,-7.5961,-7.6029,-7.4408,-7.3537,0.0,-7.3088,-7.2262,-7.121,-7.1176,-7.0553,-6.9504,-6.847,-6.8154,-6.8004,0.0,0.0,0.0,0.0,0.0,0.0,0.0,0.0,0.0,0.0,0.0,0.0,0.0,0.0,0.0,0.0,0.0,0.0,0.0,0.0,0.0,0.0,0.0,0.0,0.0,0.0,0.0,0.0,0.0,0.0,0.0,0.0,0.0,0.0,0.0,0.0,0.0,0.0,0.0,0.0,0.0,0.0,0.0,0.0,0.0,0.0,0.0,0.0,0.0,0.0,0.0,0.0,0.0,0.0,0.0,0.0,0.0,0.0,-5.7941,-5.8133,-5.8238,-5.8282,-5.8305,-5.8652,-5.9965,-6.0874,-6.2064,-6.4406,-6.5717,-6.6769,-6.7874,-6.8247,-6.8432,-6.8481,-6.8457,0.0,0.0,0.0,0.0,-6.9074,-6.9613,-6.9873,0.0,0.0,-7.0637,-7.0637,-7.1323,-7.1763,-7.1885,-7.2372,-7.2638,-7.2638,-7.1894,-7.1941,-7.2927,-7.1996,-7.1996,-7.2927,-7.3876,-7.4772,-7.5532,-7.5188,-7.5455,-7.6029,-7.4408,-7.3537,0.0,-7.3088,-7.2262,-7.1131,-7.0381,-6.949,-6.847,-6.7459,-6.7078,-6.7026,0.0,0.0,0.0,0.0,0.0,0.0,0.0,0.0,0.0,0.0,0.0,0.0,0.0,0.0,0.0,0.0,0.0,0.0,0.0,0.0,0.0,0.0,0.0,0.0,0.0,0.0,0.0,0.0,0.0,0.0,0.0,0.0,0.0,0.0,0.0,0.0,0.0,0.0,0.0,0.0,0.0,0.0,-4.515,0.0,0.0,0.0,0.0,0.0,0.0,0.0,0.0,0.0,0.0,0.0,0.0,0.0,0.0,0.0,0.0,-5.8069,-5.8393,-5.8393,-5.8437,0.0,0.0,-6.0598,-6.188,-6.3922,-6.5136,-6.6195,-6.7378,-6.7614,-6.7614,-6.7625,-6.7861,0.0,0.0,0.0,0.0,-6.8022,0.0,0.0,0.0,-6.8611,-6.9033,-6.9033,-6.9711,-7.0324,-7.0726,-7.1151,-7.1598,-7.194,-7.1461,-7.1515,-7.214,-7.1568,-7.1571,-7.2217,-7.3292,-7.4125,-7.4815,-7.4543,-7.4863,-7.5652,-7.437,0.0,0.0,-7.317,-7.2099,-7.0553,-6.9869,-6.8765,-6.7427,-6.6849,-6.6617,-6.6617,0.0,0.0,0.0,0.0,0.0,0.0,0.0,0.0,0.0,0.0,0.0,0.0,0.0,0.0,0.0,0.0,0.0,0.0,0.0,0.0,0.0,0.0,0.0,0.0,0.0,0.0,0.0,0.0,0.0,0.0,0.0,0.0,0.0,0.0,0.0,0.0,0.0,0.0,0.0,0.0,0.0,0.0,0.0,0.0,0.0,0.0,0.0,0.0,0.0,0.0,0.0,0.0,0.0,0.0,0.0,0.0,0.0,0.0,0.0,0.0,0.0,0.0,0.0,0.0,0.0,-6.0506,0.0,-6.3267,-6.4233,-6.5088,-6.5942,-6.6091,-6.6138,-6.6178,-6.6854,0.0,0.0,-6.7542,0.0,0.0,-6.6441,0.0,-6.5933,-6.6532,-6.6952,-6.6952,-6.7614,-6.8375,-6.9153,-6.9243,-6.9616,-7.0476,-7.0502,-7.0565,-7.0717,-7.0794,-7.084,-7.0945,-7.2636,-7.3441,-7.3438,-7.3723,-7.4261,0.0,-7.429,0.0,0.0,-7.3217,-7.1727,-6.9599,-6.9504,-6.8271,-6.6523,-6.6586,-6.6554,-6.6459,0.0,0.0,0.0,0.0,0.0,0.0,0.0,0.0,0.0,0.0,0.0,0.0,0.0,0.0,0.0,0.0,0.0,0.0,0.0,0.0,0.0,0.0,0.0,0.0,0.0,0.0,0.0,0.0,0.0,0.0,0.0,0.0,0.0,0.0,0.0,0.0,0.0,0.0,0.0,0.0,0.0,0.0,0.0,0.0,0.0,0.0,-4.6826,-4.7722,0.0,0.0,0.0,0.0,0.0,0.0,0.0,0.0,-5.4518,0.0,0.0,0.0,0.0,0.0,0.0,0.0,0.0,-6.0571,-6.167,-6.3267,-6.4233,-6.5074,-6.6021,-6.6193,-6.6238,-6.6314,0.0,-6.7158,-6.6588,0.0,0.0,-6.5654,-6.5781,-6.5736,-6.5292,-6.5806,-6.6145,-6.6145,-6.6953,-6.7544,-6.7914,-6.8562,-6.8796,-6.8502,-6.8466,-6.9219,-7.0845,-7.0273,-7.0375,-7.1154,-7.1581,-7.2142,-7.2839,-7.2933,-7.3405,-7.4189,0.0,0.0,-7.3217,-7.2313,-7.1019,-6.9504,-6.8765,-6.7379,-6.589,-6.6396,-6.5922,-6.5069,0.0,0.0,0.0,0.0,0.0,0.0,0.0,0.0,0.0,0.0,0.0,0.0,0.0,0.0,0.0,0.0,0.0,0.0,0.0,0.0,0.0,0.0,0.0,0.0,0.0,0.0,0.0,0.0,0.0,0.0,0.0,0.0,0.0,0.0,0.0,0.0,0.0,0.0,0.0,0.0,-4.3078,0.0,0.0,0.0,0.0,0.0,-4.6315,-4.7145,0.0,-4.9647,-5.0984,-5.2294,0.0,0.0,0.0,0.0,-5.4167,0.0,0.0,0.0,0.0,-5.8512,-5.8777,-5.8983,-5.9822,0.0,-6.1672,-6.2938,-6.3832,-6.454,-6.5054,-6.4888,-6.4842,-6.5282,-6.5652,0.0,0.0,0.0,-6.4951,-6.4393,-6.467,-6.4734,0.0,-6.4675,-6.4879,-6.4991,-6.54,-6.59,-6.6516,-6.7007,-6.7266,-6.7257,-6.725,-6.7789,-6.8943,-6.8856,-6.912,-6.9745,-7.0102,-7.0781,-7.1653,-7.1659,-7.2329,0.0,0.0,0.0,-7.3176,-7.1978,-7.0591,-6.9041,-6.803,-6.658,-6.5132,-6.5511,-6.5164,-6.4563,0.0,0.0,0.0,0.0,0.0,0.0,0.0,0.0,0.0,0.0,0.0,0.0,0.0,0.0,0.0,0.0,0.0,0.0,0.0,0.0,0.0,0.0,0.0,0.0,0.0,0.0,0.0,0.0,0.0,0.0,0.0,0.0,0.0,0.0,0.0,0.0,0.0,0.0,0.0,0.0,-4.2741,0.0,0.0,0.0,0.0,0.0,0.0,0.0,0.0,-4.9144,-5.0504,-5.1952,-5.3043,0.0,0.0,0.0,0.0,0.0,0.0,0.0,-5.736,-5.8289,-5.8686,-5.914,-6.0054,-6.092,-6.1728,-6.2699,-6.3409,-6.3851,0.0,-6.3377,0.0,0.0,0.0,0.0,-6.4884,-6.4375,-6.3867,-6.3606,-6.3648,0.0,-6.3577,-6.3641,-6.3747,-6.3929,-6.3965,-6.4358,-6.5207,-6.5273,-6.5629,-6.6307,-6.6307,-6.6307,-6.6307,-6.7186,-6.777,-6.8019,-6.8703,-6.9495,-7.0323,-7.0464,-7.1201,-7.2427,0.0,0.0,-7.2624,-7.1377,-6.9815,-6.8126,-6.7102,-6.5724,-6.4374,-6.4468,-6.4374,-6.4184,0.0,0.0,0.0,0.0,0.0,0.0,0.0,0.0,0.0,0.0,0.0,0.0,0.0,0.0,0.0,0.0,0.0,0.0,0.0,0.0,0.0,0.0,0.0,0.0,0.0,0.0,0.0,0.0,0.0,0.0,0.0,0.0,0.0,0.0,0.0,0.0,0.0,0.0,0.0,0.0,0.0,0.0,0.0,0.0,0.0,0.0,0.0,0.0,0.0,-4.8217,-4.9356,-5.0446,-5.2055,0.0,0.0,0.0,0.0,0.0,-5.4816,-5.5206,-5.5763,-5.7323,-5.8215,-5.9148,-6.0741,-6.123,-6.1794,0.0,0.0,0.0,0.0,-6.349,-6.3661,0.0,0.0,-6.4432,0.0,0.0,-6.4075,-6.3413,0.0,-6.3939,-6.3415,-6.3797,-6.4109,-6.4144,-6.4252,-6.4393,-6.4567,-6.4705,-6.4842,-6.4977,-6.4977,-6.4977,-6.4977,-6.6284,-6.7296,-6.7986,-6.8258,-6.8783,-6.9586,-7.0218,-7.0526,-7.0619,0.0,-7.073,-6.9808,-6.8629,-6.7419,-6.6323,-6.5254,-6.44,-6.371,-6.431,-6.3773,-6.2712,0.0,0.0,0.0,0.0,0.0,0.0,0.0,0.0,0.0,0.0,0.0,0.0,0.0,0.0,0.0,0.0,0.0,0.0,0.0,0.0,0.0,0.0,0.0,0.0,0.0,0.0,0.0,0.0,0.0,0.0,0.0,0.0,0.0,0.0,0.0,0.0,0.0,0.0,0.0,0.0,0.0,0.0,0.0,0.0,0.0,0.0,0.0,0.0,0.0,0.0,-4.91,-5.0279,-5.1646,0.0,0.0,0.0,0.0,0.0,-5.4296,-5.4686,-5.5317,-5.6543,-5.7475,-5.8541,-6.0278,-6.1048,-6.1782,0.0,0.0,0.0,0.0,0.0,-6.2718,-6.2257,0.0,-6.3788,-6.3734,-6.4068,-6.4159,0.0,0.0,-6.4074,-6.3834,-6.4007,-6.4216,-6.4287,-6.4393,-6.4428,-6.4568,-6.4637,-6.4672,-6.4672,-6.4672,-6.4672,-6.4672,-6.533,-6.6065,-6.6843,-6.7306,-6.7971,-6.8779,-6.9095,-6.911,-6.8812,0.0,-6.8268,-6.7843,-6.6654,-6.5894,-6.5368,-6.4352,-6.352,-6.2951,-6.3268,-6.2933,-6.2396,0.0,0.0,0.0,0.0,0.0,0.0,0.0,0.0,0.0,0.0,0.0,0.0,0.0,0.0,0.0,0.0,0.0,0.0,0.0,0.0,0.0,0.0,0.0,0.0,0.0,0.0,0.0,0.0,0.0,0.0,0.0,0.0,0.0,0.0,0.0,0.0,0.0,0.0,0.0,0.0,0.0,0.0,0.0,0.0,0.0,0.0,0.0,0.0,0.0,0.0,0.0,0.0,0.0,0.0,0.0,0.0,-5.3851,-5.4037,-5.3889,-5.4316,-5.5004,-5.584,-5.6809,-5.8002,-5.9719,-6.0659,-6.1446,-6.2438,0.0,0.0,0.0,-6.2446,0.0,-6.1564,-6.2521,-6.3243,-6.3115,-6.378,-6.4307,-6.4318,-6.4324,-6.4307,-6.4323,-6.4322,-6.4358,-6.4428,-6.4463,-6.4568,-6.4672,-6.4672,-6.4672,-6.4672,-6.4672,-6.4672,-6.4672,-6.4672,-6.5092,-6.5935,-6.6461,-6.7164,-6.79,-6.7756,-6.7481,-6.7044,-6.6177,-6.5766,-6.5558,-6.4784,-6.435,-6.4095,-6.349,-6.2788,-6.2116,-6.1916,-6.1784,-6.1734,0.0,0.0,0.0,0.0,0.0,0.0,0.0,0.0,0.0,0.0,0.0,0.0,0.0,0.0,0.0,0.0,0.0,0.0,0.0,0.0,0.0,0.0,0.0,0.0,0.0,0.0,0.0,0.0,0.0,0.0,0.0,0.0,0.0,0.0,0.0,0.0,0.0,0.0,0.0,0.0,0.0,0.0,0.0,0.0,0.0,0.0,0.0,0.0,0.0,0.0,0.0,0.0,0.0,0.0,0.0,0.0,0.0,-5.4273,-5.4109,-5.411,-5.4353,-5.5081,-5.64,-5.7959,-5.9698,-6.0149,-6.0513,-6.167,0.0,0.0,0.0,-6.2057,-6.203,-6.2129,-6.2875,-6.3234,-6.2551,0.0,-6.4668,-6.4635,-6.467,-6.4636,-6.4672,-6.4637,-6.4672,-6.4672,-6.4672,-6.4672,-6.4672,-6.4672,-6.4672,-6.4672,-6.4672,-6.4672,-6.4672,-6.4672,-6.5092,-6.59,-6.5935,-6.6356,-6.7058,-6.6514,-6.5918,-6.526,-6.4593,-6.3539,-6.2198,-6.2755,-6.2473,-6.169,-6.2256,-6.1997,-6.1175,-6.0368,-6.0053,-6.0,0.0,0.0,0.0,0.0,0.0,0.0,0.0,0.0,0.0,0.0,0.0,0.0,0.0,0.0,0.0,0.0,0.0,0.0,0.0,0.0,0.0,0.0,0.0,0.0,0.0,0.0,0.0,0.0,0.0,0.0,0.0,0.0,0.0,0.0,0.0,0.0,0.0,0.0,0.0,0.0,0.0,0.0,0.0,0.0,0.0,0.0,0.0,0.0,0.0,0.0,0.0,0.0,0.0,0.0,0.0,0.0,0.0,-5.3698,-5.3757,-5.3506,-5.3551,-5.4855,-5.5717,-5.6556,0.0,-5.8806,-5.9864,-6.0799,-6.1043,0.0,0.0,0.0,-6.095,-6.1386,-6.221,-6.2746,-6.2455,-6.3723,-6.4672,-6.4672,-6.4672,-6.4672,-6.4672,-6.4672,-6.4672,-6.4672,-6.4323,-6.4146,-6.4146,-6.4146,-6.3825,-6.3168,-6.3788,-6.3681,-6.2719,-6.3277,-6.3597,-6.3614,-6.5159,-6.5828,-6.5748,-6.5493,-6.4517,-6.2932,-6.2249,-6.1328,-6.0227,-6.0529,-6.0963,-6.1417,-6.1584,-6.1124,-6.0368,-6.0,-5.9683,-5.9278,0.0,0.0,0.0,0.0,0.0,0.0,0.0,0.0,0.0,0.0,0.0,0.0,0.0,0.0,0.0,0.0,0.0,0.0,0.0,0.0,0.0,0.0,0.0,0.0,0.0,0.0,0.0,0.0,0.0,0.0,0.0,0.0,0.0,0.0,0.0,0.0,0.0,0.0,0.0,0.0,0.0,0.0,0.0,0.0,0.0,0.0,0.0,0.0,0.0,0.0,0.0,0.0,0.0,0.0,0.0,0.0,0.0,0.0,-5.3387,-5.3187,-5.3172,-5.4109,-5.4991,-5.5677,-5.5796,-5.7394,-5.8998,-5.942,-6.0139,-6.0919,-6.1587,0.0,0.0,0.0,-6.1817,-6.2389,-6.2389,-6.3723,-6.4672,-6.4672,-6.4533,-6.4428,-6.4428,-6.4217,-6.4111,-6.4111,-6.3716,-6.3496,-6.3496,-6.3385,-6.2943,-6.2217,-6.2791,-6.2566,-6.1508,-6.229,-6.2441,-6.1981,-6.3867,-6.4585,-6.4324,-6.3989,-6.291,-6.131,-6.0433,-5.9689,-5.9001,-5.9222,-5.9964,-6.0962,-6.0597,-6.008,-5.9469,-5.9201,-5.8684,-5.8136,0.0,0.0,0.0,0.0,0.0,0.0,0.0,0.0,0.0,0.0,0.0,0.0,0.0,0.0,0.0,0.0,0.0,0.0,0.0,0.0,0.0,0.0,0.0,0.0,0.0,0.0,0.0,0.0,0.0,0.0,0.0,0.0,0.0,0.0,0.0,0.0,0.0,0.0,0.0,0.0,0.0,0.0,0.0,0.0,0.0,0.0,0.0,0.0,0.0,0.0,0.0,0.0,0.0,0.0,0.0,0.0,-5.2993,-5.3004,-5.3004,-5.3232,-5.3313,-5.266,-5.4194,0.0,-5.4194,-5.5981,-5.7801,-5.7459,-5.9168,-6.0811,-6.1128,-6.1556,0.0,-6.1272,-6.1844,-6.2389,-6.2389,-6.3723,-6.4672,-6.4672,-6.4146,-6.3788,-6.3788,-6.3237,-6.2897,-6.2897,-6.2859,-6.2893,-6.2893,-6.2445,-6.2178,-6.2178,-6.1743,-6.1468,-6.1468,-6.1941,-6.1941,-6.1468,-6.1941,-6.2407,-6.2821,-6.1803,-6.1036,-6.0534,-5.9476,-5.8733,-5.8384,-5.9033,-5.9627,-5.997,-5.9122,-5.8677,-5.847,-5.764,-5.6908,-5.6279,0.0,0.0,0.0,0.0,0.0,0.0,0.0,0.0,0.0,0.0,0.0,0.0,0.0,0.0,0.0,0.0,0.0,0.0,0.0,0.0,0.0,0.0,0.0,0.0,0.0,0.0,0.0,0.0,0.0,0.0,0.0,0.0,0.0,-3.9151,0.0,0.0,0.0,0.0,0.0,0.0,0.0,0.0,0.0,0.0,0.0,0.0,0.0,0.0,0.0,0.0,0.0,0.0,0.0,0.0,0.0,0.0,-5.2627,-5.2717,-5.2922,-5.2345,-5.185,-5.2607,-5.3411,0.0,0.0,-5.5757,0.0,0.0,-5.9237,-6.0254,-6.0932,-6.0843,0.0,-6.0986,-6.1392,-6.166,-6.1744,-6.3029,-6.3799,-6.3498,-6.3643,-6.3643,-6.3199,-6.3011,-6.2897,-6.2897,-6.2508,-6.2274,0.0,-6.2122,-6.1723,-6.0945,-6.1201,-6.0828,-5.9751,-6.0226,-6.0226,-5.9751,-6.0226,-6.0745,-6.125,-6.0953,-6.0322,-5.9476,-5.9152,-5.8733,-5.8338,-5.8435,-5.8208,-5.7841,-5.7956,-5.7611,-5.7056,-5.727,-5.6623,-5.5729,0.0,0.0,0.0,0.0,0.0,0.0,0.0,0.0,0.0,0.0,0.0,0.0,0.0,0.0,0.0,0.0,0.0,0.0,0.0,0.0,0.0,0.0,0.0,0.0,0.0,0.0,0.0,0.0,0.0,0.0,0.0,0.0,0.0,-3.9437,0.0,0.0,0.0,0.0,0.0,0.0,0.0,0.0,0.0,0.0,0.0,0.0,0.0,0.0,0.0,0.0,0.0,0.0,0.0,0.0,0.0,-5.2018,-5.1873,-5.1824,-5.1593,-5.1102,-5.0814,-5.1358,-5.2272,-5.3288,-5.4319,0.0,0.0,0.0,-5.8637,-5.9536,-6.0124,-6.0331,0.0,-6.06,-6.08,-6.1147,-6.1777,-6.244,-6.2957,-6.3242,-6.3162,-6.2935,-6.2552,-6.2313,-6.2195,-6.2195,-6.187,0.0,0.0,-6.1473,-6.1061,-6.042,-6.0558,-6.0216,-5.9286,-5.9728,-5.9728,-5.9286,-5.9596,-5.9783,-5.9968,-5.9968,-5.9608,-5.9004,-5.8824,-5.8381,-5.7809,-5.7741,-5.7224,-5.6453,-5.6795,-5.6525,-5.6029,-5.6414,-5.5966,-5.51,0.0,0.0,0.0,0.0,0.0,0.0,0.0,0.0,0.0,0.0,0.0,0.0,0.0,0.0,0.0,0.0,0.0,0.0,0.0,0.0,0.0,0.0,0.0,0.0,0.0,0.0,0.0,0.0,0.0,0.0,0.0,0.0,-4.0018,-4.0795,0.0,-4.3441,0.0,0.0,0.0,0.0,0.0,0.0,0.0,0.0,0.0,0.0,0.0,0.0,0.0,0.0,0.0,0.0,0.0,0.0,-5.2417,-5.1433,-5.1051,-5.0716,-4.9735,-4.9844,-5.0063,-4.9576,-5.0996,-5.3009,-5.4911,-5.5373,-5.5564,-5.642,0.0,-5.8491,-5.8776,-5.9915,-6.059,-6.004,-6.0141,-6.0737,-6.1981,-6.1912,-6.2161,-6.3393,-6.2629,-6.1997,-6.1917,-6.1424,-6.1119,-6.1119,0.0,0.0,-6.1119,-6.0708,-6.0463,-6.0463,-6.0033,-5.9772,-5.9772,-6.0163,-6.012,-5.9728,-5.9684,-5.9419,-5.9004,-5.8959,-5.8914,-5.8792,-5.8413,-5.7731,-5.6988,-5.6892,-5.6382,-5.5582,-5.5538,-5.5448,-5.5307,-5.5334,-5.4941,-5.4481,0.0,0.0,0.0,0.0,0.0,0.0,0.0,0.0,0.0,0.0,0.0,0.0,0.0,0.0,0.0,0.0,0.0,0.0,0.0,0.0,0.0,0.0,0.0,0.0,0.0,0.0,0.0,0.0,0.0,0.0,0.0,0.0,0.0,-4.0256,0.0,-4.2946,0.0,0.0,0.0,0.0,0.0,0.0,0.0,0.0,-4.5344,0.0,0.0,0.0,0.0,0.0,0.0,0.0,-5.2085,-5.2522,-5.2717,-5.2371,-5.1825,-5.1292,-5.0981,-5.0133,-4.9419,-4.9658,-5.0798,-5.231,-5.3888,-5.4232,-5.4727,-5.6345,-5.6449,-5.6573,-5.7498,-5.8278,-5.8787,-5.8772,-5.9184,-5.9702,-6.0217,-6.0666,-6.1129,-6.1622,-6.1877,-6.1797,-6.1334,-6.1202,-6.1119,0.0,0.0,0.0,-6.1119,-6.1002,-6.0919,-6.0919,-6.0463,-6.0249,-6.0249,-5.999,-5.9816,0.0,-5.9331,-5.9094,-5.9004,-5.8642,-5.8104,-5.7511,-5.737,-5.6892,-5.6115,-5.5491,-5.5078,-5.4878,-5.4309,-5.4277,-5.4616,-5.4231,-5.4233,-5.4425,0.0,0.0,0.0,0.0,0.0,0.0,0.0,0.0,0.0,0.0,0.0,0.0,0.0,0.0,0.0,0.0,0.0,0.0,0.0,0.0,0.0,0.0,0.0,0.0,0.0,0.0,0.0,0.0,0.0,0.0,0.0,0.0,0.0,-4.0055,0.0,-4.2673,0.0,0.0,0.0,0.0,0.0,0.0,0.0,0.0,-4.5818,-4.6411,-4.6653,0.0,0.0,0.0,0.0,0.0,0.0,0.0,-5.2769,-5.2147,-5.1729,-5.1282,-5.0313,-4.959,-4.9236,-4.9828,-5.067,-5.1717,-5.321,-5.3649,-5.3982,-5.4581,-5.506,-5.5478,-5.5894,-5.6953,-5.7809,-5.7877,-5.8218,-5.8863,-5.9994,-5.9967,-6.027,-6.142,-6.1547,-6.1458,-6.1161,-6.1119,0.0,0.0,0.0,-6.1119,-6.1119,-6.1119,-6.0994,-6.075,-6.0538,-6.012,-5.9487,-5.9355,-5.9088,-5.8528,-5.8194,-5.7855,-5.7511,-5.7684,-5.7306,-5.6506,-5.6506,-5.6066,-5.529,-5.4887,-5.4479,-5.4075,-5.337,-5.3299,-5.3547,-5.2995,-5.2993,-5.3186,0.0,0.0,0.0,0.0,0.0,0.0,0.0,0.0,0.0,0.0,0.0,0.0,0.0,0.0,0.0,0.0,0.0,0.0,0.0,0.0,0.0,0.0,0.0,0.0,0.0,0.0,0.0,0.0,0.0,0.0,0.0,0.0,0.0,-4.0344,0.0,0.0,0.0,0.0,0.0,0.0,0.0,0.0,0.0,0.0,0.0,-4.7603,-4.6942,-4.7865,-4.9385,-4.9463,0.0,0.0,0.0,0.0,-5.2813,-5.1826,-5.1547,-5.118,-4.9574,-4.9146,-4.9286,-5.0025,-5.056,0.0,-5.2672,-5.3247,-5.3247,-5.2524,-5.3548,-5.4534,-5.4259,-5.5584,-5.6745,-5.6947,-5.7203,-5.8106,-6.0106,-5.9538,-5.9631,-6.1629,-6.1417,-6.1119,-6.1119,-6.1119,0.0,0.0,0.0,-6.1077,-6.0961,-6.0961,-6.0708,-6.0087,-6.0044,-5.9487,-5.83,-5.8528,-5.8177,-5.7308,-5.7055,-5.6493,-5.572,-5.6409,-5.6311,-5.572,-5.572,-5.527,-5.4479,-5.4479,-5.4097,-5.3395,-5.273,-5.2516,-5.2548,-5.1794,-5.1594,-5.1759,0.0,0.0,0.0,0.0,0.0,0.0,0.0,0.0,0.0,0.0,0.0,0.0,0.0,0.0,0.0,0.0,0.0,0.0,0.0,0.0,0.0,0.0,0.0,0.0,0.0,0.0,0.0,0.0,0.0,0.0,0.0,0.0,0.0,-4.1408,0.0,0.0,0.0,0.0,0.0,0.0,0.0,0.0,0.0,0.0,0.0,-4.7775,-4.8293,-4.8631,-4.8992,-4.9683,-5.0697,0.0,0.0,0.0,-5.2937,-5.268,-5.2065,-5.1419,-5.1051,-5.0048,-4.9286,-5.0025,-5.0254,-5.0688,0.0,0.0,-5.2445,0.0,-5.2335,-5.2746,-5.3012,-5.3678,-5.4537,-5.5651,-5.6288,-5.7204,-5.8885,-5.902,-5.947,-6.1044,-6.1161,-6.1119,-6.1119,0.0,0.0,0.0,-6.1119,-6.0919,-6.0538,-6.0463,-5.9957,-5.8786,-5.8754,-5.8346,-5.7449,-5.7496,-5.7449,-5.7308,-5.6865,-5.6024,-5.4836,-5.4988,-5.4938,-5.4836,-5.4836,-5.4406,-5.3658,-5.3658,-5.3605,-5.3395,-5.2329,-5.2221,-5.2519,-5.0822,-5.0898,-5.1704,0.0,0.0,0.0,0.0,0.0,0.0,0.0,0.0,0.0,0.0,0.0,0.0,0.0,0.0,0.0,0.0,0.0,0.0,0.0,0.0,0.0,0.0,0.0,0.0,0.0,0.0,0.0,0.0,0.0,0.0,0.0,-4.0294,-4.0517,0.0,0.0,0.0,0.0,0.0,0.0,0.0,0.0,0.0,0.0,0.0,0.0,-4.8416,-4.8696,-4.9085,-4.9528,-4.9873,-5.0509,-5.1192,-5.15,0.0,0.0,0.0,-5.2371,-5.1604,-5.0876,-4.9913,-4.9286,0.0,-5.022,-5.0585,-5.2042,-5.2409,-5.2302,-5.1904,-5.1908,-5.1973,-5.1862,-5.2917,-5.4006,-5.4552,-5.5539,-5.6757,-5.8071,-5.8634,-5.9297,-6.0357,-6.0854,-6.1119,-6.1119,0.0,0.0,0.0,-6.1119,-6.1035,-6.0793,-6.0259,-5.9531,-5.8528,-5.7978,-5.7055,-5.5876,-5.5975,-5.5827,-5.538,-5.5059,-5.4582,-5.3993,-5.3993,-5.3993,-5.3993,-5.3993,-5.3629,-5.3025,-5.3025,-5.2812,-5.2491,-5.1623,-5.1458,-5.1568,-5.0404,-5.0342,-5.0674,0.0,0.0,0.0,0.0,0.0,0.0,0.0,0.0,0.0,0.0,0.0,0.0,0.0,0.0,0.0,0.0,0.0,0.0,0.0,0.0,0.0,0.0,0.0,0.0,0.0,0.0,0.0,0.0,0.0,0.0,-4.0574,-4.0574,-4.0608,0.0,-4.0982,-4.1117,0.0,0.0,0.0,0.0,0.0,0.0,0.0,0.0,0.0,0.0,0.0,-4.9227,-4.9772,-4.9952,-5.0376,-5.0857,-5.1244,-5.1449,0.0,0.0,0.0,-5.1651,0.0,0.0,-4.9589,-5.0126,-5.0255,-5.0653,0.0,0.0,-5.2302,0.0,-5.1977,-5.1798,-5.1359,-5.2557,-5.3732,-5.4043,-5.5127,-5.6395,-5.7634,-5.8436,-5.9164,-5.9926,-6.0655,-6.1119,-6.1119,0.0,0.0,0.0,-6.0877,-6.0793,-6.0919,-5.9707,-5.8709,-5.807,-5.7039,-5.5857,-5.4509,-5.4713,-5.4458,-5.3815,-5.3605,-5.35,-5.35,-5.35,-5.3343,-5.3049,-5.3343,-5.2996,-5.2272,-5.2272,-5.1785,-5.1017,-5.0405,-5.0208,-5.0152,-4.9529,-4.9301,-4.9186,0.0,0.0,0.0,0.0,0.0,0.0,0.0,0.0,0.0,0.0,0.0,0.0,0.0,0.0,0.0,0.0,0.0,0.0,0.0,0.0,0.0,0.0,0.0,0.0,0.0,0.0,0.0,0.0,0.0,0.0,-4.0783,-4.0783,-4.0882,-4.1083,-4.1083,-4.1153,-4.1388,0.0,0.0,0.0,0.0,0.0,0.0,0.0,0.0,0.0,0.0,0.0,-4.907,-4.9772,-5.0376,-5.0803,-5.083,-5.1087,-5.1398,0.0,0.0,0.0,0.0,-5.0187,0.0,-5.0389,-5.0392,-5.0724,0.0,0.0,-5.2373,-5.2373,-5.2373,-5.223,-5.1868,-5.2384,-5.3217,-5.4283,-5.5118,-5.6145,-5.7608,-5.8436,-5.9164,-5.9926,-6.0655,-6.1119,-6.1119,0.0,0.0,0.0,-6.0216,-5.9881,-6.042,-5.8592,-5.726,-5.6721,-5.5709,-5.4815,-5.3971,-5.3971,-5.3815,-5.35,-5.35,-5.35,-5.35,-5.35,-5.289,-5.1866,-5.2996,-5.2648,-5.1264,-5.1264,-5.0407,-4.8996,-4.8474,-4.8268,-4.8152,-4.7534,-4.7383,-4.7324,0.0,0.0,0.0,0.0,0.0,0.0,0.0,0.0,0.0,0.0,0.0,0.0,0.0,0.0,0.0,0.0,0.0,0.0,0.0,0.0,0.0,0.0,0.0,0.0,0.0,0.0,0.0,0.0,0.0,-4.0715,-4.0783,-4.0916,-4.1086,-4.1254,-4.1254,-4.1256,-4.1388,-4.2976,0.0,0.0,0.0,0.0,0.0,0.0,0.0,0.0,0.0,0.0,-4.8944,-4.9192,-4.9732,-5.0376,-5.0667,-5.0585,-5.0328,0.0,0.0,-5.0832,0.0,0.0,0.0,-4.9883,-5.0126,-5.0625,-5.1587,-5.2148,-5.2409,-5.2409,-5.2409,-5.247,-5.2755,-5.3226,-5.3558,-5.3705,-5.4711,-5.5738,-5.658,-5.7343,-5.8188,-5.9157,-5.996,-6.0589,-6.1053,0.0,0.0,0.0,0.0,-5.9323,-5.9189,-5.7418,-5.6219,-5.5846,-5.4836,-5.4126,-5.3658,-5.3658,-5.3605,-5.35,-5.35,-5.3102,-5.238,-5.238,-5.1702,-5.0573,-5.0796,-5.0323,-4.9478,-4.9251,-4.8647,-4.7802,-4.7593,-4.7534,-4.7475,-4.7265,-4.7205,-4.7146,0.0,0.0,0.0,0.0,0.0,0.0,0.0,0.0,0.0,0.0,0.0,0.0,0.0,0.0,0.0,0.0,0.0,0.0,0.0,0.0,0.0,0.0,0.0,0.0,0.0,0.0,0.0,0.0,0.0,0.0,0.0,-4.112,-4.1254,-4.139,-4.139,-4.139,0.0,0.0,0.0,-4.415,0.0,0.0,-4.6191,0.0,0.0,0.0,0.0,0.0,0.0,-4.8635,-4.904,-4.959,-5.0165,0.0,0.0,0.0,0.0,0.0,-4.9722,0.0,0.0,0.0,-5.019,-5.076,-5.1358,-5.1986,-5.2445,-5.2409,-5.2409,-5.2572,-5.3301,-5.3775,-5.4066,-5.3909,-5.4832,-5.5693,-5.5846,-5.6507,-5.725,-5.8026,-5.9111,-5.9985,0.0,0.0,0.0,0.0,0.0,0.0,-5.8254,-5.6383,-5.518,-5.4908,-5.4252,-5.3576,-5.289,-5.2996,-5.2783,-5.2272,-5.2272,-5.1866,-5.1072,-5.1072,-5.0462,-4.9278,-4.8793,-4.839,-4.8009,-4.7717,-4.7036,-4.625,-4.625,-4.625,-4.625,-4.625,-4.625,-4.613,0.0,0.0,0.0,0.0,0.0,0.0,0.0,0.0,0.0,0.0,0.0,0.0,0.0,0.0,0.0,0.0,0.0,0.0,0.0,0.0,0.0,0.0,0.0,0.0,0.0,0.0,0.0,0.0,0.0,0.0,0.0,0.0,-4.1423,-4.1621,-4.1621,-4.1654,-4.1784,0.0,-4.4679,-4.4821,0.0,-4.6717,-4.6828,0.0,0.0,0.0,-4.7372,-4.7671,0.0,-4.8161,0.0,0.0,0.0,0.0,0.0,0.0,0.0,0.0,0.0,0.0,0.0,0.0,0.0,0.0,-5.1427,0.0,-5.2553,-5.2445,-5.2442,-5.2641,-5.3334,-5.4063,-5.4642,-5.4984,-5.5627,-5.5966,-5.5491,-5.6025,-5.6478,-5.6478,-5.8088,-5.9189,0.0,0.0,0.0,0.0,-5.7449,-5.6625,-5.7574,-5.548,-5.4149,-5.3919,-5.3838,-5.3126,-5.1674,-5.192,-5.1292,-4.9901,-4.9901,-4.9845,-4.9845,-4.9845,-4.9164,-4.8035,-4.7365,-4.7044,-4.6985,-4.6688,-4.5657,-4.4285,-4.4285,-4.4285,-4.4285,-4.4285,-4.4285,-4.4285,0.0,0.0,0.0,0.0,0.0,0.0,0.0,0.0,0.0,0.0,0.0,0.0,0.0,0.0,0.0,0.0,0.0,0.0,0.0,0.0,0.0,0.0,0.0,0.0,0.0,0.0,0.0,0.0,0.0,0.0,0.0,0.0,0.0,0.0,-4.2333,-4.2553,-4.3017,-4.3578,0.0,-4.5432,-4.5788,-4.6453,0.0,0.0,0.0,0.0,0.0,-4.7169,-4.7803,0.0,-4.8193,-4.8448,0.0,0.0,0.0,0.0,0.0,0.0,-4.9229,0.0,0.0,0.0,0.0,0.0,0.0,0.0,-5.2799,-5.2764,-5.3092,-5.3551,-5.4283,-5.4899,-5.5402,-5.5739,-5.5955,-5.6046,-5.5927,-5.5807,-5.5895,-5.6349,-5.6443,-5.6894,0.0,0.0,0.0,0.0,-5.6965,-5.6073,-5.5808,-5.4509,-5.371,-5.3605,-5.2755,-5.2136,-5.1674,-5.0906,-5.0294,-4.9901,-4.9901,-4.9448,-4.8616,-4.8616,-4.7945,-4.6755,-4.607,-4.5768,-4.5768,-4.5159,-4.4693,-4.4285,-4.4285,-4.4285,-4.4285,-4.4285,-4.4285,-4.4285,0.0,0.0,0.0,0.0,0.0,0.0,0.0,0.0,0.0,0.0,0.0,0.0,0.0,0.0,0.0,0.0,0.0,0.0,0.0,0.0,0.0,0.0,0.0,0.0,0.0,0.0,0.0,0.0,0.0,0.0,0.0,0.0,0.0,0.0,0.0,0.0,0.0,0.0,0.0,0.0,-4.5919,0.0,0.0,-4.7461,-4.7519,0.0,0.0,0.0,-4.7965,-4.8099,-4.8166,0.0,0.0,0.0,0.0,0.0,0.0,0.0,0.0,0.0,0.0,0.0,0.0,0.0,-5.0961,-5.1758,-5.2551,0.0,-5.3033,-5.3735,-5.5129,-5.5621,-5.589,-5.5889,-5.5901,-5.5861,-5.5814,-5.5572,-5.5539,-5.5928,-5.5718,0.0,0.0,-5.6296,-5.6073,-5.6469,-5.5664,-5.509,-5.4786,-5.3576,-5.2943,-5.2943,-5.1648,-5.0685,-5.0238,-4.9505,-4.8904,-4.8384,-4.8268,-4.7802,-4.7121,-4.7002,-4.655,-4.5817,-4.5331,-4.5086,-4.5025,-4.4532,-4.4285,-4.4285,-4.4285,-4.4285,-4.4285,-4.4285,-4.4285,-4.4285,0.0,0.0,0.0,0.0,0.0,0.0,0.0,0.0,0.0,0.0,0.0,0.0,0.0,0.0,0.0,0.0,0.0,0.0,0.0,0.0,0.0,0.0,-4.5464,-4.5167,0.0,0.0,0.0,0.0,0.0,0.0,0.0,0.0,0.0,0.0,0.0,0.0,0.0,0.0,0.0,-4.6076,-4.6611,-4.754,0.0,0.0,-4.9355,-4.9281,-4.9846,-4.9245,-4.8269,-4.8415,-4.8297,0.0,0.0,0.0,0.0,0.0,-4.9471,0.0,0.0,0.0,0.0,0.0,0.0,0.0,-5.1155,-5.164,-5.2296,0.0,-5.2828,-5.3618,-5.5606,-5.6051,-5.5988,-5.5595,-5.552,-5.5498,-5.5418,-5.5369,-5.5328,-5.5369,-5.5429,0.0,-5.5602,-5.4844,-5.4421,-5.4561,-5.3995,-5.374,-5.395,-5.2665,-5.1943,-5.1866,-5.0462,-4.919,-4.8094,-4.7977,-4.7357,-4.6301,-4.5939,-4.5817,-4.5757,-4.5453,-4.5331,-4.527,-4.4963,-4.4779,-4.4779,-4.4409,-4.4285,-4.4285,-4.4285,-4.4285,-4.4285,-4.4285,-4.4285,-4.4285,0.0,0.0,0.0,0.0,0.0,0.0,0.0,0.0,0.0,0.0,0.0,0.0,0.0,0.0,0.0,0.0,0.0,0.0,0.0,0.0,-4.5969,-4.6076,-4.6046,-4.5979,-4.5842,0.0,0.0,0.0,0.0,0.0,0.0,0.0,0.0,0.0,0.0,0.0,0.0,0.0,0.0,-4.801,-4.8178,0.0,-4.8926,-4.9094,-4.9494,-4.9946,-4.9774,-4.9743,-4.9649,-4.8784,-4.8626,-4.863,0.0,0.0,0.0,-4.7998,0.0,0.0,0.0,0.0,0.0,0.0,0.0,0.0,-5.2561,-5.3074,-5.3584,0.0,-5.3853,-5.4253,-5.4589,-5.5018,-5.5272,-5.5222,-5.5122,-5.5103,-5.5288,-5.5058,-5.4934,-5.5271,-5.42,0.0,-5.4283,-5.3132,-5.2795,-5.3714,-5.311,-5.2405,-5.1847,-5.1346,-5.0818,-5.035,-4.9106,-4.8326,-4.8094,-4.7146,-4.6541,-4.6301,-4.5939,-4.5817,-4.5757,-4.5453,-4.5331,-4.527,-4.4963,-4.4779,-4.4779,-4.4409,-4.4285,-4.4285,-4.4285,-4.4285,-4.4285,-4.4285,-4.4285,-4.4285,0.0,0.0,0.0,0.0,0.0,0.0,0.0,0.0,0.0,0.0,0.0,0.0,0.0,0.0,0.0,0.0,0.0,0.0,0.0,0.0,-4.7946,-4.8143,-4.8089,-4.7919,-4.7631,-4.7162,0.0,0.0,0.0,0.0,0.0,0.0,0.0,0.0,0.0,0.0,0.0,0.0,-4.7416,-4.7851,-4.8329,0.0,-4.9632,-5.0206,-5.0677,-5.0999,-5.0999,-5.0909,-5.0549,-4.9235,-4.8903,0.0,-4.8584,-4.8418,-4.842,0.0,-4.9028,-4.939,0.0,0.0,0.0,-5.0821,0.0,0.0,0.0,-5.1976,-5.2305,-5.2488,-5.2741,-5.3251,-5.4336,-5.4701,-5.4752,-5.4572,-5.4454,-5.4244,-5.3963,-5.4246,-5.4726,-5.5231,-5.3773,0.0,-5.3934,-5.2459,-5.1828,-5.2648,-5.1827,-5.1222,-5.1005,-4.9657,-4.8707,-4.8393,-4.7346,-4.677,-4.677,-4.6449,-4.6301,-4.6301,-4.5939,-4.5696,-4.5514,-4.5208,-4.4963,-4.4779,-4.4594,-4.4532,-4.4532,-4.4347,-4.4285,-4.4285,-4.4285,-4.4285,-4.4285,-4.4285,-4.4285,-4.4285,0.0,0.0,0.0,0.0,0.0,0.0,0.0,0.0,0.0,0.0,0.0,0.0,0.0,0.0,0.0,0.0,0.0,0.0,0.0,0.0,0.0,0.0,-5.0165,-4.9888,-4.9465,-4.8919,0.0,0.0,0.0,0.0,0.0,0.0,0.0,0.0,0.0,0.0,0.0,0.0,0.0,-4.7794,0.0,-4.9121,-4.99,-5.1124,-5.17,-5.1868,-5.2266,-5.2045,-5.131,-4.988,-4.9296,-4.9228,-4.9281,-4.9073,0.0,0.0,0.0,0.0,0.0,0.0,0.0,0.0,0.0,-5.1018,0.0,0.0,0.0,0.0,0.0,0.0,0.0,0.0,0.0,0.0,0.0,0.0,0.0,-5.2879,0.0,-5.4688,-5.3393,0.0,-5.353,-5.2016,-5.1053,-5.1227,-5.0328,-4.9731,-4.9803,-4.7758,-4.6599,-4.6481,-4.5744,-4.5321,-4.5321,-4.5773,-4.5974,-4.5999,-4.5679,-4.5426,-4.5122,-4.4853,-4.4532,-4.4285,-4.4285,-4.4285,-4.4285,-4.4285,-4.4285,-4.4285,-4.4285,-4.4285,-4.4285,-4.4285,-4.4285,-4.4285,-4.5076,-4.5715,0.0,0.0,0.0,0.0,0.0,0.0,0.0,0.0,0.0,0.0,0.0,0.0,0.0,0.0,0.0,0.0,-5.0899,0.0,0.0,0.0,0.0,0.0,-5.0714,-5.0167,-5.0105,0.0,0.0,0.0,0.0,0.0,0.0,0.0,-4.822,0.0,0.0,0.0,-4.8957,0.0,-4.975,-4.9141,0.0,-5.0297,-5.1205,-5.1868,-5.2266,-5.2376,-5.2106,0.0,-5.0297,-4.9803,0.0,-4.8519,-4.8514,-4.8179,0.0,0.0,0.0,0.0,0.0,0.0,-5.1576,0.0,0.0,0.0,-5.199,-5.1941,0.0,0.0,0.0,0.0,0.0,0.0,0.0,0.0,-4.9985,-5.0339,-5.1293,-5.2829,-5.2249,0.0,0.0,-5.1061,-4.9994,-4.9227,-4.8493,-4.7516,-4.6136,-4.5831,-4.5426,-4.4882,-4.4752,-4.4719,-4.4719,-4.4794,-4.4819,-4.4761,-4.467,-4.4618,-4.4582,-4.4438,-4.4347,-4.4285,-4.4285,-4.4285,-4.4285,-4.4285,-4.4285,-4.4285,-4.4285,-4.4285,-4.4285,-4.4285,-4.4285,-4.4223,-4.5267,-4.5508,0.0,0.0,0.0,0.0,0.0,0.0,0.0,0.0,0.0,0.0,0.0,0.0,0.0,0.0,0.0,-5.1305,0.0,0.0,0.0,0.0,0.0,0.0,0.0,-5.0757,-5.0647,0.0,-5.036,0.0,0.0,0.0,0.0,0.0,-4.956,0.0,-4.9512,0.0,-4.9992,0.0,0.0,0.0,0.0,-5.1113,-5.1572,-5.1471,-5.2158,-5.1729,-5.0887,0.0,-5.0532,0.0,0.0,0.0,0.0,-4.8844,0.0,0.0,0.0,0.0,0.0,0.0,0.0,0.0,-5.0729,0.0,-4.9781,0.0,0.0,0.0,0.0,0.0,0.0,0.0,-5.0536,0.0,0.0,0.0,-5.0387,0.0,0.0,0.0,0.0,0.0,0.0,0.0,-4.7057,-4.5959,-4.5309,-4.4652,-4.4061,-4.3664,-4.3991,-4.4141,-4.4141,-4.4468,-4.4618,-4.4618,-4.4577,-4.4407,-4.4018,-4.4317,-4.4171,-4.3829,-4.4141,-4.4285,-4.4285,-4.4285,-4.4285,-4.4285,-4.4285,-4.4285,-4.4285,-4.4285,-4.4037,-4.3701,-4.583,0.0,0.0,0.0,0.0,0.0,0.0,0.0,0.0,0.0,0.0,0.0,-5.1847,-5.1789,0.0,0.0,-5.167,-5.1754,0.0,0.0,-5.1475,0.0,0.0,0.0,0.0,0.0,-5.1034,0.0,0.0,0.0,0.0,0.0,0.0,0.0,0.0,-5.1162,-5.0924,0.0,-5.0961,-5.0523,-5.021,-5.032,-5.0827,-5.1855,-5.1908,-5.1508,-5.1908,-5.1215,-5.0229,-5.0461,-5.0182,0.0,-4.9188,0.0,0.0,0.0,0.0,0.0,-4.9701,0.0,0.0,0.0,0.0,0.0,0.0,0.0,0.0,0.0,0.0,0.0,0.0,0.0,0.0,0.0,0.0,-4.8435,0.0,0.0,0.0,0.0,0.0,0.0,0.0,0.0,0.0,-4.7453,-4.5797,-4.4755,-4.4617,-4.3878,-4.3295,-4.3042,-4.3363,-4.3589,-4.3589,-4.3966,-4.4166,-4.4166,-4.4169,-4.3896,-4.3512,-4.3874,-4.3832,-4.3529,-4.3877,-4.4141,-4.4285,-4.4285,-4.4285,-4.4285,-4.4285,-4.4285,-4.4285,-4.4285,-4.3912,-4.3263,-4.7122,-4.6172,0.0,0.0,0.0,0.0,0.0,0.0,0.0,0.0,0.0,0.0,0.0,0.0,0.0,0.0,0.0,-5.1901,-5.2531,0.0,-5.1824,0.0,0.0,-5.1393,0.0,0.0,0.0,0.0,0.0,0.0,0.0,0.0,0.0,0.0,-5.3237,-5.2495,-5.1056,-5.1697,-5.1697,-5.1282,-5.1247,-5.1678,-5.2305,0.0,-5.205,-5.2266,-5.1434,0.0,0.0,-4.9678,-4.9237,0.0,0.0,0.0,0.0,0.0,0.0,0.0,0.0,0.0,0.0,-4.8821,0.0,0.0,0.0,0.0,-4.7904,0.0,0.0,0.0,0.0,0.0,0.0,0.0,0.0,0.0,0.0,0.0,0.0,0.0,0.0,0.0,0.0,-4.6886,-4.667,-4.5653,-4.4681,-4.3939,-4.3496,-4.3436,-4.3295,-4.3042,-4.2986,-4.3011,-4.3011,-4.3011,-4.3037,-4.3037,-4.2962,-4.2946,-4.2888,-4.2899,-4.3108,-4.3505,-4.3529,-4.3842,-4.4285,-4.4285,-4.4285,-4.4285,-4.4285,-4.4285,-4.4285,-4.4285,-4.3912,-4.32,0.0,0.0,0.0,0.0,0.0,0.0,0.0,-5.0938,0.0,0.0,-5.2997,0.0,0.0,-5.331,-5.3507,0.0,0.0,-5.3908,-5.3449,-5.3722,0.0,0.0,0.0,-5.2508,0.0,0.0,0.0,0.0,0.0,0.0,0.0,0.0,0.0,0.0,0.0,-5.2801,0.0,0.0,0.0,0.0,0.0,-5.221,-5.2373,0.0,0.0,-5.1508,-5.121,-5.0416,0.0,-4.8953,-4.8615,-4.8313,-4.788,-4.8229,-4.8728,-4.8343,-4.848,0.0,0.0,0.0,-4.8175,-4.8438,0.0,0.0,0.0,0.0,0.0,0.0,0.0,0.0,0.0,0.0,0.0,0.0,0.0,0.0,0.0,0.0,0.0,0.0,0.0,0.0,0.0,0.0,0.0,-4.5103,-4.4432,-4.3885,-4.3738,-4.3708,-4.3487,-4.3042,-4.2986,-4.2986,-4.2986,-4.2986,-4.2986,-4.2986,-4.2768,-4.2527,-4.2405,-4.2491,-4.2538,-4.2519,-4.3216,-4.3625,-4.3842,-4.4501,-4.4597,-4.4309,-4.4669,-4.4597,-4.4223,-4.3764,-4.32,-4.2529,-4.9165,0.0,0.0,0.0,0.0,0.0,0.0,0.0,0.0,0.0,-5.3219,0.0,-5.4286,0.0,-5.4928,0.0,-5.544,-5.5176,-5.4469,-5.4792,0.0,-5.4013,-5.3796,0.0,0.0,0.0,0.0,0.0,0.0,-5.4154,0.0,0.0,0.0,0.0,0.0,-5.3694,-5.316,-5.2909,-5.2589,0.0,0.0,-5.2409,0.0,0.0,-5.1582,-5.1065,0.0,-4.9757,-4.8573,-4.824,-4.7976,-4.7666,-4.7396,-4.7666,-4.8091,-4.7837,-4.7922,-4.8175,-4.8313,-4.8007,0.0,-4.7976,-4.7322,0.0,-4.7206,0.0,0.0,0.0,0.0,0.0,0.0,0.0,0.0,0.0,0.0,0.0,0.0,-4.3419,0.0,0.0,0.0,0.0,0.0,-4.4469,-4.4129,-4.4495,-4.4017,-4.3752,0.0,0.0,-4.3653,-4.3129,-4.3017,-4.2986,-4.2986,-4.2986,-4.2986,-4.2961,-4.2594,-4.2256,-4.211,-4.2029,-4.2006,-4.2073,-4.288,-4.3337,-4.3601,-4.4683,-4.4885,-4.4621,-4.5213,-4.5149,-4.4726,-4.3718,-4.2852,-4.2124,-5.033,-5.0672,0.0,0.0,-5.0009,0.0,0.0,0.0,-5.1561,0.0,-5.3737,-5.4279,-5.4261,-5.5381,-5.5944,-5.5573,-5.5654,-5.5684,-5.5647,-5.5573,0.0,0.0,-5.5085,-5.5002,-5.4528,0.0,0.0,0.0,0.0,0.0,0.0,0.0,0.0,0.0,-5.5808,0.0,-5.4328,-5.3649,-5.3007,-5.2475,-5.2475,-5.2473,-5.2365,-5.1531,-5.1156,-5.0972,-5.0033,-4.9278,-4.849,-4.7581,-4.7309,-4.7309,-4.7309,-4.7309,-4.7309,-4.7309,-4.7309,-4.7396,-4.7837,-4.7452,-4.7019,-4.7465,0.0,0.0,0.0,0.0,-4.6429,0.0,0.0,0.0,0.0,0.0,0.0,0.0,0.0,0.0,0.0,0.0,0.0,0.0,0.0,0.0,0.0,-4.3466,-4.3211,-4.3756,-4.3546,-4.3546,0.0,0.0,-4.3738,-4.3381,-4.3129,-4.2986,-4.2986,-4.2986,-4.2986,-4.2986,-4.2369,-4.211,-4.211,-4.1459,-4.1519,-4.1966,-4.2554,-4.3024,-4.3601,-4.4683,-4.5101,-4.5173,-4.5766,-4.587,-4.5662,-4.3962,-4.2747,-4.1991,-5.1095,-5.1128,-5.1057,0.0,-5.0664,-5.0939,0.0,0.0,0.0,0.0,-5.3599,-5.4296,-5.5264,-5.6147,-5.6824,-5.7313,-5.735,0.0,0.0,0.0,0.0,-5.6264,-5.6134,-5.6051,-5.6028,-5.528,0.0,-5.5898,0.0,0.0,-5.6899,0.0,0.0,0.0,0.0,-5.4765,-5.3977,-5.3145,-5.2924,-5.3135,-5.3135,-5.3099,-5.2953,0.0,-5.1829,-5.0486,-4.9326,-4.8749,-4.849,-4.7581,-4.7309,-4.7309,-4.7309,-4.7309,-4.7309,-4.7309,-4.7309,-4.7352,-4.7439,-4.7322,-4.7149,-4.7106,-4.6975,-4.6874,0.0,0.0,0.0,0.0,0.0,0.0,0.0,0.0,0.0,0.0,0.0,0.0,0.0,0.0,0.0,-4.2839,0.0,0.0,-4.3351,-4.3342,-4.3318,-4.3466,-4.3651,-4.3697,-4.3547,0.0,0.0,-4.3129,-4.3042,-4.2986,-4.2986,-4.2986,-4.2986,-4.2986,-4.2594,-4.2312,-4.211,-4.1688,-4.1474,-4.1413,-4.1942,-4.2687,-4.3601,-4.4683,-4.5293,-4.5766,-4.6295,-4.5947,-4.5025,-4.4031,-4.2854,-4.1837,-5.1394,-5.1338,0.0,-5.1233,0.0,0.0,-5.2355,-5.1836,0.0,-5.4224,-5.4383,0.0,-5.6335,-5.6978,-5.7519,-5.796,-5.7997,0.0,-5.7336,0.0,0.0,-5.7336,-5.7184,-5.7138,-5.7208,-5.6559,0.0,-5.6831,0.0,0.0,-5.7188,0.0,0.0,0.0,0.0,-5.4454,-5.3881,-5.3309,-5.318,-5.3397,-5.3437,-5.3346,0.0,-5.2331,-5.1382,-5.0352,-4.9273,-4.8688,-4.8402,-4.7902,-4.7549,-4.7309,-4.7309,-4.7489,-4.7728,-4.7728,-4.7938,-4.8147,-4.8147,-4.7967,-4.7684,-4.7553,-4.7271,-4.7197,-4.7629,-4.7732,-4.7821,0.0,0.0,0.0,0.0,0.0,0.0,0.0,0.0,0.0,0.0,0.0,0.0,0.0,-4.2281,0.0,-4.2402,-4.2904,-4.3152,-4.3041,-4.3441,-4.3361,-4.2667,0.0,0.0,-4.2831,-4.272,-4.2791,-4.2986,-4.2986,-4.2986,-4.2986,-4.2625,-4.2369,-4.211,-4.172,-4.1435,-4.122,-4.1749,-4.2423,-4.3289,-4.4587,-4.5453,-4.6006,-4.6752,-4.6478,-4.547,-4.4741,-4.3601,-4.2478,-5.1406,-5.1484,0.0,0.0,0.0,0.0,0.0,-5.2392,0.0,-5.5693,0.0,-5.5769,-5.7292,-5.7845,-5.8074,-5.8042,0.0,-5.802,-5.7997,-5.7997,-5.7997,-5.7997,-5.7997,-5.7997,-5.7997,-5.7881,-5.7726,0.0,0.0,-5.7338,-5.7213,0.0,0.0,0.0,0.0,0.0,0.0,-5.371,-5.3612,-5.3453,-5.3618,-5.3512,-5.3022,-5.1421,-5.0764,-5.0546,-4.9809,-4.9045,-4.8416,-4.8416,-4.8027,-4.7549,-4.7549,-4.7967,-4.8416,-4.8416,-4.885,-4.9299,-4.9299,-4.888,-4.8416,-4.8416,-4.7967,-4.7684,-4.809,-4.8134,-4.8253,-4.8953,-4.8326,-4.797,0.0,0.0,0.0,0.0,0.0,0.0,0.0,0.0,0.0,0.0,0.0,0.0,-4.1615,-4.2209,-4.2578,-4.2435,-4.291,-4.2786,-4.1802,0.0,0.0,-4.254,-4.2322,-4.2464,-4.2961,0.0,-4.2986,-4.2986,-4.2681,-4.2425,-4.211,-4.1802,-4.1516,-4.122,-4.1677,-4.2254,-4.3036,-4.4347,-4.5357,-4.6126,-4.704,-4.7027,-4.6405,-4.5595,-4.4641,-4.3645,-5.1401,-5.1948,0.0,0.0,0.0,-5.2738,-5.3424,-5.3591,-5.4049,-5.5222,-5.614,-5.6972,-5.7679,-5.8365,-5.8603,-5.8201,-5.8156,0.0,0.0,0.0,0.0,-5.7997,-5.7997,-5.7997,-5.7997,-5.7881,-5.781,0.0,-5.751,-5.7388,-5.7338,0.0,0.0,0.0,0.0,0.0,-5.3109,-5.3532,0.0,-5.3803,-5.4409,-5.4115,-5.3201,-5.2753,-5.2088,-5.1348,-5.1009,-5.0122,-4.9149,-4.9149,-4.906,-4.897,-4.897,-4.906,-4.9149,-4.9149,-4.9209,-4.9299,-4.9299,-4.9209,-4.9149,-4.9149,-4.906,-4.9105,-4.9642,-4.9418,-4.9239,-4.9851,-4.9015,-4.8015,-4.7495,0.0,0.0,0.0,0.0,0.0,0.0,0.0,0.0,0.0,0.0,-4.3069,0.0,-4.1305,-4.1357,-4.2024,-4.2034,-4.2002,0.0,0.0,0.0,0.0,-4.2213,0.0,0.0,0.0,-4.2986,-4.2986,-4.293,-4.265,-4.211,-4.2054,-4.1688,-4.1196,-4.1268,-4.211,-4.3409,-4.3673,-4.49,-4.6583,-4.6776,-4.7047,-4.7165,-4.5799,-4.521,-4.4801,-5.2676,0.0,0.0,0.0,0.0,0.0,0.0,-5.4671,-5.5378,-5.66,-5.7097,-5.7646,-5.859,-5.8802,-5.8811,-5.8582,-5.8422,-5.8334,-5.8332,-5.8186,-5.8065,-5.7997,-5.7997,-5.7997,-5.7997,-5.795,-5.7881,-5.781,-5.7655,-5.7388,0.0,0.0,0.0,-5.4857,0.0,-5.3686,0.0,0.0,0.0,-5.5015,-5.494,-5.4539,-5.3848,-5.286,-5.2124,-5.1572,-5.1433,-5.0903,-5.0212,-4.9883,-4.9553,-4.9299,-4.9299,-4.9494,-4.9763,-4.9763,-5.0002,-5.0272,-5.0272,-5.0032,-4.9763,-4.9763,-4.9523,-4.9389,-4.9673,-4.9494,-4.9299,-4.9224,-4.8716,-4.7924,-4.6721,-4.5483,0.0,0.0,0.0,0.0,0.0,0.0,-4.3537,0.0,0.0,0.0,0.0,0.0,0.0,0.0,0.0,-4.1238,0.0,0.0,0.0,0.0,0.0,0.0,0.0,0.0,0.0,-4.2615,-4.2891,-4.2613,-4.1892,-4.2019,-4.1859,-4.1402,-4.123,-4.1918,-4.3216,-4.4299,-4.5525,-4.6728,-4.7016,-4.7281,-4.7431,-4.6851,-4.6583,-4.618,-5.3865,-5.3517,0.0,0.0,-5.385,0.0,-5.4987,-5.5482,-5.6385,-5.8061,-5.7928,-5.8172,-5.9533,-5.9377,-5.9159,-5.9046,-5.8808,-5.8665,-5.8733,-5.8498,-5.829,-5.8088,-5.8042,-5.8042,-5.8042,-5.802,-5.795,0.0,-5.7679,-5.718,0.0,0.0,0.0,0.0,0.0,0.0,0.0,0.0,-5.5722,-5.5771,-5.4988,-5.4495,-5.4019,-5.2622,-5.1926,-5.1695,-5.1618,-5.1463,-5.1139,-5.0584,-5.0092,-4.9673,-4.9673,-5.0032,-5.0405,-5.0405,-5.0764,-5.1229,-5.1229,-5.0794,-5.0405,-5.0405,-4.9972,-4.9464,-4.9464,-4.9299,-4.897,-4.8386,-4.8177,-4.7684,-4.6275,-4.5569,0.0,0.0,0.0,0.0,0.0,0.0,0.0,0.0,0.0,0.0,-4.2911,0.0,0.0,0.0,0.0,-4.0645,-4.0507,-3.9967,-4.0312,0.0,0.0,-4.176,-4.2897,0.0,-4.2766,-4.2213,-4.2665,-4.2343,-4.1544,-4.178,-4.1744,-4.1436,-4.1417,-4.2014,-4.3241,-4.502,-4.6255,-4.7077,-4.7226,-4.7665,-4.8133,-4.7953,-4.7887,-4.7689,0.0,0.0,0.0,0.0,0.0,0.0,-5.5065,-5.5653,-5.6621,-5.8276,-5.8329,-5.8743,-6.0074,-6.0208,-6.0007,-5.9568,-5.9516,-5.9323,-5.8929,-5.885,-5.8686,-5.8371,-5.826,-5.8156,-5.8156,-5.8065,-5.7997,0.0,-5.7327,-5.6602,-5.5877,0.0,0.0,0.0,0.0,0.0,0.0,-5.5305,-5.5188,-5.4626,-5.424,-5.3577,-5.2833,-5.2442,-5.2155,-5.1956,-5.1695,-5.1463,-5.1199,-5.1139,-5.1079,-5.102,-5.102,-5.1079,-5.1139,-5.1139,-5.1169,-5.1229,-5.1229,-5.1169,-5.1139,-5.1139,-5.0584,-5.0106,-5.0106,-4.9224,-4.8356,-4.8297,-4.7818,-4.7116,-4.6185,-4.6569,-4.6569,0.0,0.0,0.0,0.0,0.0,-4.4659,-4.484,0.0,0.0,0.0,-4.1462,0.0,0.0,-4.0763,-4.0463,-4.0751,-4.0239,-4.0385,-4.1336,0.0,-4.1448,-4.2616,-4.2902,-4.2766,-4.2213,-4.2263,-4.1823,-4.0997,-4.1238,-4.1181,-4.0925,-4.1634,-4.2784,-4.4189,-4.4861,-4.6299,-4.7972,-4.7077,-4.8238,-5.0142,-4.8477,-4.8518,-4.9271,0.0,0.0,0.0,0.0,0.0,0.0,0.0,-5.6495,-5.7314,-5.8577,-5.8549,-5.8913,-6.0158,-6.0293,-6.0237,-6.0038,-5.9836,-5.9622,-5.9341,-5.914,-5.8828,-5.8415,-5.8282,-5.8179,-5.8179,-5.8065,-5.7997,0.0,0.0,-5.6655,-5.5911,-5.525,0.0,0.0,0.0,-5.5654,-5.5602,-5.592,-5.5714,-5.5165,-5.4473,-5.3954,-5.3434,-5.2757,-5.2382,-5.22,-5.2079,-5.1757,-5.1433,-5.1433,-5.1339,-5.1229,-5.1229,-5.1229,-5.1229,-5.1229,-5.1229,-5.1229,-5.1229,-5.1229,-5.1109,-5.0674,-5.0375,-4.9986,-4.9254,-4.8656,-4.8177,-4.7788,-4.7489,-4.7176,-4.6864,-4.6629,-4.6437,0.0,0.0,0.0,0.0,0.0,0.0,-4.5675,0.0,-4.3717,0.0,0.0,0.0,0.0,0.0,-3.9668,-4.0245,-4.0226,-4.0249,-4.0286,0.0,-4.1398,-4.1339,-4.1785,-4.1706,-4.1178,-4.1505,-4.1326,-4.0639,-4.078,-4.0874,-4.1079,-4.2049,-4.2976,-4.3938,-4.5719,-4.6602,-4.6914,-4.7742,-4.8719,-4.9629,-4.954,-5.0028,-5.079,-5.6155,0.0,-5.5645,0.0,-5.5859,-5.5677,-5.6493,-5.712,-5.7863,-5.8792,-5.896,-5.9386,-6.0404,-6.0469,-6.0468,-6.0468,-6.0237,-6.0007,-5.9814,-5.9502,-5.9121,-5.864,-5.8422,0.0,-5.8282,-5.8111,-5.8042,-5.7997,-5.7252,-5.6482,-5.5719,0.0,0.0,0.0,-5.6438,-5.6781,-5.6624,-5.6682,-5.6383,-5.5756,-5.4768,-5.4125,-5.3652,-5.2935,-5.2518,-5.2306,-5.2306,-5.1987,-5.1572,-5.1572,-5.1386,-5.1229,-5.1229,-5.1229,-5.1229,-5.1229,-5.1229,-5.1229,-5.1229,-5.1079,-5.0764,-5.0315,-4.9897,-4.9434,-4.8506,-4.8147,-4.7878,-4.7399,-4.7309,-4.7309,-4.7309,-4.6791,-4.645,-4.6582,0.0,0.0,0.0,-4.4672,0.0,0.0,-4.4044,-4.3529,-4.4584,-4.2854,0.0,0.0,0.0,-3.9968,-4.0378,-4.0307,0.0,0.0,0.0,0.0,0.0,-4.088,-4.0849,-4.0526,-4.0849,-4.0802,-4.0247,-4.0438,-4.0916,-4.176,-4.2777,-4.3518,-4.4144,-4.6799,-4.7545,-4.7184,-4.8481,-4.954,-5.0372,-5.0525,-5.1283,-5.2218,-5.614,-5.6271,-5.6324,-5.6388,-5.6401,-5.6445,-5.6587,-5.7276,-5.807,-5.881,-5.965,-6.0382,-6.0914,-6.0877,-6.0781,-6.0781,-6.0781,-6.0673,-6.0307,-6.0,-5.9605,0.0,0.0,-5.8465,-5.8393,-5.8282,-5.8111,-5.7997,0.0,0.0,-5.5125,0.0,-5.5029,-5.6539,-5.7329,-5.7774,-5.7842,-5.762,-5.6972,-5.6087,-5.4796,-5.3836,-5.3086,-5.2788,-5.2518,-5.2306,-5.2306,-5.1987,-5.1572,-5.1572,-5.1386,-5.1229,-5.1229,-5.1229,-5.1229,-5.1229,-5.1229,-5.1229,-5.1229,-5.0704,-5.0196,-5.0196,-4.9254,-4.8297,-4.8297,-4.7788,-4.7309,-4.7309,-4.7309,-4.7309,-4.7309,-4.7309,-4.6774,-4.525,0.0,0.0,0.0,0.0,0.0,-4.3412,-4.1992,-4.1981,-4.4352,-4.239,0.0,0.0,0.0,0.0,0.0,0.0,0.0,-4.1644,-4.0327,0.0,-4.0517,-4.051,-4.0526,-4.0526,-4.0526,-4.0249,-3.9747,-4.0187,-4.1249,-4.2855,-4.3801,-4.4533,-4.5266,-4.7842,-4.9266,-4.968,-4.9185,-5.0879,-5.3288,-5.1346,-5.1846,-5.3592,-5.6096,-5.6212,-5.6246,-5.6336,-5.6372,-5.6598,-5.7265,-5.8115,-5.899,-5.9823,-6.0594,-6.1149,-6.131,-6.11,-6.092,0.0,-6.0781,-6.0673,0.0,-6.0,-5.9605,-5.9234,-5.8723,-5.8437,-5.8393,-5.8156,-5.8042,-5.7997,0.0,0.0,0.0,-5.6314,-5.6981,-5.7498,-5.8255,-5.8324,-5.7763,-5.7159,-5.6309,-5.5312,-5.4338,-5.3627,-5.3086,-5.2997,-5.2788,-5.2563,-5.2563,-5.2352,-5.2079,-5.1926,-5.1695,-5.1433,-5.1276,-5.1229,-5.1229,-5.1229,-5.1229,-5.1109,-5.0614,-5.0345,-4.9986,-4.9134,-4.8596,-4.8177,-4.7728,-4.7459,-4.7309,-4.7309,-4.7309,-4.7309,-4.7309,-4.7309,-4.7116,-4.6655,-4.6429,0.0,0.0,0.0,0.0,-4.5627,-4.4317,-4.3791,0.0,-4.3584,0.0,0.0,0.0,0.0,0.0,0.0,0.0,0.0,-3.9682,0.0,-3.9041,-3.9323,-3.9597,-3.9948,-3.9948,-3.984,-3.9643,-4.0567,-4.1395,-4.2372,-4.4023,-4.468,-4.4846,-4.8426,-4.9219,-4.8359,-5.0367,-5.1695,-5.2527,-5.1882,-5.2465,-5.3537,-5.604,-5.61,-5.62,-5.6285,-5.6634,-5.7086,-5.7653,-5.8788,-5.9792,-6.0323,-6.1072,-6.1576,-6.1495,-6.1232,0.0,-6.0899,-6.0839,-6.0722,-6.0507,-6.0076,-5.9673,-5.945,-5.8767,-5.8437,-5.8393,-5.8215,0.0,-5.7997,-5.7159,-5.6617,-5.6495,-5.746,-5.8047,-5.8357,-5.8806,-5.8702,-5.8174,-5.7409,-5.6465,-5.5515,-5.4507,-5.3726,-5.3188,-5.3042,-5.2863,-5.2698,-5.2698,-5.2518,-5.2261,-5.2063,-5.1834,-5.1526,-5.1246,-5.1229,-5.1229,-5.1229,-5.1229,-5.1079,-5.0375,-5.0016,-4.9613,-4.8566,-4.8087,-4.7818,-4.7399,-4.7309,-4.7309,-4.7309,-4.7309,-4.7396,-4.7752,-4.7764,-4.7801,-4.7862,-4.7507,-4.7252,-4.7269,0.0,0.0,0.0,0.0,0.0,0.0,-4.4317,-4.3497,0.0,0.0,0.0,0.0,0.0,0.0,-3.9554,-3.9217,0.0,-3.8532,-3.8565,-3.8944,-3.9697,-3.9697,-3.976,-3.9918,-4.0802,-4.1793,-4.2949,-4.4752,-4.545,-4.5685,-4.9401,-4.9992,-4.8727,-5.1188,-5.2315,-5.265,-5.2253,-5.2711,-5.351,-5.6003,-5.6117,-5.6231,0.0,-5.7152,0.0,-5.796,-5.9335,-6.0428,-6.0492,-6.119,-6.1637,-6.1513,-6.1322,-6.1143,-6.1039,0.0,0.0,0.0,-6.0208,-5.9842,-5.9809,-5.9006,-5.8486,-5.8393,-5.8282,-5.8125,-5.7954,-5.7693,-5.7681,-5.7909,-5.7943,-5.8357,-5.9012,-5.9012,-5.8978,-5.8875,-5.8067,-5.726,-5.642,-5.5076,-5.4094,-5.3334,-5.2922,-5.2698,-5.2698,-5.2698,-5.2518,-5.2261,-5.2063,-5.1834,-5.1526,-5.1246,-5.1229,-5.1229,-5.1229,-5.1199,-5.102,-5.0315,-4.9703,-4.909,-4.8386,-4.7758,-4.7309,-4.7309,-4.7309,-4.7309,-4.7396,-4.7396,-4.7666,-4.8532,-4.8666,-4.8726,-4.8796,-4.8818,-4.845,-4.7434,0.0,0.0,0.0,0.0,0.0,0.0,-4.4756,-4.4568,0.0,0.0,0.0,0.0,0.0,-3.9559,-4.0716,-3.8925,-3.821,-3.8777,-3.8261,-3.8567,-3.9697,-3.9697,-4.0012,-4.0518,-4.1059,-4.2362,-4.4353,-4.5872,-4.6751,-4.746,-5.0554,-5.1272,-5.0518,-5.1742,-5.2773,-5.347,-5.2588,-5.2773,-5.351,0.0,0.0,-5.7109,-5.7198,-5.8008,-5.8866,-5.9534,-6.0065,-6.0625,-6.1324,-6.1582,-6.1679,-6.1663,-6.1513,-6.1367,-6.1189,-6.0943,-6.0781,-6.0781,-6.039,-6.0076,-5.9826,-5.9178,-5.8665,-5.8415,-5.8156,-5.7899,-5.7523,-5.8609,-5.8734,-5.7909,-5.8495,-5.884,-5.9012,-5.9012,-5.8667,-5.8031,-5.7222,-5.6387,-5.5515,-5.4591,-5.3899,-5.3377,-5.3246,-5.3011,-5.2698,-5.2698,-5.2518,-5.2261,-5.2063,-5.1834,-5.1526,-5.1246,-5.1229,-5.1229,-5.1229,-5.0823,-5.0285,-4.9673,-4.9015,-4.8356,-4.7698,-4.7429,-4.7309,-4.7309,-4.7309,-4.7495,-4.8187,-4.8282,-4.8532,-4.9327,-4.9527,-4.9416,-4.9139,-4.9108,-4.8916,-4.8347,-4.769,0.0,0.0,-4.6916,-4.6551,-4.6432,-4.5544,-4.4512,0.0,0.0,0.0,0.0,-3.8944,-3.8741,-3.95,-3.8096,-3.78,-3.8777,-3.8261,-3.8567,-3.9697,-3.9697,-4.0302,-4.1411,-4.1936,-4.3316,-4.5285,-4.671,-4.7308,-4.746,-5.0554,-5.1272,-5.0578,-5.25,-5.341,-5.3592,-5.3349,-5.341,-5.3456,-5.6396,-5.7211,-5.7924,-5.8065,-5.8888,-5.9711,-6.0173,-6.0659,-6.1123,-6.164,-6.1713,-6.1701,-6.1681,-6.1584,-6.1412,-6.12,-6.102,-6.0867,-6.0793,-6.0494,-6.0165,-5.9826,-5.9289,-5.8828,-5.8443,-5.8201,-5.8032,-5.7904,-5.8752,-5.8879,-5.8426,-5.8806,-5.9012,-5.9012,-5.9012,-5.8562,-5.7741,-5.6958,-5.6074,-5.5231,-5.4168,-5.364,-5.3377,-5.3157,-5.2922,-5.2698,-5.2698,-5.2518,-5.2261,-5.2063,-5.1834,-5.1526,-5.1246,-5.1229,-5.1229,-5.1229,-5.0704,-5.0046,-4.9434,-4.882,-4.8117,-4.7459,-4.7309,-4.7309,-4.7309,-4.7309,-4.7538,-4.8407,-4.8615,-4.8953,-5.019,-5.0267,-5.019,-5.0377,-5.0221,-4.9947,-4.9541,-4.9358,0.0,-4.8968,-4.8553,-4.809,-4.7629,-4.59,-4.4411,-4.3561,-4.1523,0.0,-3.9681,-3.8826,-3.8523,-3.8918,-3.7717,-3.7672,-3.8777,-3.8792,-3.9094,-3.9697,-3.9697,-4.0406,-4.1707,-4.1856,-4.3457,-4.6195,-4.6851,-4.7655,-4.8632,-5.0905,-5.1534,-5.1201,-5.295,-5.3592,-5.3592,-5.3592,-5.3429,-5.3076,-5.7066,-5.795,-5.872,-5.8923,-5.9805,-6.0482,-6.0492,-6.1127,-6.1632,-6.1678,-6.168,-6.1716,-6.1686,-6.1591,-6.1427,-6.1207,-6.1095,-6.0945,-6.0804,-6.0533,-6.0208,-5.9826,-5.9379,-5.8967,-5.8508,-5.8526,-5.8518,-5.851,-5.8723,-5.8915,-5.9012,-5.9012,-5.8978,-5.8978,-5.8978,-5.8527,-5.7704,-5.692,-5.6152,-5.5393,-5.3997,-5.3509,-5.3521,-5.2966,-5.2729,-5.2698,-5.2698,-5.2518,-5.2215,-5.2063,-5.1787,-5.1479,-5.1276,-5.1229,-5.1229,-5.1229,-5.0704,-5.0046,-4.9434,-4.876,-4.7997,-4.7429,-4.7309,-4.7309,-4.7309,-4.7396,-4.7752,-4.8615,-4.8903,-4.9439,-5.0989,-5.0951,-5.0914,-5.154,-5.1285,-5.0902,-5.0607,0.0,-5.1184,-5.0319,-5.0018,-4.956,-4.8804,-4.6171,-4.4479,-4.4579,-4.1866,-4.0182,-4.013,-3.9131,-3.8633,-3.874,-3.7692,-3.7625,-3.8679,-3.9348,-3.9697,-3.9697,-3.9697,-4.0458,-4.1919,-4.1454,-4.3381,-4.7063,-4.6659,-4.7806,-5.0118,-5.1312,-5.1769,-5.1936,-5.313,-5.3592,-5.3592,-5.3592,-5.3293,-5.275,-5.7592,-5.8615,-5.9552,-5.9611,-6.0572,-6.1323,-6.1378,-6.151,-6.1596,-6.1592,-6.1679,-6.1712,-6.1683,-6.1671,-6.1537,-6.1214,-6.1165,-6.1062,-6.0816,-6.0746,-6.0468,-5.9842,-5.9639,-5.9197,-5.8437,-5.9495,-5.9547,-5.851,-5.9851,-5.9999,-5.9012,-5.9012,-5.8909,-5.884,-5.8944,-5.8457,-5.752,-5.6882,-5.6536,-5.6264,-5.4454,-5.4028,-5.4317,-5.3377,-5.2908,-5.2698,-5.2698,-5.2427,-5.2017,-5.2002,-5.1649,-5.1246,-5.1229,-5.1229,-5.1229,-5.1229,-5.0704,-5.0046,-4.9434,-4.8386,-4.7429,-4.7339,-4.7309,-4.7309,-4.7309,-4.7849,-4.8656,-4.9447,-5.019,-5.1027,-5.2017,-5.1871,-5.1466,-5.1027,-5.0723,-5.0632,-5.0672,0.0,-5.1245,-5.1638,-5.0466,-4.959,-4.9456,-4.6915,-4.5111,-4.465,-4.2522,-4.1237,-4.1099,-3.9486,-3.8674,-3.8863,-3.7736,-3.741,-3.8088,-3.917,-3.9697,-3.9697,-3.9697,-4.0822,-4.284,-4.1996,-4.3927,-4.7973,-4.7198,-4.8003,-5.0118,-5.1312,-5.1769,-5.1936,-5.313,-5.3592,-5.3592,-5.3592,-5.3537,-5.3293,-5.8397,-5.9369,-6.0236,-6.0428,-6.1017,-6.1501,-6.1598,-6.1595,-6.1598,-6.1605,-6.1632,-6.164,-6.1708,-6.1692,-6.1605,-6.139,-6.1272,-6.1128,-6.0913,-6.0861,-6.0507,-5.9842,-5.9739,-5.9477,-5.9043,-5.9578,-5.9623,-5.9144,-5.9886,-5.9827,-5.9012,-5.8944,-5.8875,-5.8771,-5.8875,-5.8351,-5.7483,-5.7335,-5.6658,-5.5636,-5.4643,-5.404,-5.3738,-5.3144,-5.2819,-5.2653,-5.2563,-5.2291,-5.2002,-5.1834,-5.1509,-5.1229,-5.1229,-5.1229,-5.1229,-5.1229,-5.0511,-4.9583,-4.897,-4.8027,-4.7309,-4.7309,-4.7309,-4.7409,-4.7892,-4.8282,-4.8953,-5.0229,-5.0647,-5.1027,-5.1908,-5.154,-5.0984,-5.0685,-5.0728,0.0,0.0,-5.1335,-5.2112,-5.2017,-5.1244,-5.0545,-5.0047,-4.765,-4.5979,-4.5706,-4.3487,-4.2281,-4.2511,-4.0701,-3.96,-3.9546,-3.8392,-3.8028,-3.8467,-3.9295,-3.9697,-3.9697,-3.9842,-4.0788,-4.2315,-4.158,-4.3534,-4.7451,-4.6589,-4.7642,-5.0118,-5.1312,-5.1769,-5.1909,-5.2778,-5.332,-5.3565,-5.3239,-5.313,-5.3049,-5.9147,-5.993,-6.0589,-6.0867,-6.1198,-6.1421,-6.1593,-6.1607,-6.1595,-6.1615,-6.1616,-6.1637,-6.1678,-6.1699,-6.1657,-6.15,-6.1298,-6.1151,-6.1011,-6.0773,-6.039,-5.9842,-5.9571,-5.9496,-5.9553,-5.9601,-5.9648,-5.9679,-5.9886,-5.9651,-5.9012,-5.8875,-5.8805,-5.8701,-5.8701,-5.8314,-5.7631,-5.7668,-5.6963,-5.5756,-5.4902,-5.4221,-5.3596,-5.2966,-5.2698,-5.2653,-5.2397,-5.217,-5.2017,-5.1741,-5.1433,-5.1276,-5.1229,-5.1229,-5.1229,-5.1229,-5.0391,-4.9344,-4.8686,-4.8027,-4.7549,-4.7549,-4.7429,-4.7452,-4.8145,-4.8532,-4.9075,-5.0416,-5.0647,-5.0838,-5.154,-5.1022,-5.0486,-5.0448,0.0,0.0,0.0,-5.1534,-5.246,-5.1966,-5.1601,-5.108,-5.0372,-4.8223,-4.6813,-4.684,-4.4608,-4.339,-4.3779,-4.1843,-4.0477,-3.9987,-3.9136,-3.8765,-3.8919,-3.9421,-3.9697,-3.9697,-4.0277,-4.0963,-4.1707,-4.1544,-4.3447,-4.6869,-4.6099,-4.7376,-5.0118,-5.1312,-5.1769,-5.1909,-5.2642,-5.3185,-5.3537,-5.3076,-5.2913,-5.2886,-5.9739,-6.0061,-6.0313,-6.0646,-6.0886,-6.1159,-6.1544,-6.1607,-6.1595,-6.1615,-6.1616,-6.1637,-6.1678,-6.1699,-6.1657,-6.15,-6.1279,-6.1073,-6.1011,-6.0533,-6.0106,-5.9826,-5.8967,-5.8806,-5.938,-6.0013,-6.0118,-5.9679,-6.0451,-6.0211,-5.9012,-5.8875,-5.8701,-5.8525,-5.8525,-5.8384,-5.8099,-5.7483,-5.7631,-5.8027,-5.5466,-5.481,-5.5198,-5.339,-5.2698,-5.2653,-5.2397,-5.2306,-5.2215,-5.1757,-5.1572,-5.1526,-5.1276,-5.1229,-5.1229,-5.1229,-5.0674,-5.0032,-4.9374,-4.876,-4.8207,-4.8207,-4.7758,-4.7309,-4.7396,-4.8313,-4.9157,-4.9318,-5.026,-5.1065,-5.1172,-5.0761,-5.0448,-5.0221,0.0,0.0,-5.0564,-5.0916,-5.1313,-5.1706,-5.0923,-5.031,-5.0071,-4.8512,-4.7548,-4.7527,-4.5864,-4.4726,-4.4444,-4.2463,-4.0817,-3.9664,-3.9543,-3.9295,-3.8919,-3.9421,-3.9697,-3.9697,-4.1286,-4.1931,-4.1732,-4.2936,-4.4749,-4.6895,-4.6513,-4.7744,-5.0118,-5.1312,-5.1769,-5.1936,-5.3076,-5.3565,-5.3592,-5.3537,-5.3537,-5.3375,-5.9434,-5.9922,-6.0365,-6.0663,-6.0925,-6.1213,-6.1544,-6.1607,-6.1616,-6.1603,-6.1603,-6.1594,-6.1638,-6.1669,-6.1671,-6.1648,-6.1283,-6.1112,-6.1136,-6.0529,-5.9969,-5.9379,-5.8743,-5.8954,-6.013,-5.9932,-6.0042,-6.0421,-6.0387,-5.9905,-5.8978,-5.8736,-5.8561,-5.849,-5.8384,-5.8277,-5.8171,-5.8063,-5.7811,-5.7372,-5.5796,-5.4943,-5.4485,-5.3201,-5.3024,-5.3434,-5.2592,-5.2637,-5.2962,-5.2124,-5.1834,-5.1787,-5.1556,-5.1433,-5.1416,-5.1276,-5.1003,-5.0734,-5.0541,-5.0095,-4.9731,-4.9731,-4.9517,-4.9463,-5.0016,-5.031,-5.06,-5.1132,-5.1686,-5.2034,-5.2034,-5.1367,-5.0803,-5.0723,0.0,-5.0492,-5.0254,-5.0907,-5.137,-5.113,-5.1225,-5.0971,-5.0091,-5.0086,-4.9805,-4.8943,-4.7074,-4.6172,-4.6671,-4.4072,-4.1842,-4.0208,-4.0158,-3.9931,-3.9371,-3.9597,-3.9873,-4.0199,-4.1698,-4.2232,-4.1947,-4.3563,-4.5292,-4.7114,-4.6835,-4.8171,-5.0598,-5.1455,-5.1769,-5.1909,-5.2723,-5.3266,-5.3537,-5.3185,-5.3293,-5.3537,-5.9178,-5.9739,-6.0283,-6.0562,-6.0896,-6.1205,-6.1456,-6.1549,-6.1607,-6.1607,-6.1618,-6.1584,-6.1591,-6.1677,-6.1686,-6.1609,-6.1271,-6.1058,-6.1081,-6.038,-5.9706,-5.9046,-5.8635,-5.9065,-6.0501,-5.9852,-5.997,-6.0879,-6.0251,-5.9582,-5.8909,-5.8596,-5.8419,-5.8419,-5.8205,-5.7954,-5.7701,-5.7811,-5.748,-5.6729,-5.5843,-5.5239,-5.4736,-5.3836,-5.3879,-5.4317,-5.3415,-5.3545,-5.3988,-5.3095,-5.2681,-5.2532,-5.2457,-5.223,-5.1849,-5.1339,-5.1229,-5.1229,-5.1229,-5.1213,-5.1172,-5.0956,-5.087,-5.1014,-5.1633,-5.1466,-5.1455,-5.2005,-5.2281,-5.2331,-5.2148,-5.1493,-5.0951,-5.069,-5.0627,-5.0563,-5.0279,-5.0866,-5.1246,-5.0943,-5.1347,-5.1277,-5.0306,-5.0907,-5.0869,-4.9689,-4.7875,-4.6698,-4.6403,-4.4533,-4.2596,-4.0694,-4.0795,-4.0542,-3.9826,-3.9749,-3.9973,-4.0526,-4.2372,-4.2965,-4.2463,-4.4369,-4.6084,-4.7423,-4.7033,-4.8285,-5.0654,-5.1486,-5.1769,-5.1909,-5.2696,-5.3239,-5.3537,-5.3158,-5.3239,-5.3565,-5.9084,-5.9588,-6.0061,-6.0328,-6.0657,-6.0973,-6.1274,-6.1462,-6.1607,-6.1607,-6.1588,-6.1598,-6.159,-6.1679,-6.1618,-6.1432,-6.1147,-6.0949,-6.0815,-5.9968,-5.9305,-5.8929,-5.8577,-5.902,-6.0382,-5.9801,-5.997,-6.0879,-6.009,-5.9417,-5.8771,-5.8384,-5.8171,-5.8205,-5.7991,-5.7406,-5.6614,-5.6614,-5.6614,-5.6536,-5.5676,-5.5796,-5.6498,-5.5636,-5.5312,-5.5271,-5.4994,-5.5076,-5.5239,-5.4755,-5.4126,-5.3687,-5.4158,-5.3514,-5.2426,-5.1479,-5.1229,-5.1229,-5.1229,-5.1911,-5.2452,-5.1775,-5.153,-5.1413,-5.1445,-5.1403,-5.1434,-5.1434,-5.1727,-5.1828,-5.1173,-5.1046,-5.0753,-5.0058,-4.9892,-5.0153,-5.0879,-5.0772,-5.0745,-5.1225,-5.1138,-5.0913,-5.074,-5.0697,-5.0334,-4.9384,-4.8177,-4.6143,-4.2964,-4.3511,-4.2985,-4.0997,-4.1345,-4.1145,-4.0134,-3.9852,-3.9973,-4.0526,-4.3324,-4.4269,-4.3486,-4.5687,-4.7082,-4.77,-4.7079,-4.8057,-5.0118,-5.1312,-5.1769,-5.1936,-5.313,-5.3592,-5.3592,-5.3592,-5.3592,-5.351,-5.7019,-5.7695,-5.8573,-5.9396,-5.9854,-6.0321,-6.1165,-6.1462,-6.1607,-6.1607,-6.1588,-6.1598,-6.159,-6.1679,-6.1665,-6.1541,-6.1227,-6.077,-6.0269,-5.9788,-5.9307,-5.8868,-5.8449,-5.8929,-6.0382,-5.9374,-5.9488,-6.0879,-5.9679,-5.8978,-5.8771,-5.8384,-5.8171,-5.8135,-5.7368,-5.7181,-5.748,-5.6844,-5.6614,-5.6536,-5.5676,-5.5108,-5.4778,-5.4485,-5.4778,-5.5312,-5.5198,-5.5636,-5.6074,-5.532,-5.487,-5.4443,-5.3632,-5.3108,-5.2575,-5.1526,-5.1229,-5.1229,-5.1229,-5.2381,-5.3558,-5.3338,-5.3278,-5.3291,-5.366,-5.345,-5.3141,-5.284,-5.3173,-5.3408,-5.3186,-5.2365,-5.1638,-5.1417,-5.0563,-5.0073,-5.0646,-5.0536,-5.057,-5.1002,-5.1314,-5.1264,-5.0728,-5.1559,-5.1577,-5.0365,-4.8535,-4.6299,-4.359,-4.3639,-4.3237,-4.2113,-4.2061,-4.1774,-4.1328,-4.023,-4.0174,-4.1103,-4.3101,-4.4465,-4.5304,-4.7371,-4.8761,-4.9553,-4.9209,-4.9624,-5.071,-5.1486,-5.1557,-5.1339,-5.2968,-5.3347,-5.3022,-5.3429,-5.3592,-5.3565,-5.6312,-5.7029,-5.7797,-5.8448,-5.8924,-5.9499,-6.0499,-6.061,-6.0828,-6.149,-6.1296,-6.1228,-6.1549,-6.164,-6.1626,-6.1509,-6.1105,-6.0657,-6.0217,-5.9711,-5.9289,-5.9026,-5.8745,-5.9038,-6.0028,-5.9014,-5.9112,-6.0432,-5.9249,-5.8631,-5.8561,-5.8241,-5.8063,-5.8027,-5.7406,-5.6996,-5.6882,-5.6691,-5.642,-5.6074,-5.5876,-5.5716,-5.5523,-5.5523,-5.5843,-5.6309,-5.6309,-5.6426,-5.6575,-5.627,-5.5995,-5.5515,-5.3976,-5.3675,-5.3644,-5.2575,-5.229,-5.229,-5.229,-5.3108,-5.4062,-5.4443,-5.4527,-5.4591,-5.4717,-5.438,-5.3985,-5.3726,-5.371,-5.3692,-5.3692,-5.2554,-5.1606,-5.1606,-5.0578,-5.0088,-5.1023,-5.0809,-5.09,-5.1821,-5.2012,-5.1959,-5.1528,-5.1648,-5.0759,-4.8431,-4.767,-4.606,-4.3295,-4.4008,-4.3929,-4.2631,-4.2631,-4.2368,-4.1757,-4.0835,-4.0676,-4.1354,-4.3702,-4.5262,-4.6238,-4.7917,-4.9474,-5.0848,-4.9994,-5.0294,-5.1264,-5.1653,-5.1747,-5.1747,-5.3076,-5.3375,-5.3103,-5.3483,-5.3592,-5.3592,-5.6422,-5.697,-5.7396,-5.7472,-5.7928,-5.8574,-5.9464,-5.9238,-5.9581,-6.1179,-6.075,-6.057,-6.1313,-6.1561,-6.158,-6.131,-6.0953,-6.0635,-6.048,-5.9706,-5.9251,-5.9286,-5.9261,-5.9323,-5.9506,-5.8892,-5.8975,-5.9806,-5.8909,-5.8384,-5.8205,-5.7991,-5.7881,-5.7881,-5.7808,-5.6958,-5.5595,-5.6192,-5.6034,-5.5353,-5.6074,-5.6844,-5.7554,-5.7628,-5.7735,-5.7808,-5.7881,-5.7406,-5.6806,-5.7368,-5.7327,-5.6724,-5.4943,-5.4819,-5.5117,-5.4274,-5.3976,-5.3976,-5.3976,-5.4062,-5.4317,-5.5067,-5.5377,-5.5369,-5.4998,-5.4613,-5.4274,-5.4189,-5.3671,-5.3229,-5.3123,-5.1986,-5.1078,-5.1015,-5.0277,-5.0228,-5.1745,-5.1496,-5.1685,-5.3178,-5.2966,-5.2698,-5.2637,-5.1016,-4.8488,-4.4905,-4.5967,-4.5477,-4.2569,-4.4416,-4.4668,-4.2812,-4.3179,-4.2918,-4.1884,-4.1727,-4.1566,-4.143,-4.4546,-4.6245,-4.6511,-4.7731,-4.9496,-5.1555,-4.9968,-5.0268,-5.1789,-5.1847,-5.2212,-5.2696,-5.3408,-5.3625,-5.3537,-5.3565,-5.3592,-5.3592,-5.4787,-5.5246,-5.5874,-5.6521,-5.7093,-5.7723,-5.8574,-5.8849,-5.9152,-5.9503,-5.9971,-6.0137,-5.9675,-6.1366,-6.2203,-6.1376,-6.1523,-6.1301,-6.045,-5.9937,-5.9537,-5.9214,-5.9512,-5.9605,-5.9506,-5.9345,-5.9692,-6.0494,-5.9012,-5.8241,-5.8205,-5.7991,-5.7881,-5.7881,-5.7181,-5.7034,-5.7293,-5.6074,-5.5474,-5.5271,-5.4778,-5.4694,-5.4911,-5.5603,-5.627,-5.6958,-5.7662,-5.7772,-5.7625,-5.7439,-5.7402,-5.7181,-5.5595,-5.528,-5.532,-5.4317,-5.3976,-5.3976,-5.3976,-5.4527,-5.4985,-5.4851,-5.5377,-5.5927,-5.5846,-5.5766,-5.545,-5.479,-5.4527,-5.4146,-5.3229,-5.2396,-5.1606,-5.111,-5.0848,-5.0956,-5.1674,-5.1976,-5.2343,-5.3095,-5.2877,-5.2513,-5.1959,-4.9718,-4.7564,-4.5826,-4.5068,-4.4468,-4.4014,-4.417,-4.4204,-4.3924,-4.4177,-4.3912,-4.3026,-4.3992,-4.3677,-4.2037,-4.3563,-4.5085,-4.65,-4.859,-5.0022,-5.1015,-5.118,-5.1461,-5.1845,-5.2366,-5.2376,-5.2126,-5.3695,-5.3713,-5.2968,-5.3429,-5.3592,-5.3592,-5.4549,-5.4859,-5.5268,-5.5822,-5.6284,-5.6897,-5.7831,-5.7875,-5.8105,-5.888,-5.9035,-5.9088,-5.9089,-6.0586,-6.1431,-6.112,-6.1224,-6.1019,-6.0436,-5.9842,-5.9432,-5.9215,-5.9388,-5.9441,-5.9365,-5.9373,-5.9592,-6.009,-5.8806,-5.8135,-5.8027,-5.7954,-5.7881,-5.7881,-5.7406,-5.6996,-5.6658,-5.6581,-5.6074,-5.5353,-5.5683,-5.5843,-5.5843,-5.5915,-5.6465,-5.7218,-5.7256,-5.7406,-5.7514,-5.6877,-5.6911,-5.7025,-5.6224,-5.6027,-5.6027,-5.5466,-5.5304,-5.5304,-5.5304,-5.5628,-5.5908,-5.5701,-5.6053,-5.6284,-5.5854,-5.5766,-5.5645,-5.5164,-5.4824,-5.4475,-5.3987,-5.3045,-5.2232,-5.2027,-5.1619,-5.1568,-5.2293,-5.2289,-5.2455,-5.3139,-5.2644,-5.145,-4.9569,-4.8388,-4.6907,-4.476,-4.4474,-4.4366,-4.4222,-4.4256,-4.4273,-4.4313,-4.4273,-4.3976,-4.3381,-4.4004,-4.3687,-4.2615,-4.3924,-4.5103,-4.614,-4.8452,-5.0132,-5.1265,-5.2232,-5.2795,-5.3136,-5.3469,-5.3453,-5.3229,-5.4453,-5.4212,-5.3218,-5.3817,-5.3833,-5.3592,-5.4822,-5.5014,-5.517,-5.5361,-5.5691,-5.6225,-5.7126,-5.683,-5.7013,-5.8377,-5.8074,-5.8006,-5.8778,-5.9757,-6.055,-6.1069,-6.0923,-6.0687,-6.0422,-5.9689,-5.9289,-5.9215,-5.9276,-5.9274,-5.9174,-5.918,-5.9249,-5.9346,-5.8562,-5.8063,-5.7881,-5.7881,-5.7881,-5.7881,-5.7881,-5.711,-5.5836,-5.6958,-5.6729,-5.5636,-5.6768,-5.7406,-5.7591,-5.6882,-5.7143,-5.7808,-5.7105,-5.7067,-5.7252,-5.6453,-5.6414,-5.6757,-5.6719,-5.668,-5.668,-5.668,-5.668,-5.668,-5.668,-5.668,-5.668,-5.668,-5.668,-5.6525,-5.5774,-5.5612,-5.5572,-5.5409,-5.4956,-5.4576,-5.4493,-5.3547,-5.2817,-5.2881,-5.2324,-5.2188,-5.2986,-5.2602,-5.2474,-5.3159,-5.2113,-5.015,-4.7099,-4.7209,-4.6217,-4.3222,-4.4064,-4.4503,-4.3939,-4.4408,-4.4559,-4.4313,-4.4258,-4.3984,-4.3517,-4.3508,-4.3391,-4.3249,-4.4652,-4.5415,-4.5669,-4.7943,-4.9968,-5.1785,-5.2731,-5.3744,-5.4681,-5.4743,-5.4732,-5.4762,-5.5437,-5.4908,-5.3833,-5.4226,-5.4107,-5.3773,-5.4867,-5.5014,-5.517,-5.5361,-5.5691,-5.5993,-5.6349,-5.6441,-5.6585,-5.6819,-5.7407,-5.7843,-5.7959,-5.9728,-6.1203,-6.1955,-6.1684,-6.1162,-6.046,-5.9953,-5.9554,-5.9215,-5.9533,-5.9493,-5.9067,-5.9158,-5.9186,-5.9144,-5.8317,-5.7918,-5.7881,-5.7881,-5.7881,-5.7881,-5.7881,-5.7772,-5.748,-5.6192,-5.5955,-5.6309,-5.5035,-5.5434,-5.6768,-5.6652,-5.7143,-5.7881,-5.7772,-5.7662,-5.7476,-5.7025,-5.6911,-5.6911,-5.6757,-5.668,-5.668,-5.668,-5.668,-5.668,-5.668,-5.668,-5.668,-5.668,-5.668,-5.668,-5.6564,-5.6525,-5.633,-5.5572,-5.5345,-5.4873,-5.3565,-5.3176,-5.2859,-5.2238,-5.2576,-5.2955,-5.3092,-5.3138,-5.3065,-5.2609,-5.0998,-4.9148,-4.704,-4.6356,-4.5231,-4.3122,-4.3622,-4.3993,-4.3912,-4.4408,-4.4559,-4.4313,-4.5154,-4.5072,-4.3844,-4.4918,-4.4986,-4.4111,-4.4529,-4.5016,-4.5558,-4.7376,-4.9501,-5.1702,-5.1431,-5.2882,-5.5366,-5.5366,-5.5395,-5.5437,-5.6049,-5.5526,-5.4318,-5.3866,-5.3987,-5.4378,-5.492,-5.5102,-5.5312,-5.5528,-5.5822,-5.6128,-5.6342,-5.6441,-5.6507,-5.6507,-5.7262,-5.7814,-5.7804,-5.9308,-6.0631,-6.1404,-6.1122,-6.079,-6.0408,-5.9826,-5.9397,-5.9215,-5.8958,-5.868,-5.8439,-5.8088,-5.8066,-5.8421,-5.8077,-5.7881,-5.7881,-5.7881,-5.7881,-5.7881,-5.7881,-5.7625,-5.7181,-5.6882,-5.6691,-5.6575,-5.6309,-5.6619,-5.7293,-5.6768,-5.7143,-5.7881,-5.7772,-5.7588,-5.7402,-5.7101,-5.6911,-5.6796,-5.6719,-5.668,-5.668,-5.668,-5.668,-5.668,-5.668,-5.668,-5.668,-5.668,-5.668,-5.668,-5.668,-5.6525,-5.6284,-5.5886,-5.5572,-5.5108,-5.4198,-5.4041,-5.3861,-5.326,-5.3439,-5.366,-5.366,-5.3526,-5.304,-5.2126,-5.129,-5.0015,-4.7998,-4.7376,-4.6602,-4.5281,-4.5129,-4.5255,-4.5571,-4.5669,-4.566,-4.5549,-4.58,-4.5578,-4.4822,-4.5898,-4.5957,-4.5004,-4.6374,-4.6698,-4.6029,-4.7861,-4.9748,-5.1785,-5.2956,-5.4421,-5.6014,-5.636,-5.6337,-5.6049,-5.668,-5.6337,-5.5526,-5.488,-5.4849,-5.5057]},{"header":{"parameterUnit":"m.s-1","parameterCategory":1,"la1":30.6,"la2":28.766,"lo1":-90.7593,"lo2":-88.6598,"dx":0.0162,"dy":0.0183,"nx":116,"ny":114,"refTime":"2023-01-25T06:00:00:Z","depth":0,"parameterNumber":3,"parameterNumberName":"V-component_of_WINDS"},"data":[0.0,0.0,0.0,0.0,0.0,0.0,0.0,0.0,0.0,0.0,0.0,0.0,0.0,0.0,0.0,0.0,0.0,0.0,0.0,0.0,0.0,0.0,0.0,0.0,0.0,0.0,0.0,0.0,0.0,0.0,0.0,0.0,0.0,0.0,0.0,0.0,0.0,0.0,0.0,0.0,0.0,0.0,0.0,0.0,0.0,0.0,0.0,0.0,0.0,0.0,0.0,0.0,0.0,0.0,0.0,0.0,0.0,0.0,0.0,0.0,0.0,0.0,0.0,0.0,0.0,0.0,0.0,0.0,0.0,0.0,0.0,0.0,0.0,0.0,0.0,0.0,0.0,0.0,0.0,0.0,0.0,0.0,0.0,0.0,0.0,0.0,0.0,0.0,0.0,0.0,0.0,0.0,0.0,0.0,0.0,0.0,0.0,0.0,0.0,0.0,0.0,0.0,0.0,0.0,0.0,0.0,0.0,0.0,0.0,0.0,0.0,0.0,0.0,0.0,0.0,0.0,0.0,0.0,0.0,0.0,0.0,0.0,0.0,0.0,0.0,0.0,0.0,0.0,0.0,0.0,0.0,0.0,0.0,0.0,0.0,0.0,0.0,0.0,0.0,0.0,0.0,0.0,0.0,0.0,0.0,0.0,0.0,0.0,0.0,0.0,0.0,0.0,0.0,0.0,0.0,0.0,0.0,0.0,0.0,0.0,0.0,0.0,0.0,0.0,0.0,0.0,0.0,0.0,0.0,0.0,0.0,0.0,0.0,0.0,0.0,0.0,0.0,0.0,0.0,0.0,0.0,0.0,0.0,0.0,0.0,0.0,0.0,0.0,0.0,0.0,0.0,0.0,0.0,0.0,0.0,0.0,0.0,0.0,0.0,0.0,0.0,0.0,0.0,0.0,0.0,0.0,0.0,0.0,0.0,0.0,0.0,0.0,0.0,0.0,0.0,0.0,0.0,0.0,0.0,0.0,0.0,0.0,0.0,0.0,0.0,0.0,0.0,0.0,0.0,0.0,0.0,0.0,0.0,0.0,0.0,0.0,0.0,0.0,0.0,0.0,0.0,0.0,0.0,0.0,0.0,0.0,0.0,0.0,0.0,0.0,0.0,0.0,0.0,0.0,0.0,0.0,0.0,0.0,0.0,0.0,0.0,0.0,0.0,0.0,0.0,0.0,0.0,0.0,0.0,0.0,0.0,0.0,0.0,0.0,0.0,0.0,0.0,0.0,0.0,0.0,0.0,0.0,0.0,0.0,0.0,0.0,0.0,0.0,0.0,0.0,0.0,0.0,0.0,0.0,0.0,0.0,0.0,0.0,0.0,0.0,0.0,0.0,0.0,0.0,0.0,0.0,0.0,0.0,0.0,0.0,0.0,0.0,0.0,0.0,0.0,0.0,0.0,0.0,0.0,0.0,0.0,0.0,0.0,0.0,0.0,0.0,0.0,0.0,0.0,0.0,0.0,0.0,0.0,0.0,0.0,0.0,0.0,0.0,0.0,0.0,0.0,0.0,0.0,0.0,0.0,0.0,0.0,0.0,0.0,0.0,0.0,0.0,0.0,0.0,0.0,0.0,0.0,0.0,0.0,0.0,0.0,0.0,0.0,0.0,0.0,0.0,0.0,0.0,0.0,0.0,0.0,0.0,0.0,0.0,0.0,0.0,0.0,0.0,0.0,0.0,0.0,0.0,0.0,0.0,0.0,0.0,0.0,0.0,0.0,0.0,0.0,0.0,0.0,0.0,0.0,0.0,0.0,0.0,0.0,0.0,0.0,0.0,0.0,0.0,0.0,0.0,0.0,0.0,0.0,0.0,0.0,0.0,0.0,0.0,0.0,0.0,0.0,0.0,0.0,0.0,0.0,0.0,0.0,0.0,0.0,0.0,0.0,0.0,0.0,0.0,0.0,0.0,0.0,0.0,0.0,0.0,0.0,0.0,0.0,0.0,0.0,0.0,0.0,0.0,0.0,0.0,0.0,0.0,0.0,0.0,0.0,0.0,0.0,0.0,0.0,0.0,0.0,0.0,0.0,0.0,0.0,0.0,0.0,0.0,0.0,0.0,0.0,0.0,0.0,0.0,0.0,0.0,0.0,0.0,0.0,0.0,0.0,0.0,0.0,0.0,0.0,0.0,0.0,0.0,0.0,0.0,0.0,0.0,0.0,0.0,0.0,0.0,0.0,0.0,0.0,0.0,0.0,0.0,0.0,0.0,0.0,0.0,0.0,0.0,0.0,0.0,0.0,0.0,0.0,0.0,0.0,0.0,0.0,0.0,0.0,0.0,0.0,0.0,0.0,0.0,0.0,0.0,0.0,0.0,0.0,0.0,0.0,0.0,0.0,0.0,0.0,0.0,0.0,0.0,0.0,0.0,0.0,0.0,0.0,0.0,0.0,0.0,0.0,0.0,0.0,0.0,0.0,0.0,0.0,0.0,0.0,0.0,0.0,0.0,0.0,0.0,0.0,0.0,0.0,0.0,0.0,0.0,0.0,0.0,0.0,0.0,0.0,0.0,0.0,0.0,0.0,0.0,0.0,0.0,0.0,0.0,0.0,0.0,0.0,0.0,0.0,0.0,0.0,0.0,0.0,0.0,0.0,0.0,0.0,0.0,0.0,0.0,0.0,0.0,0.0,0.0,0.0,0.0,0.0,0.0,0.0,0.0,0.0,0.0,0.0,0.0,0.0,0.0,0.0,0.0,0.0,0.0,0.0,0.0,0.0,0.0,0.0,0.0,0.0,0.0,0.0,0.0,0.0,0.0,0.0,0.0,0.0,0.0,0.0,0.0,0.0,0.0,0.0,0.0,0.0,0.0,0.0,0.0,0.0,0.0,0.0,0.0,0.0,0.0,0.0,0.0,0.0,0.0,0.0,0.0,0.0,0.0,0.0,0.0,0.0,0.0,0.0,0.0,0.0,0.0,0.0,0.0,0.0,0.0,0.0,0.0,0.0,0.0,0.0,0.0,0.0,0.0,0.0,0.0,0.0,0.0,0.0,0.0,0.0,0.0,0.0,0.0,0.0,0.0,0.0,0.0,0.0,0.0,0.0,0.0,0.0,0.0,0.0,0.0,0.0,0.0,0.0,0.0,0.0,0.0,0.0,0.0,0.0,0.0,0.0,0.0,0.0,0.0,0.0,0.0,0.0,0.0,0.0,0.0,0.0,0.0,0.0,0.0,0.0,0.0,0.0,0.0,0.0,0.0,0.0,0.0,0.0,0.0,0.0,0.0,0.0,0.0,0.0,0.0,0.0,0.0,0.0,0.0,0.0,0.0,0.0,0.0,0.0,0.0,0.0,0.0,0.0,0.0,0.0,0.0,0.0,0.0,0.0,0.0,0.0,0.0,0.0,0.0,0.0,0.0,0.0,0.0,0.0,0.0,0.0,0.0,0.0,0.0,0.0,0.0,0.0,0.0,0.0,0.0,0.0,0.0,0.0,0.0,0.0,0.0,0.0,0.0,0.0,0.0,0.0,0.0,0.0,0.0,0.0,0.0,0.0,0.0,0.0,0.0,0.0,0.0,0.0,0.0,0.0,0.0,0.0,0.0,0.0,0.0,0.0,0.0,0.0,0.0,0.0,0.0,0.0,0.0,0.0,0.0,0.0,0.0,0.0,0.0,0.0,0.0,0.0,0.0,0.0,0.0,0.0,0.0,0.0,0.0,0.0,0.0,0.0,0.0,0.0,0.0,0.0,0.0,0.0,0.0,0.0,0.0,0.0,0.0,0.0,0.0,0.0,0.0,0.0,0.0,0.0,0.0,0.0,0.0,0.0,0.0,0.0,0.0,0.0,0.0,0.0,0.0,0.0,0.0,0.0,0.0,0.0,0.0,0.0,0.0,0.0,0.0,0.0,0.0,0.0,0.0,0.0,0.0,0.0,0.0,0.0,0.0,0.0,0.0,0.0,0.0,0.0,0.0,0.0,0.0,0.0,0.0,0.0,0.0,0.0,0.0,0.0,0.0,0.0,0.0,0.0,0.0,0.0,0.0,0.0,0.0,0.0,0.0,0.0,0.0,0.0,0.0,0.0,0.0,0.0,0.0,0.0,0.0,0.0,0.0,0.0,0.0,0.0,0.0,0.0,0.0,0.0,0.0,0.0,0.0,0.0,0.0,0.0,0.0,0.0,0.0,0.0,0.0,0.0,0.0,0.0,0.0,0.0,0.0,0.0,0.0,0.0,0.0,0.0,0.0,0.0,0.0,0.0,0.0,0.0,0.0,0.0,0.0,0.0,0.0,0.0,0.0,0.0,0.0,0.0,0.0,0.0,0.0,0.0,0.0,0.0,0.0,0.0,0.0,0.0,0.0,0.0,0.0,0.0,0.0,0.0,0.0,0.0,0.0,0.0,0.0,0.0,0.0,0.0,0.0,0.0,0.0,0.0,0.0,0.0,0.0,0.0,0.0,0.0,0.0,0.0,0.0,0.0,0.0,0.0,0.0,0.0,0.0,0.0,0.0,0.0,0.0,0.0,0.0,0.0,0.0,0.0,0.0,0.0,0.0,0.0,0.0,0.0,0.0,0.0,0.0,0.0,0.0,0.0,0.0,0.0,0.0,0.0,0.0,0.0,0.0,0.0,0.0,0.0,0.0,0.0,0.0,0.0,0.0,0.0,0.0,0.0,0.0,0.0,0.0,0.0,0.0,0.0,0.0,0.0,0.0,0.0,0.0,0.0,0.0,0.0,0.0,0.0,0.0,0.0,0.0,0.0,0.0,0.0,0.0,0.0,0.0,0.0,0.0,0.0,0.0,0.0,0.0,0.0,0.0,0.0,0.0,0.0,0.0,0.0,0.0,0.0,0.0,0.0,0.0,0.0,0.0,0.0,0.0,0.0,0.0,0.0,0.0,0.0,0.0,0.0,0.0,0.0,0.0,0.0,0.0,0.0,0.0,0.0,0.0,0.0,0.0,0.0,0.0,0.0,0.0,0.0,0.0,0.0,0.0,0.0,0.0,0.0,0.0,0.0,0.0,0.0,0.0,0.0,0.0,0.0,0.0,0.0,0.0,0.0,0.0,0.0,0.0,0.0,0.0,0.0,0.0,0.0,0.0,0.0,0.0,0.0,0.0,0.0,0.0,0.0,0.0,0.0,0.0,0.0,0.0,0.0,0.0,0.0,0.0,0.0,0.0,0.0,0.0,0.0,0.0,0.0,0.0,0.0,0.0,0.0,0.0,0.0,0.0,0.0,0.0,0.0,0.0,0.0,0.0,0.0,0.0,0.0,0.0,0.0,0.0,0.0,0.0,0.0,0.0,0.0,0.0,0.0,0.0,0.0,0.0,0.0,0.0,0.0,0.0,0.0,0.0,0.0,0.0,0.0,0.0,0.0,0.0,0.0,0.0,0.0,0.0,0.0,0.0,0.0,0.0,0.0,0.0,0.0,0.0,0.0,0.0,0.0,0.0,0.0,0.0,0.0,0.0,0.0,0.0,0.0,0.0,0.0,0.0,0.0,0.0,0.0,0.0,0.0,0.0,0.0,0.0,0.0,0.0,0.0,0.0,0.0,0.0,0.0,0.0,0.0,0.0,0.0,0.0,0.0,0.0,0.0,0.0,0.0,0.0,0.0,0.0,0.0,0.0,0.0,0.0,0.0,0.0,0.0,0.0,0.0,0.0,0.0,0.0,0.0,0.0,0.0,0.0,0.0,0.0,0.0,0.0,0.0,0.0,0.0,0.0,0.0,0.0,0.0,0.0,0.0,0.0,0.0,0.0,0.0,0.0,0.0,0.0,0.0,0.0,0.0,0.0,0.0,0.0,0.0,0.0,0.0,0.0,0.0,0.0,0.0,0.0,0.0,0.0,0.0,0.0,0.0,0.0,0.0,0.0,0.0,0.0,0.0,0.0,0.0,0.0,0.0,0.0,0.0,0.0,0.0,0.0,0.0,0.0,0.0,0.0,0.0,0.0,0.0,0.0,0.0,0.0,0.0,0.0,0.0,0.0,0.0,0.0,0.0,0.0,0.0,0.0,0.0,0.0,0.0,0.0,0.0,0.0,0.0,0.0,0.0,0.0,0.0,0.0,0.0,0.0,0.0,0.0,0.0,0.0,0.0,0.0,0.0,0.0,0.0,0.0,0.0,0.0,0.0,0.0,0.0,0.0,-2.1568,0.0,0.0,0.0,0.0,0.0,0.0,0.0,0.0,0.0,0.0,0.0,0.0,0.0,0.0,0.0,0.0,0.0,0.0,0.0,0.0,0.0,0.0,0.0,0.0,0.0,0.0,0.0,0.0,0.0,0.0,0.0,0.0,0.0,0.0,0.0,0.0,0.0,0.0,0.0,0.0,0.0,0.0,0.0,0.0,0.0,0.0,0.0,0.0,0.0,0.0,0.0,0.0,0.0,0.0,0.0,0.0,0.0,0.0,0.0,0.0,0.0,0.0,0.0,0.0,0.0,0.0,0.0,0.0,0.0,0.0,0.0,0.0,0.0,0.0,0.0,0.0,0.0,0.0,0.0,0.0,0.0,0.0,0.0,0.0,0.0,0.0,0.0,0.0,0.0,0.0,0.0,0.0,0.0,0.0,0.0,0.0,0.0,0.0,0.0,0.0,0.0,0.0,0.0,0.0,0.0,0.0,0.0,0.0,0.0,0.0,0.0,0.0,0.0,0.0,0.0,0.0,-2.3485,0.0,0.0,0.0,0.0,0.0,0.0,0.0,0.0,0.0,0.0,0.0,0.0,0.0,0.0,0.0,0.0,0.0,0.0,0.0,0.0,0.0,0.0,0.0,0.0,0.0,0.0,0.0,0.0,0.0,0.0,0.0,0.0,0.0,0.0,0.0,0.0,0.0,0.0,0.0,0.0,0.0,0.0,0.0,0.0,0.0,0.0,0.0,0.0,0.0,0.0,0.0,0.0,0.0,0.0,0.0,0.0,0.0,0.0,0.0,0.0,0.0,0.0,0.0,0.0,0.0,0.0,0.0,0.0,0.0,0.0,0.0,0.0,0.0,0.0,0.0,0.0,0.0,0.0,0.0,0.0,0.0,0.0,0.0,0.0,0.0,0.0,0.0,0.0,0.0,0.0,0.0,0.0,0.0,0.0,0.0,0.0,0.0,0.0,0.0,0.0,0.0,0.0,0.0,0.0,0.0,0.0,0.0,0.0,-2.6464,-2.6025,-2.5846,-2.6675,-2.7287,-2.7804,-2.7615,-2.7937,-2.84,-2.627,0.0,0.0,0.0,0.0,0.0,0.0,0.0,0.0,0.0,0.0,0.0,0.0,0.0,0.0,0.0,0.0,0.0,0.0,0.0,0.0,0.0,0.0,0.0,0.0,0.0,0.0,0.0,0.0,0.0,0.0,0.0,0.0,0.0,0.0,0.0,0.0,0.0,0.0,0.0605,0.0352,-0.0179,-0.0818,0.0,0.0,0.0,0.0,0.0,0.0,0.0,0.0,0.0,0.0,0.0,0.0,0.0,0.0,0.0,0.0,0.0,0.0,0.0,0.0,0.0,0.0,0.0,0.0,0.0,0.0,0.0,0.0,0.0,0.0,0.0,0.0,0.0,0.0,0.0,0.0,0.0,0.0,0.0,0.0,0.0,0.0,0.0,0.0,-2.9336,-3.0035,0.0,0.0,0.0,0.0,0.0,0.0,0.0,0.0,0.0,0.0,0.0,0.0,0.0,-2.8164,-2.7919,-2.8899,-2.9088,-2.8628,-2.9646,-3.0329,-3.0798,-3.0937,-3.1055,-3.1187,-3.1814,0.0,-2.9342,-2.9882,0.0,0.0,0.0,0.0,0.0,0.0,0.0,0.0,0.0,0.0,0.0,0.0,0.0,0.0,0.0,0.0,0.0,0.0,0.0,0.0,0.0,0.0,0.0,0.0,0.0,0.0,0.0,0.0,0.0,0.0,0.0,0.0,0.0,0.0,0.0,0.0,0.0436,-0.0178,-0.1168,-0.1375,-0.1777,-0.2288,-0.1134,-0.0283,0.0237,0.0142,0.0,0.0,0.0,0.0,0.0,0.0,0.0,0.0,0.0,0.0,0.0,0.0,0.0,0.0,0.0,0.0,0.0,0.0,0.0,0.0,0.0,0.0,0.0,0.0,0.0,0.0,0.0,0.0,0.0,0.0,0.0,0.0,0.0,0.0,0.0,0.0,0.0,0.0,0.0,-2.6595,-2.7892,-2.8401,-2.7594,-2.6579,0.0,0.0,0.0,0.0,0.0,0.0,0.0,0.0,0.0,-3.1111,-3.0794,-3.0693,-3.0835,-3.0957,-3.0876,-3.0638,-3.0721,-3.0936,-3.1185,-3.2154,-3.2555,-3.2374,-3.3717,-3.37,-3.2704,-3.2088,-3.1344,-3.0497,0.0,0.0,0.0,0.0,-2.7246,-2.5667,0.0,0.0,0.0,0.0,0.0,0.0,0.0,0.0,0.0,0.0,0.0,0.0,0.0,0.0,0.0,0.0,0.0,0.0,0.0,0.0,0.0,0.0,0.0,0.0,0.0,0.0,0.0,0.0,-0.181,-0.2444,-0.3519,-0.3735,-0.4039,-0.4489,-0.4806,-0.3902,-0.217,-0.217,-0.212,0.0,0.0,0.0,0.0,0.0,0.0,0.0,0.0,0.0,0.0,0.0,0.0,0.0,0.0,0.0,0.0,0.0,0.0,0.0,0.0,0.0,0.0,0.0,0.0,0.0,0.0,0.0,0.0,0.0,0.0,0.0,0.0,0.0,0.0,0.0,0.0,0.0,0.0,-2.7047,-2.7419,-2.7395,-2.7655,-2.7362,0.0,0.0,0.0,0.0,0.0,0.0,-3.1402,-3.1181,-3.1558,-3.2663,-3.2309,-3.2426,-3.3009,-3.215,-3.1696,-3.1715,-3.114,-3.1177,-3.1703,-3.256,-3.3155,-3.3656,-3.4716,-3.5352,-3.5532,-3.4191,-3.3623,-3.3652,-3.3883,-3.3655,-3.3221,-3.3015,-3.1929,-3.0453,0.0,0.0,0.0,0.0,0.0,0.0,0.0,0.0,0.0,0.0,0.0,0.0,0.0,0.0,0.0,0.0,0.0,0.0,0.0,0.0,0.0,0.0,0.0,0.0,0.0,0.0,0.0,-0.3459,-0.3674,-0.4811,-0.687,-0.7197,-0.7849,-0.8797,-0.9405,-0.7242,-0.3115,-0.311,-0.3007,-0.2754,0.0,0.0,0.0,0.0,0.0,0.0,0.0,0.0,0.0,0.0,0.0,0.0,0.0,0.0,0.0,0.0,0.0,0.0,0.0,0.0,0.0,0.0,0.0,0.0,0.0,0.0,0.0,0.0,0.0,0.0,0.0,0.0,0.0,0.0,0.0,0.0,0.0,0.0,0.0,-2.9076,-3.0485,0.0,0.0,0.0,0.0,-3.0799,-3.0888,-3.1884,-3.3905,-3.3029,-3.3449,-3.5526,-3.3253,-3.2226,-3.2614,-3.149,-3.088,-3.088,-3.1265,-3.2512,-3.4342,-3.2679,-3.3467,-3.6,-3.4996,-3.523,-3.634,-3.6489,-3.6278,-3.5798,-3.5607,-3.4876,-3.3988,-3.4357,-3.3993,-3.318,0.0,0.0,0.0,0.0,0.0,0.0,0.0,0.0,0.0,0.0,0.0,0.0,0.0,0.0,0.0,0.0,0.0,0.0,0.0,0.0,0.0,0.0,0.0,0.0,0.0,0.0,-0.6302,-0.6745,-0.7065,-0.7779,-0.8839,-0.9059,-0.9429,-0.9932,-1.0147,-0.9428,-0.8033,-0.7353,-0.6907,-0.6608,-0.6116,-0.641,0.0,0.0,0.0,0.0,0.0,0.0,0.0,0.0,0.0,0.0,0.0,0.0,0.0,0.0,0.0,0.0,0.0,0.0,0.0,0.0,0.0,0.0,0.0,0.0,0.0,0.0,0.0,0.0,0.0,0.0,0.0,0.0,0.0,0.0,0.0,0.0,0.0,-3.0376,-3.155,0.0,-3.0846,-3.1751,-3.2645,-3.3274,-3.4483,-3.5202,-3.5166,-3.5054,-3.4365,-3.3026,-3.2571,-3.2104,-3.1465,-3.1283,-3.1433,-3.1946,-3.2551,-3.3482,-3.4727,-3.4835,-3.5827,-3.7435,-3.7621,-3.8206,-3.9135,-3.9521,-3.9286,-3.8697,-3.8563,-3.8507,-3.8326,-3.7773,-3.6861,-3.5776,0.0,0.0,0.0,0.0,0.0,0.0,0.0,0.0,0.0,0.0,0.0,0.0,0.0,0.0,0.0,0.0,0.0,0.0,0.0,0.0,0.0,0.0,0.0,0.0,0.0,0.0,0.0,0.0,0.0,0.0,-1.1067,-1.1152,-1.1258,-1.1453,-1.1648,-1.1541,-1.1297,-1.0925,-1.0378,-0.9682,-0.9148,-0.9493,-1.0173,0.0,0.0,0.0,0.0,0.0,0.0,0.0,0.0,0.0,0.0,0.0,0.0,0.0,0.0,0.0,0.0,0.0,0.0,0.0,0.0,0.0,0.0,0.0,0.0,0.0,0.0,0.0,0.0,0.0,0.0,0.0,0.0,0.0,0.0,0.0,-3.1634,-3.0902,-3.2491,-3.3257,-3.2209,-3.3593,-3.4736,-3.4997,-3.6308,-3.6579,-3.5396,-3.5211,-3.4253,-3.217,-3.2161,-3.1929,-3.1396,-3.1799,-3.2331,-3.301,-3.3743,-3.4633,-3.5647,-3.5794,-3.6886,-3.8815,-3.8641,-3.9294,-4.0507,-4.0814,-4.0703,-4.0448,-4.0448,-4.0634,-4.079,-3.9982,-3.8787,-3.7234,0.0,0.0,0.0,0.0,0.0,0.0,0.0,0.0,0.0,0.0,0.0,0.0,0.0,0.0,0.0,0.0,0.0,0.0,0.0,0.0,0.0,0.0,0.0,0.0,0.0,0.0,0.0,0.0,0.0,0.0,0.0,0.0,-1.3545,-1.3593,-1.4112,-1.3607,-1.2484,-1.3511,-1.3065,-1.1628,-1.158,-1.1736,-1.195,0.0,0.0,0.0,0.0,0.0,0.0,0.0,0.0,0.0,0.0,0.0,0.0,0.0,0.0,0.0,0.0,0.0,0.0,0.0,0.0,0.0,0.0,0.0,0.0,0.0,0.0,0.0,0.0,0.0,0.0,0.0,0.0,0.0,-3.0799,-3.2092,-3.2545,-3.0874,-3.355,-3.5188,-3.4348,-3.5882,-3.6601,-3.5889,-3.6085,-3.5734,-3.4631,-3.3556,-3.3096,-3.3296,-3.2083,-3.1799,-3.2606,-3.3028,-3.345,-3.3853,-3.466,-3.5796,-3.7176,-3.5367,-3.6641,-4.0075,-3.783,-3.8161,-4.0279,-4.0294,-4.0539,-4.0882,-4.0882,-4.0882,-4.0882,-4.0882,-3.9622,-3.7308,0.0,0.0,0.0,0.0,0.0,0.0,0.0,0.0,0.0,0.0,0.0,0.0,0.0,0.0,0.0,0.0,0.0,0.0,0.0,0.0,0.0,0.0,0.0,0.0,0.0,0.0,0.0,0.0,0.0,0.0,0.0,0.0,-1.4448,-1.4652,-1.4796,-1.4783,-1.4615,-1.4914,-1.4902,-1.4507,-1.2958,-1.3006,-1.3836,0.0,0.0,0.0,0.0,0.0,0.0,0.0,0.0,0.0,0.0,0.0,0.0,0.0,0.0,0.0,0.0,0.0,0.0,0.0,0.0,0.0,0.0,0.0,0.0,0.0,0.0,0.0,0.0,0.0,0.0,0.0,-3.1696,-3.3073,-3.2691,-3.3908,-3.4818,-3.4722,-3.5523,-3.6145,-3.6205,-3.5859,-3.5918,-3.6619,-3.5897,-3.4888,-3.3658,-3.361,-3.3116,-3.2001,-3.2142,-3.2514,-3.3046,-3.345,-3.4,-3.4697,-3.4917,-3.5538,-3.6512,-3.5944,-3.7502,-4.0565,-3.9963,-4.0643,-4.2306,-4.2317,-4.1728,-4.0882,-4.0882,-4.0882,-4.079,-3.993,-3.8899,-3.7511,0.0,0.0,0.0,0.0,0.0,0.0,0.0,0.0,0.0,0.0,0.0,0.0,0.0,0.0,0.0,0.0,0.0,0.0,0.0,0.0,0.0,0.0,0.0,0.0,0.0,0.0,0.0,0.0,0.0,0.0,0.0,0.0,0.0,-1.6325,-1.6419,-1.656,-1.6734,-1.6842,-1.6983,-1.7063,-1.5846,-1.5352,-1.5248,-1.4603,-1.4062,-1.361,-1.3057,-1.2739,-1.247,-1.1711,0.0,0.0,0.0,0.0,0.0,0.0,0.0,0.0,0.0,0.0,0.0,0.0,0.0,0.0,0.0,0.0,0.0,0.0,0.0,0.0,0.0,0.0,0.0,0.0,-3.3136,-3.4307,-3.458,-3.5332,-3.5771,-3.5576,-3.5668,-3.5815,-3.5773,-3.5244,-3.5066,-3.5486,-3.4819,-3.3875,-3.2738,-3.2944,-3.28,-3.2148,-3.2606,-3.3138,-3.3707,-3.4128,-3.4642,-3.5284,-3.5449,-3.5687,-3.5978,-3.6497,-3.7951,-4.0085,-4.0249,-4.1176,-4.263,-4.2349,-4.1749,0.0,0.0,0.0,0.0,0.0,-3.8005,-3.7125,0.0,0.0,0.0,0.0,0.0,0.0,0.0,0.0,0.0,0.0,0.0,0.0,0.0,0.0,0.0,0.0,0.0,0.0,0.0,0.0,0.0,0.0,0.0,0.0,0.0,0.0,0.0,0.0,0.0,0.0,0.0,0.0,0.0,0.0,-1.8365,-1.8457,-1.855,-1.875,-1.8918,-1.9085,-1.9088,-1.8055,-1.655,-1.6772,-1.6635,-1.6225,-1.4997,-1.4562,-1.431,-1.3113,0.0,0.0,0.0,0.0,0.0,0.0,0.0,0.0,0.0,0.0,0.0,0.0,0.0,0.0,0.0,0.0,0.0,0.0,0.0,0.0,0.0,0.0,0.0,0.0,-3.4362,-3.5511,-3.6073,-3.6182,-3.5853,-3.4891,-3.4915,-3.4797,-3.4327,-3.4424,-3.4207,-3.3544,-3.333,-3.2886,-3.2122,0.0,0.0,0.0,0.0,-3.3711,-3.4461,-3.4882,-3.5194,-3.5541,-3.5888,-3.5903,-3.5605,-3.6664,-3.7878,-3.9129,-3.9478,-4.0525,-4.2032,-4.1372,-4.1306,-4.1534,-4.1121,-4.0956,-4.074,-3.8487,-3.7385,-3.6794,0.0,0.0,0.0,0.0,0.0,0.0,0.0,0.0,0.0,0.0,0.0,0.0,0.0,0.0,0.0,0.0,0.0,0.0,0.0,0.0,0.0,0.0,0.0,0.0,0.0,0.0,0.0,0.0,0.0,0.0,0.0,0.0,0.0,0.0,-1.8861,-1.8892,-1.9224,-1.9076,-1.9039,-1.9072,-1.9004,-1.8705,-1.8373,-1.8421,-1.8003,-1.7303,-1.7032,-1.6949,-1.6864,-1.597,-1.5655,-1.5647,-1.5647,0.0,0.0,0.0,0.0,0.0,0.0,0.0,0.0,0.0,0.0,0.0,0.0,0.0,0.0,0.0,0.0,0.0,0.0,0.0,0.0,-3.1661,-3.3476,-3.4845,-3.5354,-3.5398,-3.5702,-3.643,-3.528,-3.488,-3.6,-3.4691,-3.3793,-3.3892,-3.2895,-3.2319,-3.2459,-3.2808,-3.3211,-3.3688,-3.433,-3.4755,-3.4866,-3.5264,-3.535,-3.5124,0.0,0.0,-3.5157,-3.5381,-3.683,-3.9057,-3.9149,-4.0453,-4.2571,-4.2449,-4.2053,-4.1588,-4.1506,-4.1465,-4.1318,-4.0187,-3.9739,-3.9382,0.0,0.0,0.0,0.0,0.0,0.0,0.0,0.0,0.0,0.0,0.0,0.0,0.0,0.0,0.0,0.0,0.0,0.0,0.0,0.0,0.0,0.0,0.0,0.0,0.0,0.0,0.0,0.0,0.0,0.0,0.0,0.0,0.0,0.0,0.0,-2.083,-2.1344,-2.1009,-2.1186,-2.1628,-2.1737,-2.1329,-2.0459,-1.9287,-1.8586,-1.8208,-1.8096,-1.7941,-1.7784,-1.727,-1.7247,-1.7416,-1.7416,-1.7402,-1.7583,0.0,0.0,0.0,0.0,0.0,0.0,0.0,0.0,0.0,0.0,0.0,0.0,0.0,0.0,-2.5536,-2.7852,0.0,-3.048,-3.2665,-3.3784,-3.4588,-3.5111,-3.462,-3.4538,-3.541,-3.4901,-3.4364,-3.4227,-3.3624,-3.3193,-3.3036,-3.2561,-3.2503,-3.2902,-3.3052,-3.3472,-3.4108,-3.445,-3.4773,-3.502,-3.5217,-3.5231,-3.5007,-3.5007,-3.4857,-3.4724,-3.5306,-3.6553,-3.8297,-3.9096,-4.0521,-4.2186,-4.2429,-4.2373,-4.2228,-4.1852,-4.1444,-4.0967,-4.0818,-4.0464,-3.9994,0.0,0.0,0.0,0.0,0.0,0.0,0.0,0.0,0.0,0.0,0.0,0.0,0.0,0.0,0.0,0.0,0.0,0.0,0.0,0.0,0.0,0.0,0.0,0.0,0.0,0.0,0.0,0.0,0.0,0.0,0.0,0.0,0.0,0.0,0.0,-2.2852,-2.3486,-2.312,-2.3415,-2.4148,-2.444,-2.3859,-2.2536,-2.0318,-1.9372,-1.9126,-1.8987,-1.8808,-1.8604,-1.8437,-1.868,-1.9112,-1.9112,-1.9319,-1.9681,-2.0455,-2.0586,0.0,0.0,0.0,0.0,0.0,0.0,0.0,0.0,0.0,-2.5403,-2.5386,-2.5453,-2.6451,-2.9585,-3.0159,-3.104,-3.3861,-3.4211,-3.4359,-3.5013,-3.4199,-3.374,-3.4345,-3.4634,-3.4165,-3.2614,-3.3072,-3.3048,-3.2089,-3.2405,-3.2816,-3.3193,-3.3372,-3.375,-3.4404,-3.451,-3.4613,-3.4857,-3.4857,-3.4857,-3.4782,-3.4782,-3.4574,-3.429,-3.5324,-3.6237,-3.7294,-3.9199,-4.0713,-4.175,-4.2201,-4.2528,-4.2645,-4.2096,-4.1337,-4.0627,-4.1023,-4.0722,-4.0137,0.0,0.0,0.0,0.0,0.0,0.0,0.0,0.0,0.0,0.0,0.0,0.0,0.0,0.0,0.0,0.0,0.0,0.0,0.0,0.0,0.0,0.0,0.0,0.0,0.0,0.0,0.0,0.0,0.0,0.0,0.0,0.0,0.0,0.0,0.0,0.0,-2.4174,-2.4039,-2.4006,-2.4121,-2.4167,-2.4212,-2.4194,-2.2687,-2.1429,-2.0494,-2.0451,-2.0612,-2.0859,-2.0816,-2.0858,-2.0901,-2.0901,-2.0559,-2.0344,-2.1556,0.0,-2.2127,-2.3287,-2.449,-2.5491,-2.5933,-2.6226,-2.6376,0.0,0.0,-2.6793,-2.6717,-2.6977,-2.7758,-2.9632,-2.9925,-3.0704,-3.3145,-3.3522,-3.3834,-3.4727,-3.4693,-3.4902,-3.579,-3.5643,-3.5328,-3.5055,-3.5007,-3.4154,-3.2212,-3.2485,-3.2825,-3.3269,-3.3944,-3.4297,-3.4439,-3.4759,-3.4747,-3.4441,-3.4441,-3.429,-3.3912,-3.3912,-3.3912,-3.3837,-3.3988,-3.49,-3.6543,-3.9602,-4.1414,-4.2228,-4.2739,-4.254,-4.1925,-4.2196,-4.1868,-4.1113,-4.119,-4.1113,-4.1035,0.0,0.0,0.0,0.0,0.0,0.0,0.0,0.0,0.0,0.0,0.0,0.0,0.0,0.0,0.0,0.0,0.0,0.0,0.0,0.0,0.0,0.0,0.0,0.0,0.0,0.0,0.0,0.0,0.0,0.0,0.0,0.0,0.0,0.0,0.0,0.0,-2.4851,-2.4554,-2.4813,-2.548,-2.5714,-2.5205,-2.4263,-2.3736,-2.2466,-2.1013,-2.1013,-2.1195,0.0,0.0,-2.166,-2.2214,-2.1816,-2.1744,-2.2029,-2.2877,-2.3175,0.0,-2.4676,-2.5582,-2.6254,-2.6336,-2.6545,-2.6661,-2.6661,-2.6856,-2.7073,-2.7013,-2.7134,-2.7822,-2.9589,-2.9804,-3.0344,0.0,-3.2654,-3.2821,-3.2981,-3.3371,-3.395,-3.4732,-3.5321,-3.5448,-3.4693,-3.4489,-3.3818,-3.2505,-3.3038,-3.3409,-3.3561,-3.3895,-3.4027,-3.403,-3.4186,-3.4197,-3.4064,-3.4064,-3.3988,-3.3761,-3.4059,-3.4162,-3.4162,-3.4402,-3.568,-3.7752,-3.9299,-4.0835,-4.2337,-4.2309,-4.2236,-4.2159,-4.185,-4.1618,-4.156,-4.156,-4.1405,-4.1172,0.0,0.0,0.0,0.0,0.0,0.0,0.0,0.0,0.0,0.0,0.0,0.0,0.0,0.0,0.0,0.0,0.0,0.0,0.0,0.0,0.0,0.0,0.0,0.0,0.0,0.0,0.0,0.0,0.0,0.0,0.0,0.0,0.0,0.0,0.0,0.0,-2.543,-2.5218,-2.5577,-2.62,-2.6473,-2.5644,-2.4261,-2.3829,-2.2741,-2.1391,-2.1156,-2.1365,0.0,0.0,-2.223,-2.3175,-2.274,-2.2972,-2.3505,-2.39,-2.4135,-2.4414,-2.5451,-2.6105,-2.6563,-2.6626,-2.6852,-2.7002,-2.6704,-2.6747,-2.683,-2.683,-2.6915,-2.7453,-2.9104,-2.9489,-3.0094,-3.1614,-3.1999,-3.2131,-3.2036,-3.266,-3.332,-3.4054,-3.4575,-3.4671,-3.4218,-3.4158,-3.376,-3.2738,-3.3281,-3.3643,-3.3683,-3.373,-3.377,-3.3837,-3.3761,-3.3761,-3.3761,-3.3761,-3.3736,-3.361,-3.3881,-3.3973,-3.3842,-3.4228,-3.587,-3.8387,-3.8617,-4.0086,-4.2216,-4.1927,-4.1927,-4.2005,-4.1405,-4.1405,-4.1618,-4.1618,-4.1483,-4.1191,0.0,0.0,0.0,0.0,0.0,0.0,0.0,0.0,0.0,0.0,0.0,0.0,0.0,0.0,0.0,0.0,0.0,0.0,0.0,0.0,0.0,0.0,0.0,0.0,0.0,0.0,0.0,0.0,0.0,0.0,0.0,0.0,0.0,0.0,0.0,0.0,-2.5713,-2.6172,-2.6113,-2.5742,-2.5526,-2.5157,-2.4557,-2.2756,-2.2049,-2.1897,-2.1007,0.0,0.0,0.0,-2.2853,-2.3865,-2.3865,-2.4152,0.0,-2.4392,-2.4639,0.0,0.0,0.0,-2.6991,-2.7073,-2.7263,-2.7383,-2.7116,-2.6571,-2.6128,-2.6128,-2.6426,-2.6906,-2.7939,-2.895,-3.0091,-3.1458,-3.174,-3.198,-3.2792,-3.3199,-3.3765,-3.4664,-3.3443,-3.2982,0.0,-3.4952,-3.4612,-3.2857,-3.3089,-3.3329,-3.3346,-3.3614,-3.382,-3.3761,-3.3761,-3.3761,-3.3761,-3.3761,-3.3551,-3.3133,-3.3133,-3.2846,-3.2396,-3.2761,-3.4588,-3.7433,-3.7794,-3.9415,-4.185,-4.1773,-4.154,-4.125,-4.1172,-4.1172,-4.125,-4.125,-4.1172,-4.123,0.0,0.0,0.0,0.0,0.0,0.0,0.0,0.0,0.0,0.0,0.0,0.0,0.0,0.0,0.0,0.0,0.0,0.0,0.0,0.0,0.0,0.0,0.0,0.0,0.0,0.0,0.0,0.0,0.0,0.0,0.0,0.0,0.0,0.0,0.0,0.0,-2.5693,-2.5898,-2.6191,-2.6481,-2.54,-2.4799,-2.428,-2.2601,-2.1651,-2.1113,0.0,0.0,0.0,0.0,0.0,0.0,-2.249,0.0,0.0,-2.4514,0.0,0.0,0.0,0.0,-2.6979,-2.6537,-2.6493,-2.6432,-2.59,-2.5789,-2.5764,-2.5764,-2.6038,-2.6579,-2.7508,-2.7838,-2.8271,-2.9084,-2.9316,-2.9429,-2.9682,-3.0255,-3.0845,-3.1351,-3.1868,0.0,0.0,0.0,0.0,-3.3066,-3.3426,-3.3648,-3.3648,-3.3768,-3.3534,-3.2985,-3.2985,-3.2757,-3.2239,-3.2374,-3.2382,-3.2262,-3.276,-3.313,-3.3363,-3.2912,-3.449,-3.7668,-3.7474,-3.8901,-4.1425,-4.17,-4.1582,-4.1172,-4.1172,-4.0997,-4.0763,-4.0763,-4.0607,-4.0391,0.0,0.0,0.0,0.0,0.0,0.0,0.0,0.0,0.0,0.0,0.0,0.0,0.0,0.0,0.0,0.0,0.0,0.0,0.0,0.0,0.0,0.0,0.0,0.0,0.0,0.0,0.0,0.0,0.0,0.0,0.0,0.0,0.0,0.0,0.0,-2.5226,-2.5245,-2.5557,-2.5957,-2.6229,-2.5226,-2.4582,-2.4036,-2.2405,-2.1488,0.0,0.0,0.0,0.0,0.0,0.0,0.0,0.0,0.0,0.0,0.0,0.0,0.0,0.0,-2.6789,-2.7139,-2.6449,-2.6364,-2.6277,-2.5593,-2.5471,-2.5438,-2.5438,-2.5704,-2.6149,-2.6842,-2.7146,-2.74,-2.7965,-2.8096,-2.8227,-2.8481,-2.9131,-2.9701,-3.0066,-3.083,-3.1469,0.0,0.0,0.0,-3.2935,-3.302,-3.2926,-3.2926,-3.2926,-3.2681,-3.2222,-3.2146,-3.1916,-3.1395,-3.1713,-3.1763,-3.1699,-3.2158,-3.2468,-3.2716,-3.2922,-3.4545,-3.7029,-3.7435,-3.8915,-4.1168,-4.1438,-4.1303,-4.0917,-4.0917,-4.0663,-4.0275,-4.0275,-4.0137,-3.9902,0.0,0.0,0.0,0.0,0.0,0.0,0.0,0.0,0.0,0.0,0.0,0.0,0.0,0.0,0.0,0.0,0.0,0.0,0.0,0.0,0.0,0.0,0.0,0.0,0.0,0.0,0.0,0.0,0.0,0.0,0.0,0.0,0.0,0.0,-2.4414,-2.4434,-2.4512,-2.5304,-2.5488,-2.5148,-2.4858,-2.4532,-2.3904,-2.2105,0.0,0.0,0.0,0.0,0.0,0.0,0.0,0.0,0.0,0.0,0.0,0.0,0.0,-2.6128,-2.6128,-2.6823,-2.7356,-2.6736,-2.6766,-2.6855,-2.6136,-2.551,-2.5024,-2.5089,-2.5347,-2.5616,0.0,0.0,-2.7336,-2.7947,-2.8057,-2.8309,-2.9019,-2.9681,-3.0233,0.0,0.0,0.0,0.0,0.0,0.0,-3.2359,0.0,-3.1395,-3.1395,-3.1395,-3.1395,-3.1318,-3.1318,-3.1318,-3.1334,-3.1589,-3.1635,-3.1523,-3.1327,-3.1046,-3.0651,-3.2729,-3.4461,-3.579,-3.7591,-3.9441,-4.109,-4.1109,-4.0863,-4.0546,-4.0527,-4.03,-3.9959,-3.9842,-3.9842,-3.9861,0.0,0.0,0.0,0.0,0.0,0.0,0.0,0.0,0.0,0.0,0.0,0.0,0.0,0.0,0.0,0.0,0.0,0.0,0.0,0.0,0.0,0.0,0.0,0.0,0.0,0.0,0.0,0.0,0.0,0.0,0.0,0.0,0.0,0.0,-2.4414,-2.459,-2.4922,-2.5137,-2.5547,-2.5937,0.0,-2.444,-2.4372,0.0,0.0,0.0,0.0,0.0,0.0,0.0,0.0,0.0,0.0,-2.3821,-2.4528,0.0,0.0,-2.6205,-2.6692,-2.684,-2.6674,-2.6004,-2.5707,-2.5445,-2.4784,-2.4458,-2.4371,-2.4635,-2.4742,-2.4879,-2.5487,-2.5754,-2.6044,-2.6761,-2.708,0.0,-2.8134,-2.8581,0.0,-2.9344,0.0,-3.0206,-3.0438,-3.0206,0.0,0.0,-3.1148,-3.1395,-3.1395,-3.1395,-3.1071,-3.0438,-3.0438,-3.0251,-2.9882,-3.045,-3.0714,-3.0549,-3.0458,-3.0408,-3.0212,-3.0938,-3.2935,-3.5807,-3.6878,-3.8764,-4.1109,-4.1411,-4.1298,-4.0882,-4.0641,-4.04,-4.0272,-3.9655,-3.9379,-3.9363,0.0,0.0,0.0,0.0,0.0,0.0,0.0,0.0,0.0,0.0,0.0,0.0,0.0,0.0,0.0,0.0,0.0,0.0,0.0,0.0,0.0,0.0,0.0,0.0,0.0,0.0,0.0,0.0,0.0,0.0,0.0,0.0,0.0,-2.3687,-2.3803,-2.4102,-2.4512,0.0,0.0,0.0,0.0,0.0,0.0,0.0,0.0,0.0,0.0,0.0,0.0,0.0,0.0,-2.2881,-2.3368,-2.3896,-2.4356,-2.4951,0.0,-2.5839,-2.6449,-2.6525,-2.6293,-2.5913,-2.5652,-2.5287,-2.4496,-2.4242,-2.4281,-2.4477,-2.445,-2.4666,-2.5456,-2.5598,-2.5898,0.0,0.0,0.0,-2.802,-2.8432,-2.8695,0.0,-2.9275,0.0,-2.9586,-2.9586,-2.9586,0.0,-3.0067,-3.0299,-3.0299,-3.0299,-3.0067,-2.9586,-2.9586,-2.9512,-2.9348,-2.9856,-3.0015,-2.9914,-3.0056,-2.9959,-2.9716,-3.0852,-3.284,-3.5531,0.0,-3.8653,-4.0883,-4.1107,-4.0957,-4.0565,-4.0322,-4.0216,-4.0184,-3.9536,-3.9203,-3.9171,0.0,0.0,0.0,0.0,0.0,0.0,0.0,0.0,0.0,0.0,0.0,0.0,0.0,0.0,0.0,0.0,0.0,0.0,0.0,0.0,0.0,0.0,0.0,0.0,0.0,0.0,0.0,0.0,0.0,0.0,0.0,0.0,0.0,0.0,0.0,0.0,0.0,0.0,0.0,0.0,0.0,0.0,0.0,0.0,0.0,0.0,0.0,0.0,0.0,0.0,-2.2384,-2.2956,-2.3419,-2.3769,-2.4102,-2.4468,-2.4833,-2.5226,-2.5839,-2.5939,-2.5865,-2.5865,-2.5863,-2.5569,-2.4641,-2.4399,-2.4377,-2.4371,-2.4344,-2.4609,-2.5559,-2.5836,-2.621,-2.7074,0.0,-2.7897,-2.8216,-2.8569,-2.873,-2.8808,-2.8808,-2.8808,-2.8808,-2.8808,-2.8808,-2.873,-2.873,-2.8808,-2.8886,-2.8886,-2.8886,-2.8808,-2.8851,-2.8906,-2.9067,-2.9396,-2.9434,-2.9286,-2.9593,-2.9577,-2.9166,-3.1349,-3.3267,-3.4997,-3.6845,-3.8764,-4.0382,-4.0382,-4.018,-3.9913,-3.9858,-3.9877,-3.9877,-3.9318,-3.919,-3.9171,0.0,0.0,0.0,0.0,0.0,0.0,0.0,0.0,0.0,0.0,0.0,0.0,0.0,0.0,0.0,0.0,0.0,0.0,0.0,0.0,0.0,0.0,0.0,0.0,0.0,0.0,0.0,0.0,0.0,0.0,0.0,0.0,0.0,0.0,0.0,0.0,0.0,0.0,0.0,0.0,0.0,0.0,0.0,0.0,0.0,0.0,0.0,0.0,0.0,0.0,-2.1915,-2.2405,-2.3263,-2.371,-2.4043,-2.4408,-2.4756,-2.5103,-2.5226,-2.5093,-2.4886,-2.4886,-2.4615,-2.4309,-2.4109,-2.3837,0.0,-2.4022,-2.3969,-2.4174,-2.5103,-2.5538,-2.6054,-2.6873,-2.7192,-2.7445,-2.7678,-2.7762,-2.7947,0.0,-2.8431,-2.8431,-2.8431,-2.8431,0.0,0.0,-2.7869,-2.8104,-2.8886,-2.8886,-2.8744,-2.8431,-2.8691,-2.8639,-2.8259,-2.8649,-2.8588,-2.8167,-2.8551,-2.8439,-2.8036,-3.0408,-3.2456,-3.4263,-3.6342,0.0,-4.0024,-4.0024,-3.9987,-3.9895,-3.9465,-3.9538,-3.984,-3.9025,-3.8871,-3.9171,0.0,0.0,0.0,0.0,0.0,0.0,0.0,0.0,0.0,0.0,0.0,0.0,0.0,0.0,0.0,0.0,0.0,0.0,0.0,0.0,0.0,0.0,0.0,0.0,0.0,0.0,0.0,0.0,0.0,0.0,0.0,0.0,0.0,0.0,0.0,0.0,0.0,0.0,0.0,0.0,0.0,0.0,0.0,0.0,0.0,0.0,0.0,0.0,0.0,0.0,-2.1231,-2.1561,-2.2471,-2.3104,-2.3495,-2.3366,-2.3658,-2.4115,-2.4487,-2.4234,-2.3921,-2.4239,-2.4021,-2.349,-2.2539,0.0,0.0,-2.2631,-2.3166,-2.4013,-2.475,-2.5459,-2.606,-2.6484,-2.7001,-2.7409,-2.7395,-2.7535,-2.7712,-2.7883,-2.7961,-2.7961,-2.7961,-2.7961,-2.7883,-2.7633,-2.7633,-2.779,-2.8182,-2.8261,-2.8182,-2.7961,-2.8259,-2.8189,-2.779,-2.8094,-2.8002,-2.7595,-2.7892,-2.7958,-2.7792,-2.9969,-3.2085,-3.4071,-3.6023,-3.7854,-3.952,-3.952,-3.952,-3.9502,-3.9318,-3.9483,-3.9858,-3.9171,-3.9061,-3.9171,0.0,0.0,0.0,0.0,0.0,0.0,0.0,0.0,0.0,0.0,0.0,0.0,0.0,0.0,0.0,0.0,0.0,0.0,0.0,0.0,0.0,0.0,0.0,0.0,0.0,0.0,0.0,0.0,0.0,0.0,0.0,0.0,0.0,0.0,0.0,0.0,0.0,0.0,0.0,0.0,0.0,0.0,0.0,0.0,0.0,0.0,0.0,0.0,0.0,0.0,-2.0486,-2.0673,-2.1563,-2.2285,-2.2796,-2.2405,-2.2664,-2.3168,-2.3666,-2.3422,-2.3105,-2.3549,-2.3407,-2.2777,-2.1011,-2.1713,0.0,-2.1245,-2.2216,-2.3556,-2.4229,-2.5173,-2.5742,0.0,-2.6434,-2.6992,-2.6813,-2.707,-2.7328,-2.7476,-2.7476,0.0,-2.7476,-2.7476,0.0,-2.7319,-2.7319,-2.7398,-2.7555,-2.7633,-2.7647,-2.7476,-2.7713,-2.7693,-2.7307,-2.7459,-2.7405,-2.7081,-2.7442,-2.7519,-2.7533,-3.0116,-3.2069,-3.3711,-3.5967,-3.771,0.0,-3.9018,-3.9098,-3.9098,-3.9098,-3.93,-3.9619,-3.961,-3.9579,-3.9603,0.0,0.0,0.0,0.0,0.0,0.0,0.0,0.0,0.0,0.0,0.0,0.0,0.0,0.0,0.0,0.0,0.0,0.0,0.0,0.0,0.0,0.0,0.0,0.0,0.0,0.0,0.0,0.0,0.0,0.0,0.0,0.0,0.0,0.0,0.0,0.0,0.0,0.0,0.0,0.0,0.0,0.0,0.0,0.0,0.0,0.0,0.0,0.0,0.0,0.0,0.0,-1.9979,-2.0651,-2.1522,-2.2301,-2.2486,0.0,0.0,-2.2793,-2.2697,-2.2586,-2.2335,-2.2285,-2.1892,-2.0617,0.0,-2.0556,-2.0605,-2.1205,-2.21,-2.3443,-2.4197,-2.4592,-2.447,0.0,-2.5293,-2.553,-2.5894,-2.6405,-2.6991,0.0,0.0,-2.7032,-2.7032,-2.686,-2.6544,-2.6544,-2.686,-2.7555,-2.7633,-2.7398,-2.711,-2.7045,-2.6915,-2.6506,-2.6532,-2.6546,-2.648,-2.7041,-2.7144,-2.6843,-3.0824,-3.2525,-3.2458,-3.6241,-3.7978,0.0,-3.8536,-3.8695,-3.8695,-3.8695,-3.8713,-3.8909,-4.0411,-4.0938,-4.1152,0.0,0.0,0.0,0.0,0.0,0.0,0.0,0.0,0.0,0.0,0.0,0.0,0.0,0.0,0.0,0.0,0.0,0.0,0.0,0.0,0.0,0.0,0.0,0.0,0.0,0.0,0.0,0.0,0.0,0.0,0.0,0.0,0.0,0.0,0.0,0.0,0.0,0.0,0.0,0.0,0.0,0.0,0.0,0.0,0.0,0.0,0.0,0.0,0.0,0.0,0.0,0.0,-2.0341,-2.1002,0.0,0.0,-2.2213,-2.248,-2.2355,-2.2167,-2.1978,-2.1866,-2.1783,-2.1422,-1.9983,0.0,-2.0227,-2.0157,-2.0662,-2.1583,-2.298,-2.3712,-2.4072,-2.3782,0.0,0.0,-2.4508,-2.4869,-2.5752,-2.7325,-2.765,0.0,0.0,0.0,-2.7633,-2.6465,-2.6386,-2.6544,-2.686,-2.686,-2.6781,-2.6623,-2.6623,-2.6544,-2.6386,-2.6386,-2.6386,-2.64,-2.6987,-2.7023,-2.6721,-3.0892,-3.251,-3.233,-3.627,-3.8004,0.0,-3.8402,-3.856,-3.8719,-3.9726,-4.0099,-4.0334,-4.1925,-4.2519,-4.2673,0.0,0.0,0.0,0.0,0.0,0.0,0.0,0.0,0.0,0.0,0.0,0.0,0.0,0.0,0.0,0.0,0.0,0.0,0.0,0.0,0.0,0.0,0.0,0.0,0.0,0.0,0.0,0.0,0.0,0.0,0.0,0.0,-2.4116,-2.4445,0.0,0.0,0.0,0.0,0.0,0.0,0.0,0.0,0.0,0.0,0.0,0.0,0.0,0.0,0.0,0.0,0.0,0.0,0.0,0.0,0.0,0.0,-2.1804,-2.2104,-2.1978,-2.1803,-2.1614,-2.1488,-2.1397,-2.0929,0.0,0.0,-1.9746,-1.9851,-2.0387,-2.1149,-2.2543,-2.3277,-2.3455,0.0,0.0,-2.3846,-2.3732,-2.4201,-2.5101,-2.6619,0.0,-2.7529,0.0,-2.8798,-2.8388,-2.724,-2.6702,-2.6386,-2.6386,-2.6386,-2.6386,-2.6386,-2.6227,-2.6148,-2.6228,-2.5977,-2.5977,-2.6241,-2.6664,-2.6695,-2.6557,-3.0563,-3.218,-3.1918,-3.5867,-3.7685,0.0,-3.8243,-3.8798,-3.949,-4.0646,-4.1404,-4.2002,-4.3642,-4.4172,-4.4247,0.0,0.0,0.0,0.0,0.0,0.0,0.0,0.0,0.0,0.0,0.0,0.0,0.0,0.0,0.0,0.0,0.0,0.0,0.0,0.0,0.0,0.0,0.0,0.0,0.0,0.0,0.0,0.0,0.0,0.0,0.0,0.0,0.0,0.0,0.0,0.0,0.0,0.0,0.0,0.0,0.0,0.0,0.0,0.0,0.0,0.0,0.0,0.0,0.0,0.0,0.0,0.0,0.0,0.0,0.0,0.0,-2.1617,-2.2041,-2.1677,-2.1614,-2.1551,-2.1172,-2.0869,-2.0374,0.0,-1.8977,-1.8914,-1.9746,-2.0172,-2.0799,-2.2178,-2.267,-2.2781,-2.2408,-2.2644,0.0,-2.3303,-2.387,-2.4278,0.0,0.0,-2.553,-2.7591,-2.8511,-2.8856,-2.8856,-2.7319,0.0,-2.6386,-2.6386,-2.6386,-2.6386,-2.5792,-2.5544,-2.5832,-2.5073,-2.5073,-2.5832,-2.5933,-2.5969,-2.6051,-2.9739,-3.1173,-3.1008,-3.4994,-3.6965,0.0,-3.7845,-3.9235,-4.1113,-4.1094,-4.2079,-4.3642,-4.5319,-4.5862,-4.6085,0.0,0.0,0.0,0.0,0.0,0.0,0.0,0.0,0.0,0.0,0.0,0.0,0.0,0.0,0.0,0.0,0.0,0.0,0.0,0.0,0.0,0.0,0.0,0.0,0.0,0.0,0.0,0.0,0.0,0.0,0.0,0.0,0.0,0.0,0.0,0.0,0.0,0.0,0.0,0.0,0.0,0.0,0.0,0.0,0.0,0.0,0.0,0.0,0.0,0.0,0.0,0.0,0.0,0.0,0.0,0.0,0.0,0.0,-2.0803,-2.0729,-2.0552,-2.0425,-2.0361,-2.0195,-1.9846,-1.9193,-1.9049,-2.0462,-2.0327,-2.0493,-2.2054,-2.2422,-2.2483,-2.2334,-2.2408,0.0,0.0,0.0,0.0,-2.747,-2.9549,-3.1201,0.0,0.0,-3.0531,-3.0531,-2.8997,-2.7997,-2.7684,-2.661,-2.599,-2.599,-2.5636,-2.5387,-2.5289,-2.523,-2.523,-2.5289,-2.5889,-2.5929,-2.564,-2.9428,-3.0966,-3.1008,-3.4994,-3.6965,0.0,-3.7845,-3.9235,-4.1171,-4.2289,-4.3739,-4.5319,-4.7016,-4.7626,-4.7699,0.0,0.0,0.0,0.0,0.0,0.0,0.0,0.0,0.0,0.0,0.0,0.0,0.0,0.0,0.0,0.0,0.0,0.0,0.0,0.0,0.0,0.0,0.0,0.0,0.0,0.0,0.0,0.0,0.0,0.0,0.0,0.0,0.0,0.0,0.0,0.0,0.0,0.0,0.0,0.0,0.0,0.0,-2.4578,0.0,0.0,0.0,0.0,0.0,0.0,0.0,0.0,0.0,0.0,0.0,0.0,0.0,0.0,0.0,0.0,-2.0207,-2.0106,-2.0106,-1.9979,0.0,0.0,-1.9543,-1.9511,-2.0692,-2.0615,-2.0633,-2.1811,-2.1969,-2.1969,-2.181,-2.1968,0.0,0.0,0.0,0.0,-2.8699,0.0,0.0,0.0,-3.2268,-3.1825,-3.1825,-3.0311,-2.886,-2.786,-2.6868,-2.5883,-2.5035,-2.4868,-2.4712,-2.4576,-2.4556,-2.4906,-2.5662,-2.6134,-2.6705,-2.7323,-3.0307,-3.1777,-3.1918,-3.5075,0.0,0.0,-3.7685,-3.9453,-4.2079,-4.3131,-4.487,-4.6994,-4.8013,-4.84,-4.84,0.0,0.0,0.0,0.0,0.0,0.0,0.0,0.0,0.0,0.0,0.0,0.0,0.0,0.0,0.0,0.0,0.0,0.0,0.0,0.0,0.0,0.0,0.0,0.0,0.0,0.0,0.0,0.0,0.0,0.0,0.0,0.0,0.0,0.0,0.0,0.0,0.0,0.0,0.0,0.0,0.0,0.0,0.0,0.0,0.0,0.0,0.0,0.0,0.0,0.0,0.0,0.0,0.0,0.0,0.0,0.0,0.0,0.0,0.0,0.0,0.0,0.0,0.0,0.0,0.0,-1.9952,0.0,-2.0557,-2.0871,-2.1148,-2.1426,-2.1474,-2.133,-2.0945,-2.14,0.0,0.0,-2.4918,0.0,0.0,-3.0542,0.0,-3.1714,-3.236,-3.2745,-3.2745,-3.117,-2.9464,-2.7589,-2.7363,-2.6288,-2.4009,-2.3932,-2.3868,-2.3661,-2.343,-2.4392,-2.6525,-2.6797,-2.8099,-3.0325,-3.2056,-3.3063,0.0,-3.5335,0.0,0.0,-3.7508,-3.9964,-4.3491,-4.3642,-4.5617,-4.8331,-4.8377,-4.8354,-4.8286,0.0,0.0,0.0,0.0,0.0,0.0,0.0,0.0,0.0,0.0,0.0,0.0,0.0,0.0,0.0,0.0,0.0,0.0,0.0,0.0,0.0,0.0,0.0,0.0,0.0,0.0,0.0,0.0,0.0,0.0,0.0,0.0,0.0,0.0,0.0,0.0,0.0,0.0,0.0,0.0,0.0,0.0,0.0,0.0,0.0,0.0,-2.1587,-2.1122,0.0,0.0,0.0,0.0,0.0,0.0,0.0,0.0,-1.778,0.0,0.0,0.0,0.0,0.0,0.0,0.0,0.0,-1.9754,-2.0038,-2.0557,-2.0871,-2.1065,-2.1054,-2.1029,-2.0885,-2.0512,0.0,-2.1983,-2.3417,0.0,0.0,-3.2377,-3.3517,-3.3947,-3.3358,-3.3983,-3.4433,-3.4433,-3.2655,-3.1228,-3.0415,-2.8926,-2.7534,-2.6467,-2.6453,-2.5451,-2.3275,-2.4713,-2.5702,-2.6074,-2.7926,-2.9056,-2.9521,-3.1618,-3.2778,-3.3128,0.0,0.0,-3.7508,-3.9059,-4.121,-4.3642,-4.487,-4.6308,-4.7872,-4.824,-4.7895,-4.7275,0.0,0.0,0.0,0.0,0.0,0.0,0.0,0.0,0.0,0.0,0.0,0.0,0.0,0.0,0.0,0.0,0.0,0.0,0.0,0.0,0.0,0.0,0.0,0.0,0.0,0.0,0.0,0.0,0.0,0.0,0.0,0.0,0.0,0.0,0.0,0.0,0.0,0.0,0.0,0.0,-2.7908,0.0,0.0,0.0,0.0,0.0,-2.2215,-2.1734,0.0,-2.0185,-1.9125,-1.8262,0.0,0.0,0.0,0.0,-1.7469,0.0,0.0,0.0,0.0,-1.9012,-1.8956,-1.8952,-1.9149,0.0,-1.9519,-1.992,-2.0203,-2.0427,-2.0355,-2.1005,-2.1147,-1.9881,-2.1808,0.0,0.0,0.0,-2.9857,-3.2105,-3.2685,-3.3162,0.0,-3.4207,-3.4406,-3.4193,-3.3233,-3.2052,-3.0752,-2.9571,-2.838,-2.7174,-2.7086,-2.6362,-2.4838,-2.6087,-2.714,-2.8002,-2.9396,-3.0593,-3.1621,-3.2846,-3.3631,0.0,0.0,0.0,-3.7587,-3.9591,-4.1478,-4.3351,-4.4922,-4.6296,-4.7321,-4.7597,-4.7344,-4.6908,0.0,0.0,0.0,0.0,0.0,0.0,0.0,0.0,0.0,0.0,0.0,0.0,0.0,0.0,0.0,0.0,0.0,0.0,0.0,0.0,0.0,0.0,0.0,0.0,0.0,0.0,0.0,0.0,0.0,0.0,0.0,0.0,0.0,0.0,0.0,0.0,0.0,0.0,0.0,0.0,-2.8491,0.0,0.0,0.0,0.0,0.0,0.0,0.0,0.0,-2.0987,-1.983,-1.8525,-1.8006,0.0,0.0,0.0,0.0,0.0,0.0,0.0,-1.8638,-1.8939,-1.8856,-1.8718,-1.8935,-1.8916,-1.8946,-1.9244,-1.9462,-1.975,0.0,-2.0975,0.0,0.0,0.0,0.0,-2.7292,-2.7492,-2.8269,-3.0424,-3.0786,0.0,-3.3273,-3.3572,-3.3539,-3.3191,-3.3121,-3.2263,-3.0233,-3.0091,-2.9306,-2.7635,-2.7635,-2.7635,-2.7635,-2.7658,-2.8592,-3.0373,-3.0948,-3.2314,-3.4299,-3.4368,-3.4727,-3.5423,0.0,0.0,-3.7806,-3.9871,-4.1639,-4.3192,-4.4836,-4.602,-4.677,-4.6839,-4.677,-4.6632,0.0,0.0,0.0,0.0,0.0,0.0,0.0,0.0,0.0,0.0,0.0,0.0,0.0,0.0,0.0,0.0,0.0,0.0,0.0,0.0,0.0,0.0,0.0,0.0,0.0,0.0,0.0,0.0,0.0,0.0,0.0,0.0,0.0,0.0,0.0,0.0,0.0,0.0,0.0,0.0,0.0,0.0,0.0,0.0,0.0,0.0,0.0,0.0,0.0,-2.0965,-2.0381,-1.9871,-1.8115,0.0,0.0,0.0,0.0,0.0,-1.7745,-1.7937,-1.8118,-1.8625,-1.8915,-1.9076,-1.9224,-1.9232,-1.9261,0.0,0.0,0.0,0.0,-2.0629,-2.0225,0.0,0.0,-2.6032,0.0,0.0,-3.1338,-3.1444,0.0,-3.2228,-3.1964,-3.2506,-3.2841,-3.2771,-3.2474,-3.2105,-3.1754,-3.1472,-3.1189,-3.0906,-3.0906,-3.0906,-3.0906,-2.9946,-2.9786,-3.0447,-3.2101,-3.3269,-3.3939,-3.4248,-3.4684,-3.5113,0.0,-3.7213,-3.8994,-4.1033,-4.2847,-4.4315,-4.601,-4.6468,-4.6288,-4.6724,-4.6334,-4.5668,0.0,0.0,0.0,0.0,0.0,0.0,0.0,0.0,0.0,0.0,0.0,0.0,0.0,0.0,0.0,0.0,0.0,0.0,0.0,0.0,0.0,0.0,0.0,0.0,0.0,0.0,0.0,0.0,0.0,0.0,0.0,0.0,0.0,0.0,0.0,0.0,0.0,0.0,0.0,0.0,0.0,0.0,0.0,0.0,0.0,0.0,0.0,0.0,0.0,0.0,-2.0589,-1.9869,-1.8798,0.0,0.0,0.0,0.0,0.0,-1.7576,-1.7768,-1.7974,-1.8372,-1.8536,-1.8669,-1.9006,-1.9029,-1.9036,0.0,0.0,0.0,0.0,0.0,-2.2983,-2.547,0.0,-2.5853,-2.8376,-2.8777,-2.9239,0.0,0.0,-3.1251,-3.2088,-3.2525,-3.2631,-3.2403,-3.2193,-3.2035,-3.1841,-3.17,-3.163,-3.163,-3.163,-3.163,-3.163,-3.1073,-3.0982,-3.1347,-3.2465,-3.3152,-3.3546,-3.37,-3.4551,-3.5822,0.0,-3.7744,-4.0062,-4.2157,-4.3408,-4.4195,-4.5796,-4.615,-4.5737,-4.5967,-4.5829,-4.5438,0.0,0.0,0.0,0.0,0.0,0.0,0.0,0.0,0.0,0.0,0.0,0.0,0.0,0.0,0.0,0.0,0.0,0.0,0.0,0.0,0.0,0.0,0.0,0.0,0.0,0.0,0.0,0.0,0.0,0.0,0.0,0.0,0.0,0.0,0.0,0.0,0.0,0.0,0.0,0.0,0.0,0.0,0.0,0.0,0.0,0.0,0.0,0.0,0.0,0.0,0.0,0.0,0.0,0.0,0.0,0.0,-1.7303,-1.6844,-1.7185,-1.7387,-1.7673,-1.8009,-1.8185,-1.8427,-1.8829,-1.8835,-1.8933,-1.9164,0.0,0.0,0.0,-2.327,0.0,-2.8057,-2.6861,-2.6358,-2.8514,-2.7981,-2.8045,-2.9736,-2.9909,-3.0587,-3.2246,-3.2421,-3.2351,-3.2035,-3.1965,-3.1841,-3.163,-3.163,-3.163,-3.163,-3.163,-3.163,-3.163,-3.163,-3.1748,-3.207,-3.2415,-3.2758,-3.3209,-3.3413,-3.4569,-3.6402,-3.6683,-3.8354,-4.0965,-4.2677,-4.3609,-4.4051,-4.5391,-4.5828,-4.5754,-4.6025,-4.6136,-4.6204,0.0,0.0,0.0,0.0,0.0,0.0,0.0,0.0,0.0,0.0,0.0,0.0,0.0,0.0,0.0,0.0,0.0,0.0,0.0,0.0,0.0,0.0,0.0,0.0,0.0,0.0,0.0,0.0,0.0,0.0,0.0,0.0,0.0,0.0,0.0,0.0,0.0,0.0,0.0,0.0,0.0,0.0,0.0,0.0,0.0,0.0,0.0,0.0,0.0,0.0,0.0,0.0,0.0,0.0,0.0,0.0,0.0,-1.6205,-1.6478,-1.6608,-1.6747,-1.7301,-1.8054,-1.8692,-1.8894,-1.8893,-1.9298,-2.0784,0.0,0.0,0.0,-2.4288,-2.4356,-2.4317,-2.6124,-2.8154,-3.0003,0.0,-3.1279,-3.1437,-3.1454,-3.1525,-3.163,-3.17,-3.163,-3.163,-3.163,-3.163,-3.163,-3.163,-3.163,-3.163,-3.163,-3.163,-3.163,-3.163,-3.1748,-3.2141,-3.2159,-3.2364,-3.2797,-3.3799,-3.4865,-3.6081,-3.7105,-3.9032,-4.1559,-4.213,-4.3238,-4.4615,-4.5232,-4.598,-4.6941,-4.7911,-4.8306,-4.8371,0.0,0.0,0.0,0.0,0.0,0.0,0.0,0.0,0.0,0.0,0.0,0.0,0.0,0.0,0.0,0.0,0.0,0.0,0.0,0.0,0.0,0.0,0.0,0.0,0.0,0.0,0.0,0.0,0.0,0.0,0.0,0.0,0.0,0.0,0.0,0.0,0.0,0.0,0.0,0.0,0.0,0.0,0.0,0.0,0.0,0.0,0.0,0.0,0.0,0.0,0.0,0.0,0.0,0.0,0.0,0.0,0.0,-1.7772,-1.7467,-1.8098,-1.857,-1.7625,-1.8508,-1.9681,0.0,-2.0105,-2.0394,-2.1157,-2.2445,0.0,0.0,0.0,-2.7137,-2.6136,-2.7861,-2.9593,-3.0293,-3.108,-3.163,-3.163,-3.163,-3.163,-3.163,-3.163,-3.163,-3.163,-3.2246,-3.2596,-3.2596,-3.2596,-3.3137,-3.4208,-3.3206,-3.3327,-3.4945,-3.4089,-3.3904,-3.445,-3.2843,-3.2552,-3.341,-3.3822,-3.5487,-3.8001,-3.8146,-3.9827,-4.2564,-4.2679,-4.3485,-4.4725,-4.5882,-4.7008,-4.7911,-4.8371,-4.8763,-4.9192,0.0,0.0,0.0,0.0,0.0,0.0,0.0,0.0,0.0,0.0,0.0,0.0,0.0,0.0,0.0,0.0,0.0,0.0,0.0,0.0,0.0,0.0,0.0,0.0,0.0,0.0,0.0,0.0,0.0,0.0,0.0,0.0,0.0,0.0,0.0,0.0,0.0,0.0,0.0,0.0,0.0,0.0,0.0,0.0,0.0,0.0,0.0,0.0,0.0,0.0,0.0,0.0,0.0,0.0,0.0,0.0,0.0,0.0,-1.8448,-1.89,-1.9287,-1.8631,-1.9069,-2.0059,-2.1418,-2.1388,-2.1328,-2.2438,-2.3614,-2.4613,-2.5353,0.0,0.0,0.0,-2.8908,-3.0429,-3.0429,-3.108,-3.163,-3.163,-3.1912,-3.2123,-3.2123,-3.2456,-3.2666,-3.2666,-3.3345,-3.3762,-3.3762,-3.3969,-3.4621,-3.5831,-3.4895,-3.5218,-3.6958,-3.5782,-3.5597,-3.6237,-3.4227,-3.3621,-3.4202,-3.4743,-3.6504,-3.9059,-3.9339,-4.0736,-4.2867,-4.3028,-4.3867,-4.5213,-4.6603,-4.7897,-4.9023,-4.9346,-4.99,-5.0537,0.0,0.0,0.0,0.0,0.0,0.0,0.0,0.0,0.0,0.0,0.0,0.0,0.0,0.0,0.0,0.0,0.0,0.0,0.0,0.0,0.0,0.0,0.0,0.0,0.0,0.0,0.0,0.0,0.0,0.0,0.0,0.0,0.0,0.0,0.0,0.0,0.0,0.0,0.0,0.0,0.0,0.0,0.0,0.0,0.0,0.0,0.0,0.0,0.0,0.0,0.0,0.0,0.0,0.0,0.0,0.0,-1.955,-1.9292,-1.9292,-1.8655,-1.8422,-2.0214,-1.9792,0.0,-2.3284,-2.2547,-2.1971,-2.4984,-2.4963,-2.4878,-2.6342,-2.5734,0.0,-2.6404,-2.8756,-3.0429,-3.0429,-3.108,-3.163,-3.163,-3.2596,-3.3206,-3.3206,-3.4245,-3.4865,-3.4865,-3.4933,-3.4952,-3.4952,-3.551,-3.5898,-3.5898,-3.6642,-3.7025,-3.7025,-3.6305,-3.6305,-3.7025,-3.6305,-3.5578,-3.5002,-3.6769,-3.7955,-3.875,-4.0495,-4.1701,-4.2321,-4.289,-4.4324,-4.6329,-4.7344,-4.8693,-5.027,-5.122,-5.2032,-5.2711,0.0,0.0,0.0,0.0,0.0,0.0,0.0,0.0,0.0,0.0,0.0,0.0,0.0,0.0,0.0,0.0,0.0,0.0,0.0,0.0,0.0,0.0,0.0,0.0,0.0,0.0,0.0,0.0,0.0,0.0,0.0,0.0,0.0,-3.3734,0.0,0.0,0.0,0.0,0.0,0.0,0.0,0.0,0.0,0.0,0.0,0.0,0.0,0.0,0.0,0.0,0.0,0.0,0.0,0.0,0.0,0.0,-2.073,-2.05,-1.9853,-2.1016,-2.2009,-2.0458,-2.1715,0.0,0.0,-2.3095,0.0,0.0,-2.5988,-2.6199,-2.689,-2.7567,0.0,-2.7153,-2.8709,-3.0407,-3.146,-3.1339,-3.1896,-3.3674,-3.3484,-3.3484,-3.4314,-3.4659,-3.4865,-3.4865,-3.5636,-3.6044,0.0,-3.6228,-3.6904,-3.8175,-3.7688,-3.8287,-4.0018,-3.9299,-3.9299,-4.0018,-3.9299,-3.842,-3.7534,-3.8088,-3.908,-4.0495,-4.1035,-4.1701,-4.2385,-4.3636,-4.4968,-4.6319,-4.8094,-4.9532,-5.0701,-5.1341,-5.2342,-5.3349,0.0,0.0,0.0,0.0,0.0,0.0,0.0,0.0,0.0,0.0,0.0,0.0,0.0,0.0,0.0,0.0,0.0,0.0,0.0,0.0,0.0,0.0,0.0,0.0,0.0,0.0,0.0,0.0,0.0,0.0,0.0,0.0,0.0,-3.4358,0.0,0.0,0.0,0.0,0.0,0.0,0.0,0.0,0.0,0.0,0.0,0.0,0.0,0.0,0.0,0.0,0.0,0.0,0.0,0.0,0.0,-2.2013,-2.2353,-2.2467,-2.2702,-2.3694,-2.4305,-2.3135,-2.4236,-2.556,-2.5113,0.0,0.0,0.0,-2.6568,-2.6663,-2.7638,-2.8213,0.0,-2.8097,-2.9408,-3.0737,-3.1308,-3.1901,-3.2773,-3.407,-3.4383,-3.4796,-3.548,-3.5976,-3.618,-3.618,-3.6809,0.0,0.0,-3.7394,-3.8063,-3.9144,-3.8859,-3.9386,-4.0841,-4.0192,-4.0192,-4.0841,-4.0388,-4.004,-3.9692,-3.9692,-4.0301,-4.1315,-4.1572,-4.2125,-4.2972,-4.3907,-4.5213,-4.6847,-4.8081,-4.9353,-5.0559,-5.1356,-5.2303,-5.3326,0.0,0.0,0.0,0.0,0.0,0.0,0.0,0.0,0.0,0.0,0.0,0.0,0.0,0.0,0.0,0.0,0.0,0.0,0.0,0.0,0.0,0.0,0.0,0.0,0.0,0.0,0.0,0.0,0.0,0.0,0.0,0.0,-3.494,-3.4997,0.0,-3.1852,0.0,0.0,0.0,0.0,0.0,0.0,0.0,0.0,0.0,0.0,0.0,0.0,0.0,0.0,0.0,0.0,0.0,0.0,-2.1045,-2.2967,-2.3805,-2.4599,-2.6444,-2.6155,-2.5646,-2.6987,-2.6901,-2.6574,-2.6782,-2.7082,-2.7401,-2.7518,0.0,-2.6887,-2.8747,-2.8178,-2.7932,-2.9364,-3.0561,-3.1198,-3.0903,-3.2746,-3.4015,-3.3707,-3.5344,-3.6519,-3.6654,-3.7549,-3.8191,-3.8191,0.0,0.0,-3.8191,-3.8769,-3.9078,-3.9078,-3.9735,-4.0127,-4.0127,-3.9538,-3.9604,-4.0192,-4.0257,-4.0647,-4.1315,-4.138,-4.1444,-4.155,-4.2148,-4.3012,-4.3927,-4.4051,-4.5454,-4.7577,-4.7749,-4.8627,-5.0018,-5.1262,-5.2137,-5.2842,0.0,0.0,0.0,0.0,0.0,0.0,0.0,0.0,0.0,0.0,0.0,0.0,0.0,0.0,0.0,0.0,0.0,0.0,0.0,0.0,0.0,0.0,0.0,0.0,0.0,0.0,0.0,0.0,0.0,0.0,0.0,0.0,0.0,-3.4306,0.0,-3.1996,0.0,0.0,0.0,0.0,0.0,0.0,0.0,0.0,-2.4301,0.0,0.0,0.0,0.0,0.0,0.0,0.0,-2.1242,-2.0888,-2.05,-2.1159,-2.2266,-2.3375,-2.4044,-2.5682,-2.7112,-2.6752,-2.7438,-2.8254,-2.9031,-2.9216,-2.887,-2.7405,-2.7991,-2.9215,-3.0814,-3.0257,-3.0035,-3.1497,-3.1303,-3.1744,-3.3896,-3.3974,-3.4585,-3.6844,-3.6722,-3.6856,-3.777,-3.8058,-3.8191,0.0,0.0,0.0,-3.8191,-3.8304,-3.8437,-3.8437,-3.9078,-3.9407,-3.9407,-3.9801,-4.0062,0.0,-4.0777,-4.1187,-4.1315,-4.1829,-4.2506,-4.324,-4.3428,-4.4051,-4.5037,-4.5743,-4.6421,-4.7078,-4.8792,-4.941,-4.9501,-5.1127,-5.2144,-5.2788,0.0,0.0,0.0,0.0,0.0,0.0,0.0,0.0,0.0,0.0,0.0,0.0,0.0,0.0,0.0,0.0,0.0,0.0,0.0,0.0,0.0,0.0,0.0,0.0,0.0,0.0,0.0,0.0,0.0,0.0,0.0,0.0,0.0,-3.4059,0.0,-3.2229,0.0,0.0,0.0,0.0,0.0,0.0,0.0,0.0,-2.449,-2.4873,-2.4416,0.0,0.0,0.0,0.0,0.0,0.0,0.0,-2.0256,-2.14,-2.2292,-2.3303,-2.5153,-2.6715,-2.7999,-2.8696,-2.9033,-2.9484,-3.0335,-3.0353,-3.0,-2.9558,-2.974,-3.0279,-3.1302,-3.1165,-3.1143,-3.1917,-3.2188,-3.2796,-3.4289,-3.4884,-3.5679,-3.7179,-3.7348,-3.7569,-3.8125,-3.8191,0.0,0.0,0.0,-3.8191,-3.8191,-3.8191,-3.8391,-3.8702,-3.9033,-3.9604,-4.0409,-4.0603,-4.0991,-4.1651,-4.2184,-4.2713,-4.324,-4.3075,-4.3576,-4.4546,-4.4546,-4.5098,-4.5985,-4.6465,-4.6942,-4.7527,-4.9012,-4.9377,-4.9282,-5.1065,-5.1963,-5.238,0.0,0.0,0.0,0.0,0.0,0.0,0.0,0.0,0.0,0.0,0.0,0.0,0.0,0.0,0.0,0.0,0.0,0.0,0.0,0.0,0.0,0.0,0.0,0.0,0.0,0.0,0.0,0.0,0.0,0.0,0.0,0.0,0.0,-3.3778,0.0,0.0,0.0,0.0,0.0,0.0,0.0,0.0,0.0,0.0,0.0,-2.5378,-2.5289,-2.505,-2.4825,-2.4931,0.0,0.0,0.0,0.0,-2.0141,-2.1866,-2.2614,-2.3526,-2.6498,-2.7523,-2.8384,-3.0806,-3.0756,0.0,-3.1337,-3.1131,-3.1131,-3.2187,-3.1621,-3.109,-3.1722,-3.1849,-3.1941,-3.2219,-3.3109,-3.3887,-3.4093,-3.5686,-3.6811,-3.6756,-3.7636,-3.8191,-3.8191,-3.8191,0.0,0.0,0.0,-3.8258,-3.837,-3.837,-3.8769,-3.9583,-3.9648,-4.0409,-4.197,-4.1651,-4.2074,-4.3185,-4.3583,-4.4436,-4.5525,-4.4669,-4.4792,-4.5525,-4.5525,-4.607,-4.6942,-4.6942,-4.7442,-4.8289,-4.8957,-4.9186,-4.9324,-5.1121,-5.182,-5.1986,0.0,0.0,0.0,0.0,0.0,0.0,0.0,0.0,0.0,0.0,0.0,0.0,0.0,0.0,0.0,0.0,0.0,0.0,0.0,0.0,0.0,0.0,0.0,0.0,0.0,0.0,0.0,0.0,0.0,0.0,0.0,0.0,0.0,-3.2717,0.0,0.0,0.0,0.0,0.0,0.0,0.0,0.0,0.0,0.0,0.0,-2.547,-2.5745,-2.5858,-2.5844,-2.6209,-2.4727,0.0,0.0,0.0,-1.9924,-2.0486,-2.1699,-2.3095,-2.3805,-2.5846,-2.8384,-3.0806,-3.1326,-3.1443,0.0,0.0,-3.2612,0.0,-3.2862,-3.272,-3.3691,-3.3217,-3.3012,-3.4186,-3.3738,-3.4033,-3.6085,-3.6612,-3.7071,-3.7868,-3.8125,-3.8191,-3.8191,0.0,0.0,0.0,-3.8191,-3.8437,-3.9033,-3.9078,-3.9779,-4.1354,-4.1332,-4.1906,-4.2997,-4.2934,-4.2997,-4.3185,-4.3831,-4.4964,-4.6525,-4.6345,-4.6405,-4.6525,-4.6525,-4.7087,-4.7997,-4.7997,-4.8055,-4.8289,-4.9442,-4.9556,-4.9297,-5.1155,-5.1794,-5.193,0.0,0.0,0.0,0.0,0.0,0.0,0.0,0.0,0.0,0.0,0.0,0.0,0.0,0.0,0.0,0.0,0.0,0.0,0.0,0.0,0.0,0.0,0.0,0.0,0.0,0.0,0.0,0.0,0.0,0.0,0.0,-3.2484,-3.2519,0.0,0.0,0.0,0.0,0.0,0.0,0.0,0.0,0.0,0.0,0.0,0.0,-2.6907,-2.6234,-2.6168,-2.6334,-2.6518,-2.5459,-2.3871,-2.3199,0.0,0.0,0.0,-2.1159,-2.2774,-2.4267,-2.6191,-2.8384,0.0,-3.1381,-3.1609,-3.252,-3.2669,-3.2841,-3.3466,-3.3388,-3.343,-3.4245,-3.4201,-3.424,-3.4837,-3.4958,-3.5294,-3.6287,-3.6639,-3.7053,-3.7715,-3.8026,-3.8191,-3.8191,0.0,0.0,0.0,-3.8191,-3.8325,-3.8636,-3.932,-4.0344,-4.1651,-4.2414,-4.3583,-4.5147,-4.5025,-4.5208,-4.5754,-4.62,-4.6824,-4.756,-4.756,-4.756,-4.756,-4.756,-4.7971,-4.8695,-4.8695,-4.8926,-4.927,-5.0179,-5.0348,-5.0235,-5.1403,-5.1791,-5.1905,0.0,0.0,0.0,0.0,0.0,0.0,0.0,0.0,0.0,0.0,0.0,0.0,0.0,0.0,0.0,0.0,0.0,0.0,0.0,0.0,0.0,0.0,0.0,0.0,0.0,0.0,0.0,0.0,0.0,0.0,-3.1629,-3.1629,-3.1584,0.0,-3.1163,-3.0984,0.0,0.0,0.0,0.0,0.0,0.0,0.0,0.0,0.0,0.0,0.0,-2.6728,-2.6954,-2.67,-2.5806,-2.4667,-2.376,-2.3311,0.0,0.0,0.0,-2.2862,0.0,0.0,-2.7771,-3.0567,-3.1251,-3.1498,0.0,0.0,-3.2841,0.0,-3.3353,-3.3558,-3.4155,-3.454,-3.4811,-3.4762,-3.5459,-3.6014,-3.6101,-3.6515,-3.697,-3.7446,-3.7902,-3.8191,-3.8191,0.0,0.0,0.0,-3.8503,-3.8636,-3.8437,-4.0084,-4.1396,-4.2287,-4.3669,-4.5232,-4.6968,-4.673,-4.7027,-4.7821,-4.8055,-4.8172,-4.8172,-4.8172,-4.8347,-4.8611,-4.8347,-4.8669,-4.9388,-4.9388,-4.9899,-5.0684,-5.1293,-5.154,-5.1595,-5.2193,-5.2408,-5.2516,0.0,0.0,0.0,0.0,0.0,0.0,0.0,0.0,0.0,0.0,0.0,0.0,0.0,0.0,0.0,0.0,0.0,0.0,0.0,0.0,0.0,0.0,0.0,0.0,0.0,0.0,0.0,0.0,0.0,0.0,-3.1294,-3.1294,-3.1229,-3.1029,-3.1029,-3.0871,-3.0556,0.0,0.0,0.0,0.0,0.0,0.0,0.0,0.0,0.0,0.0,0.0,-2.7975,-2.6954,-2.5806,-2.4778,-2.4723,-2.4094,-2.3424,0.0,0.0,0.0,0.0,-2.5917,0.0,-2.9978,-3.0956,-3.1236,0.0,0.0,-3.2727,-3.2727,-3.2727,-3.2955,-3.3523,-3.4019,-3.4313,-3.4167,-3.4526,-3.5168,-3.5997,-3.6515,-3.697,-3.7446,-3.7902,-3.8191,-3.8191,0.0,0.0,0.0,-3.9386,-3.9823,-3.9144,-4.1697,-4.3443,-4.4017,-4.5415,-4.661,-4.7645,-4.7645,-4.7821,-4.8172,-4.8172,-4.8172,-4.8172,-4.8172,-4.8784,-4.9759,-4.8669,-4.8988,-5.0267,-5.0267,-5.1071,-5.2427,-5.3016,-5.3256,-5.3361,-5.3964,-5.4149,-5.42,0.0,0.0,0.0,0.0,0.0,0.0,0.0,0.0,0.0,0.0,0.0,0.0,0.0,0.0,0.0,0.0,0.0,0.0,0.0,0.0,0.0,0.0,0.0,0.0,0.0,0.0,0.0,0.0,0.0,-3.1383,-3.1294,-3.1184,-3.096,-3.0736,-3.0736,-3.0668,-3.0556,-2.9744,0.0,0.0,0.0,0.0,0.0,0.0,0.0,0.0,0.0,0.0,-2.8116,-2.7761,-2.6862,-2.5806,-2.5055,-2.5221,-2.5643,0.0,0.0,-2.445,0.0,0.0,0.0,-2.953,-3.0567,-3.1099,-3.1845,-3.2349,-3.2669,-3.2669,-3.2669,-3.2867,-3.3367,-3.4154,-3.4864,-3.5211,-3.5956,-3.6456,-3.6306,-3.6708,-3.6981,-3.7055,-3.7467,-3.786,-3.815,0.0,0.0,0.0,0.0,-4.0581,-4.0775,-4.3169,-4.4719,-4.5122,-4.6525,-4.7468,-4.7997,-4.7997,-4.8055,-4.8172,-4.8172,-4.8553,-4.9274,-4.9274,-4.9928,-5.1017,-5.0796,-5.1209,-5.2026,-5.2241,-5.2857,-5.3675,-5.3912,-5.3964,-5.4016,-5.4252,-5.4304,-5.4355,0.0,0.0,0.0,0.0,0.0,0.0,0.0,0.0,0.0,0.0,0.0,0.0,0.0,0.0,0.0,0.0,0.0,0.0,0.0,0.0,0.0,0.0,0.0,0.0,0.0,0.0,0.0,0.0,0.0,0.0,0.0,-3.0916,-3.0736,-3.0487,-3.0487,-3.0487,0.0,0.0,0.0,-3.1202,0.0,0.0,-3.2645,0.0,0.0,0.0,0.0,0.0,0.0,-2.8648,-2.8028,-2.7206,-2.6045,0.0,0.0,0.0,0.0,0.0,-2.6717,0.0,0.0,0.0,-3.0083,-3.0802,-3.1472,-3.2092,-3.2612,-3.2669,-3.2669,-3.2851,-3.3306,-3.4094,-3.4943,-3.5682,-3.6551,-3.695,-3.6789,-3.7136,-3.7356,-3.7234,-3.7567,-3.7939,0.0,0.0,0.0,0.0,0.0,0.0,-4.2034,-4.4449,-4.5995,-4.638,-4.7265,-4.8029,-4.8784,-4.8669,-4.8899,-4.9388,-4.9388,-4.9759,-5.0518,-5.0518,-5.1127,-5.2269,-5.2669,-5.304,-5.3437,-5.3698,-5.4347,-5.5119,-5.5119,-5.5119,-5.5119,-5.5119,-5.5119,-5.522,0.0,0.0,0.0,0.0,0.0,0.0,0.0,0.0,0.0,0.0,0.0,0.0,0.0,0.0,0.0,0.0,0.0,0.0,0.0,0.0,0.0,0.0,0.0,0.0,0.0,0.0,0.0,0.0,0.0,0.0,0.0,0.0,-3.0442,-3.017,-3.017,-3.0125,-3.0011,0.0,-2.8669,-3.0019,0.0,-3.0194,-3.1586,0.0,0.0,0.0,-3.0764,-3.0297,0.0,-2.9513,0.0,0.0,0.0,0.0,0.0,0.0,0.0,0.0,0.0,0.0,0.0,0.0,0.0,0.0,-3.1284,0.0,-3.2363,-3.2612,-3.269,-3.2814,-3.3327,-3.3782,-3.4476,-3.5537,-3.6125,-3.6606,-3.7253,-3.7789,-3.8095,-3.8095,-3.8357,-3.853,0.0,0.0,0.0,0.0,-4.2997,-4.4141,-4.2895,-4.5633,-4.7383,-4.7703,-4.7736,-4.8469,-4.9901,-4.9702,-5.0294,-5.1674,-5.1674,-5.1729,-5.1729,-5.1729,-5.2377,-5.3466,-5.4009,-5.4237,-5.4288,-5.4544,-5.551,-5.681,-5.681,-5.681,-5.681,-5.681,-5.681,-5.681,0.0,0.0,0.0,0.0,0.0,0.0,0.0,0.0,0.0,0.0,0.0,0.0,0.0,0.0,0.0,0.0,0.0,0.0,0.0,0.0,0.0,0.0,0.0,0.0,0.0,0.0,0.0,0.0,0.0,0.0,0.0,0.0,0.0,0.0,-2.9095,-2.8702,-2.8002,-2.7562,0.0,-2.9013,-2.889,-2.9737,0.0,0.0,0.0,0.0,0.0,-3.1073,-3.0162,0.0,-2.946,-2.9039,0.0,0.0,0.0,0.0,0.0,0.0,-2.7853,0.0,0.0,0.0,0.0,0.0,0.0,0.0,-3.196,-3.2018,-3.2455,-3.2977,-3.3428,-3.4139,-3.4956,-3.6025,-3.6338,-3.6484,-3.6667,-3.7201,-3.7702,-3.8008,-3.8702,-3.9011,0.0,0.0,0.0,0.0,-4.3121,-4.4903,-4.5293,-4.6968,-4.7938,-4.8055,-4.8873,-4.9475,-4.9901,-5.0685,-5.1292,-5.1674,-5.1674,-5.2108,-5.2939,-5.2939,-5.36,-5.4743,-5.527,-5.5521,-5.5521,-5.6017,-5.6439,-5.681,-5.681,-5.681,-5.681,-5.681,-5.681,-5.681,0.0,0.0,0.0,0.0,0.0,0.0,0.0,0.0,0.0,0.0,0.0,0.0,0.0,0.0,0.0,0.0,0.0,0.0,0.0,0.0,0.0,0.0,0.0,0.0,0.0,0.0,0.0,0.0,0.0,0.0,0.0,0.0,0.0,0.0,0.0,0.0,0.0,0.0,0.0,0.0,-2.8903,0.0,0.0,-3.2391,-3.2583,0.0,0.0,0.0,-3.0926,-3.0716,-3.0098,0.0,0.0,0.0,0.0,0.0,0.0,0.0,0.0,0.0,0.0,0.0,0.0,0.0,-3.0772,-3.1717,-3.244,0.0,-3.3219,-3.3496,-3.3618,-3.4085,-3.4839,-3.6295,-3.6563,-3.6624,-3.6767,-3.7132,-3.7461,-3.7724,-3.8653,0.0,0.0,-4.0808,-4.1967,-4.1499,-4.3784,-4.5615,-4.6585,-4.8029,-4.8726,-4.8726,-4.9985,-5.0906,-5.1347,-5.2054,-5.2673,-5.315,-5.3256,-5.3675,-5.4326,-5.4428,-5.4866,-5.5581,-5.5979,-5.6176,-5.6225,-5.6616,-5.681,-5.681,-5.681,-5.681,-5.681,-5.681,-5.681,-5.681,0.0,0.0,0.0,0.0,0.0,0.0,0.0,0.0,0.0,0.0,0.0,0.0,0.0,0.0,0.0,0.0,0.0,0.0,0.0,0.0,0.0,0.0,-2.8964,-2.8775,0.0,0.0,0.0,0.0,0.0,0.0,0.0,0.0,0.0,0.0,0.0,0.0,0.0,0.0,0.0,-2.8652,-2.9196,-3.0213,0.0,0.0,-3.2513,-3.2696,-3.1755,-3.1751,-3.21,-3.1667,-3.0842,0.0,0.0,0.0,0.0,0.0,-2.7422,0.0,0.0,0.0,0.0,0.0,0.0,0.0,-3.1579,-3.2425,-3.2996,0.0,-3.398,-3.383,-3.366,-3.3679,-3.4309,-3.6104,-3.6574,-3.682,-3.7292,-3.7435,-3.7495,-3.7435,-3.8452,0.0,-3.9023,-4.1328,-4.271,-4.2532,-4.4609,-4.6305,-4.7313,-4.8683,-4.9508,-4.9759,-5.1127,-5.2405,-5.3413,-5.3518,-5.4119,-5.5179,-5.5481,-5.5581,-5.5631,-5.588,-5.5979,-5.6028,-5.6274,-5.6421,-5.6421,-5.6713,-5.681,-5.681,-5.681,-5.681,-5.681,-5.681,-5.681,-5.681,0.0,0.0,0.0,0.0,0.0,0.0,0.0,0.0,0.0,0.0,0.0,0.0,0.0,0.0,0.0,0.0,0.0,0.0,0.0,0.0,-2.7553,-2.7754,-2.7804,-2.7763,-2.7613,0.0,0.0,0.0,0.0,0.0,0.0,0.0,0.0,0.0,0.0,0.0,0.0,0.0,0.0,-2.8705,-2.8805,0.0,-3.0945,-3.2341,-3.2372,-3.1743,-3.1939,-3.1843,-3.1554,-3.1529,-3.1053,-3.0535,0.0,0.0,0.0,-2.9702,0.0,0.0,0.0,0.0,0.0,0.0,0.0,0.0,-2.9738,-3.0258,-3.0626,0.0,-3.1643,-3.2117,-3.2316,-3.2895,-3.3457,-3.384,-3.5032,-3.6213,-3.7205,-3.7752,-3.7932,-3.7369,-3.9108,0.0,-3.9259,-4.2074,-4.3424,-4.2155,-4.4269,-4.6466,-4.8243,-4.8832,-4.983,-5.1237,-5.243,-5.3203,-5.3413,-5.4355,-5.4976,-5.5179,-5.5481,-5.5581,-5.5631,-5.588,-5.5979,-5.6028,-5.6274,-5.6421,-5.6421,-5.6713,-5.681,-5.681,-5.681,-5.681,-5.681,-5.681,-5.681,-5.681,0.0,0.0,0.0,0.0,0.0,0.0,0.0,0.0,0.0,0.0,0.0,0.0,0.0,0.0,0.0,0.0,0.0,0.0,0.0,0.0,-2.6304,-2.6755,-2.6931,-2.6836,-2.647,-2.7297,0.0,0.0,0.0,0.0,0.0,0.0,0.0,0.0,0.0,0.0,0.0,0.0,-2.7169,-2.8894,-2.9761,0.0,-3.2231,-3.2995,-3.2989,-3.249,-3.249,-3.2121,-3.174,-3.2126,-3.2062,0.0,-3.1551,-3.1518,-3.1444,0.0,-3.0488,-2.9897,0.0,0.0,0.0,-2.9862,0.0,0.0,0.0,-3.2478,-3.2763,-3.3278,-3.3681,-3.368,-3.2891,-3.3193,-3.3634,-3.3852,-3.5278,-3.6588,-3.7001,-3.7895,-3.8231,-3.7429,-3.9428,0.0,-3.9275,-4.1915,-4.3489,-4.3111,-4.4755,-4.6324,-4.7771,-4.9226,-5.0438,-5.1331,-5.293,-5.3802,-5.3802,-5.4747,-5.5179,-5.5179,-5.5481,-5.5681,-5.583,-5.6077,-5.6274,-5.6421,-5.6567,-5.6616,-5.6616,-5.6761,-5.681,-5.681,-5.681,-5.681,-5.681,-5.681,-5.681,-5.681,0.0,0.0,0.0,0.0,0.0,0.0,0.0,0.0,0.0,0.0,0.0,0.0,0.0,0.0,0.0,0.0,0.0,0.0,0.0,0.0,0.0,0.0,-2.6045,-2.5901,-2.5272,-2.6148,0.0,0.0,0.0,0.0,0.0,0.0,0.0,0.0,0.0,0.0,0.0,0.0,0.0,-2.9288,0.0,-3.2512,-3.3737,-3.3519,-3.3494,-3.3523,-3.2898,-3.2442,-3.2218,-3.2781,-3.3095,-3.3126,-3.2696,-3.2867,0.0,0.0,0.0,0.0,0.0,0.0,0.0,0.0,0.0,-3.2894,0.0,0.0,0.0,0.0,0.0,0.0,0.0,0.0,0.0,0.0,0.0,0.0,0.0,-3.8067,0.0,-3.7323,-3.9418,0.0,-3.943,-4.1468,-4.3316,-4.4433,-4.5216,-4.6274,-4.7676,-4.978,-5.1077,-5.1396,-5.3089,-5.4012,-5.4012,-5.4551,-5.479,-5.482,-5.529,-5.5599,-5.5846,-5.6262,-5.6616,-5.681,-5.681,-5.681,-5.681,-5.681,-5.681,-5.681,-5.681,-5.681,-5.681,-5.681,-5.681,-5.681,-1.0355,-1.0712,0.0,0.0,0.0,0.0,0.0,0.0,0.0,0.0,0.0,0.0,0.0,0.0,0.0,0.0,0.0,0.0,-2.3667,0.0,0.0,0.0,0.0,0.0,-2.4872,-2.57,-2.5736,0.0,0.0,0.0,0.0,0.0,0.0,0.0,-2.6045,0.0,0.0,0.0,-2.9708,0.0,-3.1542,-3.2835,0.0,-3.3212,-3.3253,-3.3523,-3.2898,-3.2649,-3.2639,0.0,-3.3212,-3.3671,0.0,-3.3816,-3.3891,-3.4366,0.0,0.0,0.0,0.0,0.0,0.0,-3.2307,0.0,0.0,0.0,-3.3042,-3.3409,0.0,0.0,0.0,0.0,0.0,0.0,0.0,0.0,-3.6734,-3.854,-3.9093,-3.6991,-3.8928,0.0,0.0,-4.1348,-4.3172,-4.5207,-4.5023,-4.6389,-5.0019,-5.0456,-5.1344,-5.29,-5.3215,-5.3294,-5.3294,-5.3384,-5.3414,-5.3462,-5.4552,-5.5098,-5.5177,-5.6243,-5.6761,-5.681,-5.681,-5.681,-5.681,-5.681,-5.681,-5.681,-5.681,-5.681,-5.681,-5.681,-5.681,-5.6858,-0.9673,-1.0037,0.0,0.0,0.0,0.0,0.0,0.0,0.0,0.0,0.0,0.0,0.0,0.0,0.0,0.0,0.0,-2.2775,0.0,0.0,0.0,0.0,0.0,0.0,0.0,-2.4962,-2.5183,0.0,-2.4971,0.0,0.0,0.0,0.0,0.0,-2.726,0.0,-2.9237,0.0,-3.0261,0.0,0.0,0.0,0.0,-3.3035,-3.3332,-3.3987,-3.3069,-3.3593,-3.4648,0.0,-3.4406,0.0,0.0,0.0,0.0,-3.5978,0.0,0.0,0.0,0.0,0.0,0.0,0.0,0.0,-3.4947,0.0,-3.6085,0.0,0.0,0.0,0.0,0.0,0.0,0.0,-3.4814,0.0,0.0,0.0,-3.8926,0.0,0.0,0.0,0.0,0.0,0.0,0.0,-4.5741,-4.7281,-4.9663,-5.0359,-5.1136,-5.2037,-5.2426,-5.2606,-5.2606,-5.2995,-5.3174,-5.3174,-5.3717,-5.4111,-5.4478,-5.5341,-5.5906,-5.6224,-5.6625,-5.681,-5.681,-5.681,-5.681,-5.681,-5.681,-5.681,-5.681,-5.681,-5.7002,-5.7211,-0.8442,0.0,0.0,0.0,0.0,0.0,0.0,0.0,0.0,0.0,0.0,0.0,-2.141,-2.1651,0.0,0.0,-2.1933,-2.2035,0.0,0.0,-2.3255,0.0,0.0,0.0,0.0,0.0,-2.4479,0.0,0.0,0.0,0.0,0.0,0.0,0.0,0.0,-2.8799,-3.0072,0.0,-3.0621,-3.1264,-3.191,-3.2678,-3.3403,-3.3035,-3.3388,-3.3931,-3.3388,-3.4302,-3.5663,-3.5333,-3.5795,0.0,-3.715,0.0,0.0,0.0,0.0,0.0,-3.6526,0.0,0.0,0.0,0.0,0.0,0.0,0.0,0.0,0.0,0.0,0.0,0.0,0.0,0.0,0.0,0.0,-3.6004,0.0,0.0,0.0,0.0,0.0,0.0,0.0,0.0,0.0,-4.4933,-4.6401,-4.7889,-4.9553,-5.0364,-5.0917,-5.1182,-5.1678,-5.1947,-5.1947,-5.2396,-5.2636,-5.2636,-5.299,-5.3368,-5.3732,-5.4544,-5.5228,-5.5715,-5.6286,-5.6625,-5.681,-5.681,-5.681,-5.681,-5.681,-5.681,-5.681,-5.681,-5.7098,-5.7543,-0.657,-0.7623,0.0,0.0,0.0,0.0,0.0,0.0,0.0,0.0,0.0,0.0,0.0,0.0,0.0,0.0,0.0,-2.0118,-2.0759,0.0,-2.2467,0.0,0.0,-2.3624,0.0,0.0,0.0,0.0,0.0,0.0,0.0,0.0,0.0,0.0,-2.7419,-2.8651,-2.9925,-3.0376,-3.114,-3.1967,-3.2023,-3.2292,-3.2763,0.0,-3.3239,-3.2898,-3.4043,0.0,0.0,-3.6426,-3.7019,0.0,0.0,0.0,0.0,0.0,0.0,0.0,0.0,0.0,0.0,-3.7631,0.0,0.0,0.0,0.0,-3.8792,0.0,0.0,0.0,0.0,0.0,0.0,0.0,0.0,0.0,0.0,0.0,0.0,0.0,0.0,0.0,0.0,-4.1209,-4.3141,-4.6762,-4.6777,-4.7846,-5.0591,-5.0745,-5.0917,-5.1182,-5.1229,-5.1259,-5.1259,-5.1259,-5.1289,-5.1289,-5.2467,-5.3034,-5.3081,-5.4173,-5.5052,-5.5684,-5.5715,-5.6115,-5.681,-5.681,-5.681,-5.681,-5.681,-5.681,-5.681,-5.681,-5.7098,-5.759,0.0,0.0,0.0,0.0,0.0,0.0,0.0,-1.1877,0.0,0.0,-1.5698,0.0,0.0,-1.9932,-2.0072,0.0,0.0,-2.0559,-2.0987,-2.1569,0.0,0.0,0.0,-2.3241,0.0,0.0,0.0,0.0,0.0,0.0,0.0,0.0,0.0,0.0,0.0,-2.8743,0.0,0.0,0.0,0.0,0.0,-3.2545,-3.2727,0.0,0.0,-3.3931,-3.4379,-3.5466,0.0,-3.7394,-3.7897,-3.8344,-3.8945,-3.8449,-3.7814,-3.8368,-3.8133,0.0,0.0,0.0,-3.8579,-3.8185,0.0,0.0,0.0,0.0,0.0,0.0,0.0,0.0,0.0,0.0,0.0,0.0,0.0,0.0,0.0,0.0,0.0,0.0,0.0,0.0,0.0,0.0,0.0,-4.6097,-4.7336,-4.874,-5.0537,-5.0614,-5.0805,-5.1182,-5.1229,-5.1229,-5.1229,-5.1229,-5.1229,-5.1229,-5.1767,-5.2167,-5.2366,-5.3299,-5.396,-5.4422,-5.5315,-5.5838,-5.6115,-5.7087,-5.721,-5.684,-5.7303,-5.721,-5.6858,-5.7163,-5.759,-5.8136,-0.36,0.0,0.0,0.0,0.0,0.0,0.0,0.0,0.0,0.0,-1.5638,0.0,-1.9424,0.0,-2.006,0.0,-2.0591,-2.0629,-2.0841,-2.1307,0.0,-2.1891,-2.2421,0.0,0.0,0.0,0.0,0.0,0.0,-2.3476,0.0,0.0,0.0,0.0,0.0,-2.84,-2.9467,-3.1244,-3.2305,0.0,0.0,-3.2669,0.0,0.0,-3.3818,-3.4525,0.0,-3.6317,-3.795,-3.8372,-3.8764,-3.9206,-3.9594,-3.9206,-3.8684,-3.8998,-3.8893,-3.8579,-3.8344,-3.8788,0.0,-3.8764,-3.962,0.0,-3.9698,0.0,0.0,0.0,0.0,0.0,0.0,0.0,0.0,0.0,0.0,0.0,0.0,-3.6676,0.0,0.0,0.0,0.0,0.0,-4.1377,-4.365,-4.6684,-4.7722,-4.8912,0.0,0.0,-5.0662,-5.1058,-5.1152,-5.1229,-5.1229,-5.1229,-5.1229,-5.1199,-5.1556,-5.1834,-5.2002,-5.2719,-5.3285,-5.373,-5.4884,-5.5468,-5.5807,-5.7192,-5.758,-5.7241,-5.7869,-5.7919,-5.7505,-5.7492,-5.8044,-5.9055,-0.2473,-0.3321,0.0,0.0,-0.9043,0.0,0.0,0.0,-1.3275,0.0,-1.5536,-1.6854,-1.9951,-1.9137,-1.9059,-2.0571,-2.0463,-2.0267,-2.0254,-2.0571,0.0,0.0,-2.1629,-2.1735,-2.2796,0.0,0.0,0.0,0.0,0.0,0.0,0.0,0.0,0.0,-2.6172,0.0,-2.9039,-3.0353,-3.1614,-3.2711,-3.2711,-3.2789,-3.296,-3.4108,-3.4668,-3.4869,-3.5936,-3.6965,-3.8056,-3.931,-3.9697,-3.9697,-3.9697,-3.9697,-3.9697,-3.9697,-3.9697,-3.9594,-3.8998,-3.9465,-3.9981,-3.9389,0.0,0.0,0.0,0.0,-4.1077,0.0,0.0,0.0,0.0,0.0,0.0,0.0,0.0,0.0,0.0,0.0,0.0,0.0,0.0,0.0,0.0,-4.17,-4.4068,-4.8383,-4.7941,-4.8362,0.0,0.0,-5.0537,-5.0793,-5.1058,-5.1229,-5.1229,-5.1229,-5.1229,-5.1229,-5.1741,-5.2002,-5.2002,-5.2473,-5.3022,-5.3714,-5.4345,-5.5068,-5.5807,-5.7192,-5.7857,-5.7949,-5.8577,-5.8843,-5.8708,-5.7945,-5.8702,-6.0248,-0.1952,-0.2903,-0.3962,0.0,-0.6614,-0.8239,0.0,0.0,0.0,0.0,-1.6004,-1.7576,-1.9706,-2.0021,-2.0332,-2.0931,-2.0944,0.0,0.0,0.0,0.0,-2.1176,-2.1408,-2.1516,-2.1577,-2.1775,0.0,-2.2019,0.0,0.0,-2.2988,0.0,0.0,0.0,0.0,-2.8206,-2.9766,-3.1305,-3.2432,-3.3203,-3.3203,-3.3991,-3.5215,0.0,-3.6714,-3.8217,-3.7678,-3.766,-3.8056,-3.931,-3.9697,-3.9697,-3.9697,-3.9697,-3.9697,-3.9697,-3.9697,-3.9645,-3.9542,-3.962,-3.9826,-3.9878,-4.0032,-4.0389,0.0,0.0,0.0,0.0,0.0,0.0,0.0,0.0,0.0,0.0,0.0,0.0,0.0,0.0,0.0,-3.6994,0.0,0.0,-4.0514,-4.2222,-4.4564,-4.7538,-4.8162,-4.9066,-5.065,0.0,0.0,-5.1058,-5.1182,-5.1229,-5.1229,-5.1229,-5.1229,-5.1229,-5.1556,-5.1787,-5.2002,-5.2291,-5.261,-5.3006,-5.3683,-5.4637,-5.5807,-5.7192,-5.8104,-5.8577,-5.9255,-5.9475,-5.9345,-5.9504,-6.0357,-6.1445,-0.1121,-0.1737,0.0,-0.2405,0.0,0.0,-0.8292,-0.99,0.0,-1.3897,-1.6109,0.0,-1.9123,-2.0247,-2.0935,-2.1096,-2.1109,0.0,-2.0869,0.0,0.0,-2.0869,-2.1167,-2.1292,-2.1105,-2.1499,0.0,-2.21,0.0,0.0,-2.3106,0.0,0.0,0.0,0.0,-2.8801,-3.002,-3.1794,-3.2909,-3.3447,-3.4043,-3.4975,0.0,-3.7155,-3.8456,-3.9606,-3.9458,-3.9251,-3.9108,-3.984,-3.9898,-3.9697,-3.9697,-3.9848,-4.0049,-4.0049,-4.0224,-4.04,-4.04,-4.0249,-4.0101,-4.0256,-4.0106,-4.0132,-4.0949,-4.1129,-4.1205,0.0,0.0,0.0,0.0,0.0,0.0,0.0,0.0,0.0,0.0,0.0,0.0,0.0,-3.9256,0.0,-4.0326,-4.2998,-4.5374,-4.6868,-4.772,-4.8475,-4.9191,0.0,0.0,-5.0594,-5.0687,-5.0883,-5.1229,-5.1229,-5.1229,-5.1229,-5.1479,-5.1741,-5.2002,-5.2215,-5.2442,-5.276,-5.3437,-5.4299,-5.5407,-5.7069,-5.8177,-5.8885,-5.9839,-6.0299,-6.0478,-6.1019,-6.1551,-6.2095,-0.0056,-0.0225,0.0,0.0,0.0,0.0,0.0,-0.9474,0.0,-1.2986,0.0,-1.7718,-1.8339,-1.9777,-2.0779,-2.0982,0.0,-2.1046,-2.1109,-2.1109,-2.1109,-2.1109,-2.1109,-2.1109,-2.1109,-2.1425,-2.1727,0.0,0.0,-2.2731,-2.3043,0.0,0.0,0.0,0.0,0.0,0.0,-3.2113,-3.3176,-3.3726,-3.4987,-3.5925,-3.6783,-3.8925,-3.984,-4.0116,-4.1151,-4.1153,-4.0626,-4.0626,-4.03,-3.9898,-3.9898,-4.0249,-4.0626,-4.0626,-4.0899,-4.1275,-4.1275,-4.0924,-4.0626,-4.0626,-4.0249,-4.0101,-4.0891,-4.102,-4.1121,-4.1625,-4.1457,-4.1152,0.0,0.0,0.0,0.0,0.0,0.0,0.0,0.0,0.0,0.0,0.0,0.0,-4.0187,-4.3518,-4.586,-4.631,-4.6829,-4.7207,-4.7353,0.0,0.0,-4.9918,-5.0103,-5.0495,-5.1199,0.0,-5.1229,-5.1229,-5.1433,-5.1695,-5.2002,-5.22,-5.2427,-5.276,-5.3345,-5.4083,-5.496,-5.6761,-5.8054,-5.9039,-6.0209,-6.101,-6.1582,-6.2184,-6.2297,-6.2332,0.0729,0.0737,0.0,0.0,0.0,-0.3457,-0.591,-0.8728,-1.0996,-1.2242,-1.4127,-1.5867,-1.7222,-1.8053,-1.9112,-2.0539,-2.0666,0.0,0.0,0.0,0.0,-2.1109,-2.1109,-2.1109,-2.1109,-2.1425,-2.1614,0.0,-2.2292,-2.2606,-2.2731,0.0,0.0,0.0,0.0,0.0,-3.1518,-3.2484,0.0,-3.4774,-3.5418,-3.7192,-3.9546,-4.0205,-4.1063,-4.2047,-4.2518,-4.2057,-4.115,-4.115,-4.1075,-4.1,-4.1,-4.1075,-4.115,-4.115,-4.12,-4.1275,-4.1275,-4.12,-4.115,-4.115,-4.1075,-4.1204,-4.1839,-4.1559,-4.1408,-4.2016,-4.1311,-4.0557,-4.0385,0.0,0.0,0.0,0.0,0.0,0.0,0.0,0.0,0.0,0.0,-4.0871,0.0,-4.2216,-4.406,-4.5362,-4.5671,-4.6546,0.0,0.0,0.0,0.0,-5.0196,0.0,0.0,0.0,-5.1229,-5.1229,-5.1276,-5.1509,-5.2002,-5.2048,-5.2291,-5.2729,-5.2821,-5.3899,-5.5561,-5.5899,-5.7469,-5.9624,-5.987,-6.0353,-6.1052,-6.2035,-6.2369,-6.2519,0.2473,0.0,0.0,0.0,0.0,0.0,0.0,-0.7866,-1.0514,-1.1387,-1.2985,-1.4707,-1.6317,-1.7418,-1.8332,-1.9176,-1.9903,-2.0157,-1.9801,-2.0462,-2.0919,-2.1109,-2.1109,-2.1109,-2.1109,-2.1235,-2.1425,-2.1614,-2.1915,-2.2606,0.0,0.0,0.0,-2.8026,0.0,-3.084,0.0,0.0,0.0,-3.4544,-3.6106,-3.7747,-3.9393,-4.0836,-4.1834,-4.2513,-4.2681,-4.2524,-4.2133,-4.1856,-4.158,-4.1275,-4.1275,-4.153,-4.1756,-4.1756,-4.1957,-4.2183,-4.2183,-4.1982,-4.1756,-4.1756,-4.1555,-4.1351,-4.1681,-4.153,-4.1275,-4.1304,-4.0877,-4.0302,-3.9728,-3.9191,0.0,0.0,0.0,0.0,0.0,0.0,-3.8097,0.0,0.0,0.0,0.0,0.0,0.0,0.0,0.0,-4.5499,0.0,0.0,0.0,0.0,0.0,0.0,0.0,0.0,0.0,-5.0674,-5.1003,-5.1236,-5.1273,-5.1774,-5.2155,-5.2518,-5.2653,-5.3652,-5.5315,-5.67,-5.827,-5.9809,-6.0178,-6.0517,-6.0845,-6.1195,-6.1399,-6.1702,0.3589,0.2863,0.0,0.0,-0.1351,0.0,-0.3785,-0.6812,-0.9309,-1.0172,-1.172,-1.3363,-1.505,-1.6258,-1.7033,-1.742,-1.8472,-1.892,-1.8448,-1.9431,-2.0284,-2.0856,-2.0982,-2.0982,-2.0982,-2.1046,-2.1235,0.0,-2.1853,-2.2812,0.0,0.0,0.0,0.0,0.0,0.0,0.0,0.0,-3.3316,-3.4512,-3.709,-3.8424,-3.9157,-4.1206,-4.2142,-4.2425,-4.2457,-4.2706,-4.2911,-4.2539,-4.2032,-4.1681,-4.1681,-4.1982,-4.2389,-4.2389,-4.269,-4.2986,-4.2986,-4.2715,-4.2389,-4.2389,-4.1932,-4.1505,-4.1505,-4.1275,-4.1,-4.0601,-4.0425,-4.0101,-3.9348,-3.9092,0.0,0.0,0.0,0.0,0.0,0.0,0.0,0.0,0.0,0.0,-3.9149,0.0,0.0,0.0,0.0,-4.4454,-4.4791,-4.5273,-4.6476,0.0,0.0,-4.9657,-5.0896,0.0,-5.0853,-5.0196,-5.0734,-5.0799,-5.0397,-5.1364,-5.1896,-5.2092,-5.2655,-5.3775,-5.5345,-5.7623,-5.8938,-5.9584,-6.0311,-6.0463,-6.0241,-6.0285,-6.0337,-6.0494,0.0,0.0,0.0,0.0,0.0,0.0,-0.379,-0.5236,-0.6827,-0.832,-0.9761,-1.1219,-1.2906,-1.321,-1.3923,-1.5544,-1.5739,-1.6452,-1.7946,-1.8203,-1.8856,-2.017,-2.0488,-2.0666,-2.0666,-2.0919,-2.1109,0.0,-2.2654,-2.3301,-2.3216,0.0,0.0,0.0,0.0,0.0,0.0,-3.3477,-3.5074,-3.6156,-3.8244,-3.9826,-4.1,-4.1435,-4.1859,-4.2167,-4.2425,-4.2706,-4.2961,-4.2911,-4.2861,-4.2811,-4.2811,-4.2861,-4.2911,-4.2911,-4.2936,-4.2986,-4.2986,-4.2936,-4.2911,-4.2911,-4.2539,-4.2137,-4.2137,-4.1304,-4.0576,-4.0526,-4.0124,-3.9623,-3.9272,-3.9424,-3.9424,0.0,0.0,0.0,0.0,0.0,-3.8651,-3.8382,0.0,0.0,0.0,-3.9952,0.0,0.0,-4.2956,-4.3772,-4.4569,-4.5084,-4.605,-4.7657,0.0,-4.8745,-5.0007,-5.079,-5.0853,-5.0196,-5.0255,-5.0064,-4.9733,-5.0698,-5.1196,-5.145,-5.2932,-5.476,-5.6686,-5.7549,-5.8206,-5.8715,-5.9584,-5.9304,-5.858,-5.9864,-5.9781,-5.9111,0.0,0.0,0.0,0.0,0.0,0.0,0.0,-0.457,-0.5898,-0.5834,-0.7773,-1.0057,-1.2513,-1.2816,-1.3079,-1.3792,-1.4642,-1.5489,-1.6387,-1.7238,-1.8407,-2.0043,-2.0425,-2.0602,-2.0602,-2.0919,-2.1109,0.0,0.0,-2.3685,-2.4529,-2.6798,0.0,0.0,0.0,-3.1648,-3.2752,-3.3517,-3.4899,-3.6686,-3.832,-3.938,-4.0083,-4.1033,-4.1573,-4.1802,-4.1891,-4.2287,-4.2681,-4.2681,-4.2793,-4.2986,-4.2986,-4.2986,-4.2986,-4.2986,-4.2986,-4.2986,-4.2986,-4.2986,-4.2886,-4.2615,-4.2363,-4.2037,-4.1329,-4.0827,-4.0425,-4.0099,-3.9848,-3.9673,-3.9498,-3.9474,-3.9399,0.0,0.0,0.0,0.0,0.0,0.0,-3.8666,0.0,-3.8424,0.0,0.0,0.0,0.0,0.0,-4.2538,-4.392,-4.4676,-4.5493,-4.6344,0.0,-4.8685,-4.894,-4.9687,-4.9703,-4.9075,-4.9464,-4.9359,-4.8863,-4.9912,-5.1042,-5.2225,-5.3699,-5.5007,-5.6238,-5.722,-5.8065,-5.8716,-5.9353,-5.9365,-5.9015,-5.9039,-5.8575,-5.7915,0.5716,0.0,0.3282,0.0,-0.0122,-0.1701,-0.1849,-0.3494,-0.4617,-0.424,-0.5937,-0.828,-1.1263,-1.196,-1.2165,-1.2165,-1.3079,-1.3923,-1.4567,-1.5944,-1.7442,-1.9124,-1.9903,0.0,-2.0425,-2.0792,-2.0982,-2.1109,-2.2841,-2.4194,-2.5246,0.0,0.0,0.0,-3.0803,-3.1637,-3.2939,-3.3305,-3.4636,-3.6642,-3.8171,-3.9144,-3.9791,-4.0803,-4.1402,-4.1606,-4.1606,-4.2004,-4.2513,-4.2513,-4.2737,-4.2986,-4.2986,-4.2986,-4.2986,-4.2986,-4.2986,-4.2986,-4.2986,-4.2861,-4.269,-4.2313,-4.1961,-4.148,-4.0701,-4.04,-4.0174,-3.9772,-3.9697,-3.9697,-3.9697,-3.9524,-3.9323,-3.9348,0.0,0.0,0.0,-3.7734,0.0,0.0,-3.8287,-3.8342,-3.9272,-3.9787,0.0,0.0,0.0,-4.1934,-4.3585,-4.4181,0.0,0.0,0.0,0.0,0.0,-4.8611,-4.879,-4.8297,-4.879,-4.8626,-4.8071,-4.9384,-5.1208,-5.333,-5.402,-5.5078,-5.6375,-5.6898,-5.7549,-5.8398,-5.9206,-5.9039,-5.8331,-5.825,-5.7584,-5.6737,0.4603,0.4429,0.3692,0.1415,0.0738,0.0,-0.1296,-0.1812,-0.2535,-0.3984,-0.4302,-0.5416,-0.8358,-0.9915,-1.0717,-1.0717,-1.0717,-1.1314,-1.275,-1.4128,-1.5554,0.0,0.0,-1.9775,-2.0106,-2.0425,-2.0792,-2.1109,0.0,0.0,-2.4471,0.0,-2.9878,-3.0698,-3.1127,-3.1125,-3.0998,-3.2932,-3.4571,-3.599,-3.7925,-3.9474,-4.0735,-4.1057,-4.1402,-4.1606,-4.1606,-4.2004,-4.2513,-4.2513,-4.2737,-4.2986,-4.2986,-4.2986,-4.2986,-4.2986,-4.2986,-4.2986,-4.2986,-4.264,-4.2213,-4.2213,-4.1329,-4.0526,-4.0526,-4.0099,-3.9697,-3.9697,-3.9697,-3.9697,-3.9697,-3.9697,-3.9423,-3.8562,0.0,0.0,0.0,0.0,0.0,-3.8239,-3.8648,-3.9406,-4.0641,-4.0846,0.0,0.0,0.0,0.0,0.0,0.0,0.0,-4.5446,-4.5581,0.0,-4.6609,-4.7747,-4.8297,-4.8297,-4.8297,-4.7967,-4.7369,-4.9186,-5.1742,-5.4606,-5.3849,-5.5117,-5.7678,-5.6639,-5.6549,-5.7276,-5.8877,-5.7889,-5.5787,-5.7528,-5.7078,-5.5496,0.6267,0.5536,0.4735,0.3507,0.1969,0.0617,-0.0125,-0.1078,-0.1996,-0.2677,-0.364,-0.4678,-0.5566,-0.7841,-0.9649,0.0,-1.0717,-1.1314,0.0,-1.4128,-1.5554,-1.6915,-1.8868,-1.9979,-2.0106,-2.0666,-2.0982,-2.1109,0.0,0.0,0.0,-2.9628,-3.0537,-3.0814,-3.122,-3.1832,-3.2681,-3.426,-3.5786,-3.7309,-3.8848,-3.9954,-4.0735,-4.085,-4.1057,-4.1344,-4.1344,-4.1549,-4.1891,-4.2142,-4.2425,-4.2681,-4.293,-4.2986,-4.2986,-4.2986,-4.2986,-4.2886,-4.2564,-4.2338,-4.2037,-4.1229,-4.0777,-4.0425,-4.0049,-3.9823,-3.9697,-3.9697,-3.9697,-3.9697,-3.9697,-3.9697,-3.9623,-3.9322,-3.9045,0.0,0.0,0.0,0.0,-3.8116,-3.7851,-3.7983,0.0,-3.8986,0.0,0.0,0.0,0.0,0.0,0.0,0.0,0.0,-4.4951,0.0,-4.5509,-4.645,-4.7189,-4.7608,-4.7608,-4.7902,-4.852,-4.9984,-5.1925,-5.3991,-5.4122,-5.5299,-5.7015,-5.583,-5.6124,-5.7378,-5.7559,-5.7162,-5.6451,-5.6992,-5.6509,-5.544,0.7378,0.6578,0.5659,0.4739,0.3092,0.1619,0.0566,-0.0385,-0.1239,-0.1843,-0.2733,-0.3564,-0.4233,-0.6368,0.0,-0.9782,-1.0386,-1.1049,-1.1967,-1.3801,-1.5294,-1.6138,-1.86,-1.9979,-2.0106,-2.0615,0.0,-2.1109,-2.3896,-2.6929,-3.0039,-3.0552,-3.0864,-3.1029,-3.1267,-3.1873,-3.2746,-3.407,-3.554,-3.7006,-3.8611,-3.9755,-4.0537,-4.0792,-4.1024,-4.1172,-4.1172,-4.1402,-4.1663,-4.1972,-4.2256,-4.2569,-4.2905,-4.2986,-4.2986,-4.2986,-4.2986,-4.2861,-4.2363,-4.2062,-4.163,-4.0752,-4.035,-4.0124,-3.9772,-3.9697,-3.9697,-3.9697,-3.9697,-3.9594,-3.9102,-3.9025,-3.8795,-3.8157,-3.7788,-3.767,-3.8023,0.0,0.0,0.0,0.0,0.0,0.0,-3.827,-3.8908,0.0,0.0,0.0,0.0,0.0,0.0,-4.3546,-4.4424,0.0,-4.4917,-4.5555,-4.6411,-4.7309,-4.7309,-4.8019,-4.9404,-5.0498,-5.1957,-5.3633,-5.3928,-5.4769,-5.5791,-5.4865,-5.5278,-5.6551,-5.6725,-5.6594,-5.6337,-5.6651,-5.6279,-5.5412,0.7933,0.7388,0.6469,0.0,0.4184,0.0,0.1012,0.0324,-0.0396,-0.1386,-0.1602,-0.2287,-0.3964,-0.5432,-0.6831,-0.8307,0.0,0.0,0.0,-1.321,-1.4782,-1.4912,-1.7829,-1.9711,-2.0106,-2.0425,-2.0869,-2.1452,-2.4341,-2.7512,-3.0791,-3.0809,-3.1029,-3.1377,-3.1377,-3.1442,-3.1635,-3.2936,-3.432,-3.5684,-3.7588,-3.9121,-4.0281,-4.0884,-4.1172,-4.1172,-4.1172,-4.1402,-4.1663,-4.1972,-4.2256,-4.2569,-4.2905,-4.2986,-4.2986,-4.2986,-4.2961,-4.2811,-4.2313,-4.1706,-4.11,-4.0601,-4.0074,-3.9697,-3.9697,-3.9697,-3.9697,-3.9594,-3.9594,-3.9206,-3.8003,-3.7767,-3.7305,-3.5779,-3.555,-3.5525,-3.5582,0.0,0.0,0.0,0.0,0.0,0.0,-3.8479,-3.9171,0.0,0.0,0.0,0.0,0.0,-4.3171,-4.4336,-4.39,-4.3956,-4.4706,-4.5096,-4.5963,-4.7309,-4.7309,-4.8216,-4.9924,-5.0591,-5.1848,-5.3447,-5.3237,-5.3663,-5.4237,-5.3858,-5.4147,-5.501,-5.622,-5.6222,-5.5613,-5.6394,-5.6222,-5.5412,0.0,0.0,0.6696,0.5886,0.4756,0.3729,0.299,0.1245,-0.0198,-0.0669,-0.1545,-0.2221,-0.2625,-0.3964,-0.5369,-0.6769,-0.9244,-1.0717,-1.0717,-1.2355,-1.3801,-1.4847,-1.7109,-1.892,-2.0043,-2.0666,-2.2153,-2.464,-2.5865,-2.7936,-3.0791,-3.1102,-3.1286,-3.1377,-3.1377,-3.1937,-3.3,-3.4383,-3.5664,-3.7006,-3.8492,-3.9521,-4.0223,-4.0397,-4.0769,-4.1172,-4.1172,-4.1402,-4.1663,-4.1972,-4.2256,-4.2569,-4.2905,-4.2986,-4.2986,-4.2986,-4.274,-4.2288,-4.1681,-4.1128,-4.0576,-4.0023,-3.9798,-3.9697,-3.9697,-3.9697,-3.9413,-3.8502,-3.8319,-3.8003,-3.6834,-3.6565,-3.6649,-3.6694,-3.6671,-3.6861,-3.735,-3.7176,0.0,0.0,-3.6326,-3.6288,-3.644,-3.7543,-3.8523,0.0,0.0,0.0,0.0,-4.2038,-4.2278,-4.3013,-4.2965,-4.3484,-4.4706,-4.5096,-4.5963,-4.7309,-4.7309,-4.7924,-4.9134,-4.9867,-5.1053,-5.2556,-5.245,-5.3121,-5.4237,-5.3858,-5.4147,-5.4955,-5.5566,-5.5671,-5.5496,-5.5729,-5.5671,-5.5355,0.8995,0.804,0.7112,0.6231,0.5023,0.3979,0.3483,0.2317,0.1067,-0.0134,-0.0808,-0.1481,-0.2154,-0.343,-0.4833,-0.6297,-0.844,-0.9981,-1.0651,-1.2033,-1.3407,-1.4847,-1.6721,-1.8407,-1.9839,-2.0539,-2.2567,-2.6008,-2.6312,-2.8084,-3.1066,-3.1267,-3.1377,-3.1377,-3.1377,-3.2128,-3.3505,-3.4819,-3.6154,-3.7429,-3.9085,-3.9873,-4.0223,-4.0513,-4.0884,-4.1172,-4.1172,-4.1402,-4.1663,-4.1972,-4.2256,-4.2569,-4.2905,-4.2986,-4.2986,-4.2986,-4.264,-4.2087,-4.148,-4.0874,-4.0375,-3.9823,-3.9697,-3.9697,-3.9697,-3.9697,-3.9362,-3.8161,-3.7897,-3.7394,-3.5717,-3.5608,-3.5717,-3.5521,-3.574,-3.6122,-3.6742,-3.6858,0.0,-3.64,-3.6174,-3.6075,-3.5973,-3.6921,-3.768,-3.795,-3.9663,0.0,-4.118,-4.1454,-4.1948,-4.2751,-4.2726,-4.3337,-4.4706,-4.5722,-4.6591,-4.7309,-4.7309,-4.7835,-4.8832,-4.9883,-5.0882,-5.1758,-5.2377,-5.281,-5.3189,-5.3526,-5.3951,-5.4429,-5.5192,-5.5496,-5.5496,-5.5496,-5.5327,-5.4962,1.0191,0.8919,0.7666,0.6648,0.5298,0.4163,0.3369,0.3204,0.2422,0.0404,0.0,-0.0606,-0.2019,-0.3295,-0.4632,-0.6231,-0.7569,-0.8972,-1.0585,-1.1835,-1.321,-1.4847,-1.6398,-1.7958,-1.9647,-2.0438,-2.261,-2.628,-2.6376,-2.8101,-3.1377,-3.1377,-3.1442,-3.1442,-3.1442,-3.2192,-3.3568,-3.4881,-3.6032,-3.7188,-3.9321,-4.0048,-3.9966,-4.0826,-4.1196,-4.1172,-4.1172,-4.1402,-4.172,-4.1972,-4.2312,-4.2625,-4.293,-4.2986,-4.2986,-4.2986,-4.264,-4.2087,-4.148,-4.0824,-4.0275,-3.9798,-3.9697,-3.9697,-3.9697,-3.9594,-3.9102,-3.7897,-3.7524,-3.675,-3.4636,-3.4692,-3.4747,-3.3952,-3.4267,-3.4902,-3.56,0.0,-3.6341,-3.6475,-3.6424,-3.6256,-3.6031,-3.6644,-3.6992,-3.6748,-3.8785,-3.992,-3.9694,-4.0788,-4.1793,-4.2649,-4.2696,-4.3378,-4.479,-4.648,-4.7309,-4.7309,-4.7309,-4.7791,-4.865,-5.0065,-5.0793,-5.1024,-5.2391,-5.2515,-5.1899,-5.3135,-5.3726,-5.3782,-5.5018,-5.5496,-5.5496,-5.5496,-5.5187,-5.4625,1.2373,1.0401,0.8502,0.7782,0.63,0.4961,0.4225,0.3358,0.2353,0.1075,0.0135,-0.0875,-0.2087,-0.2423,-0.3562,-0.6164,-0.6631,-0.7836,-1.0518,-1.0916,-1.2165,-1.4782,-1.5424,-1.7044,-1.9979,-2.1214,-2.3306,-2.628,-2.6726,-2.8458,-3.1377,-3.1377,-3.157,-3.1782,-3.1506,-3.232,-3.3882,-3.4943,-3.55,-3.593,-3.8752,-3.9344,-3.8744,-4.0223,-4.0966,-4.1172,-4.1172,-4.1516,-4.2029,-4.211,-4.2481,-4.2905,-4.2986,-4.2986,-4.2986,-4.2986,-4.264,-4.2087,-4.148,-4.0601,-3.9798,-3.9722,-3.9697,-3.9697,-3.9697,-3.8921,-3.7844,-3.6673,-3.5717,-3.458,-3.3218,-3.3445,-3.4065,-3.458,-3.5024,-3.5701,-3.6985,0.0,-3.7061,-3.7517,-3.7003,-3.6611,-3.6595,-3.7151,-3.727,-3.6725,-3.8879,-3.9735,-3.8747,-4.0445,-4.1382,-4.1312,-4.2187,-4.3512,-4.5191,-4.6578,-4.7309,-4.7309,-4.7309,-4.7481,-4.7893,-4.8739,-4.9541,-5.0223,-5.1058,-5.159,-5.1899,-5.3135,-5.3726,-5.3782,-5.5018,-5.5496,-5.5496,-5.5496,-5.544,-5.5187,1.308,1.1272,0.9473,0.8157,0.6548,0.5178,0.4442,0.3902,0.3161,0.2084,0.1009,-0.0067,-0.1144,-0.1818,-0.3026,-0.5101,-0.5967,-0.7303,-0.9443,-1.0253,-1.1967,-1.4782,-1.5033,-1.6774,-2.0258,-2.1098,-2.3111,-2.6487,-2.6741,-2.8456,-3.1377,-3.1589,-3.1717,-3.191,-3.1717,-3.2511,-3.3945,-3.4195,-3.5232,-3.6824,-3.835,-3.9262,-3.9674,-4.0595,-4.1081,-4.123,-4.1344,-4.1688,-4.211,-4.2256,-4.265,-4.2986,-4.2986,-4.2986,-4.2986,-4.2986,-4.2384,-4.1605,-4.1,-4.03,-3.9697,-3.9697,-3.9697,-3.9517,-3.8868,-3.8319,-3.7394,-3.5663,-3.5135,-3.458,-3.3388,-3.3952,-3.4714,-3.508,-3.5768,0.0,0.0,-3.7469,-3.7862,-3.7793,-3.7659,-3.7487,-3.7372,-3.7733,-3.7567,-3.6601,-3.839,-3.9084,-3.8193,-4.0172,-4.1367,-4.131,-4.3015,-4.4525,-4.5843,-4.683,-4.7309,-4.7309,-4.7799,-4.8075,-4.8358,-4.9553,-5.0301,-5.0663,-5.1403,-5.1765,-5.1899,-5.3135,-5.3726,-5.3754,-5.4653,-5.5215,-5.5468,-5.5131,-5.5018,-5.4934,1.3655,1.2261,1.0683,0.869,0.704,0.5644,0.451,0.4308,0.3902,0.2825,0.1748,0.0672,-0.0404,-0.1548,-0.2759,-0.4166,-0.57,-0.7102,-0.8507,-1.0306,-1.2355,-1.4782,-1.5684,-1.7553,-2.0578,-2.1033,-2.3046,-2.6727,-2.6741,-2.8372,-3.1377,-3.1717,-3.1929,-3.2038,-3.2038,-3.2657,-3.3694,-3.3631,-3.4736,-3.6642,-3.791,-3.8944,-3.9931,-4.0826,-4.1172,-4.123,-4.1492,-4.1777,-4.2029,-4.2369,-4.2681,-4.293,-4.2986,-4.2986,-4.2986,-4.2986,-4.2283,-4.1404,-4.0852,-4.03,-3.9898,-3.9898,-3.9798,-3.9465,-3.8554,-3.8003,-3.7233,-3.5466,-3.5135,-3.4858,-3.3952,-3.4658,-3.5433,-3.5488,0.0,0.0,0.0,-3.7527,-3.8114,-3.7929,-3.8096,-3.8143,-3.8044,-3.8016,-3.7655,-3.6678,-3.7931,-3.8558,-3.8056,-4.0231,-4.1824,-4.2507,-4.4235,-4.5488,-4.6279,-4.698,-4.7309,-4.7309,-4.7894,-4.8388,-4.8832,-5.0397,-5.1095,-5.1148,-5.2105,-5.2272,-5.1899,-5.3135,-5.3726,-5.3754,-5.4512,-5.5074,-5.544,-5.4962,-5.4793,-5.4765,1.5033,1.3866,1.2339,0.9877,0.8557,0.7036,0.4641,0.4308,0.3902,0.2825,0.1748,0.0672,-0.0404,-0.1548,-0.2759,-0.4166,-0.59,-0.7431,-0.8507,-1.1424,-1.3669,-1.4847,-1.7958,-2.0105,-2.0955,-2.1621,-2.3454,-2.6727,-2.6914,-2.8558,-3.1377,-3.1717,-3.2038,-3.2358,-3.2358,-3.2613,-3.3038,-3.3945,-3.3694,-3.3165,-3.7149,-3.8111,-3.7407,-4.0141,-4.1172,-4.123,-4.1492,-4.1606,-4.172,-4.2287,-4.2513,-4.2569,-4.293,-4.2986,-4.2986,-4.2986,-4.2615,-4.1982,-4.143,-4.0824,-4.045,-4.045,-4.0074,-3.9697,-3.9594,-3.8344,-3.7126,-3.6911,-3.5685,-3.4525,-3.4435,-3.4969,-3.5488,-3.574,0.0,0.0,-3.733,-3.7248,-3.7366,-3.8086,-3.8026,-3.7997,-3.8247,-3.7647,-3.7232,-3.7132,-3.7892,-3.8454,-3.872,-4.0827,-4.3012,-4.5228,-4.5489,-4.5806,-4.6279,-4.698,-4.7309,-4.7309,-4.6974,-4.7499,-4.8862,-4.994,-5.0691,-5.1177,-5.2573,-5.2677,-5.1899,-5.3135,-5.3726,-5.3782,-5.4962,-5.5468,-5.5496,-5.544,-5.544,-5.5271,1.6343,1.4455,1.2281,1.0016,0.8562,0.6907,0.4641,0.4308,0.4174,0.3768,0.2151,0.0941,0.0538,-0.1144,-0.2423,-0.2961,-0.5429,-0.7098,-0.7236,-1.1014,-1.4259,-1.6398,-1.8804,-2.0516,-2.1293,-2.2631,-2.4487,-2.698,-2.7999,-2.9461,-3.1442,-3.1974,-3.2294,-3.2422,-3.2613,-3.2804,-3.2912,-3.3102,-3.3461,-3.4133,-3.6581,-3.785,-3.8506,-4.0455,-4.0687,-4.0083,-4.1182,-4.1124,-4.0639,-4.1834,-4.2256,-4.2312,-4.2594,-4.2681,-4.2762,-4.293,-4.2891,-4.2665,-4.2409,-4.1112,-3.9824,-3.9824,-3.9653,-3.9345,-3.8639,-3.8256,-3.7871,-3.715,-3.6443,-3.6013,-3.6013,-3.6218,-3.6405,-3.6516,0.0,-3.6769,-3.6763,-3.7326,-3.7752,-3.7748,-3.8601,-3.8935,-3.835,-3.8868,-3.8912,-3.8238,-3.9064,-3.9348,-3.8816,-4.0829,-4.3329,-4.6153,-4.6196,-4.6444,-4.692,-4.7189,-4.7519,-4.7908,-4.7652,-4.8689,-5.0773,-5.0894,-5.1306,-5.1982,-5.2705,-5.234,-5.1377,-5.3051,-5.3726,-5.3754,-5.4597,-5.5159,-5.544,-5.5074,-5.5187,-5.544,1.7109,1.5033,1.2676,1.0611,0.9033,0.7312,0.5242,0.4574,0.4308,0.4308,0.2758,0.1478,0.1142,-0.0538,-0.2019,-0.2959,-0.5563,-0.7227,-0.7365,-1.16,-1.5163,-1.756,-1.9264,-2.0554,-2.1648,-2.3275,-2.5071,-2.7105,-2.8657,-3.0195,-3.157,-3.223,-3.2549,-3.2549,-3.2931,-3.3292,-3.365,-3.3461,-3.4027,-3.5191,-3.6438,-3.7347,-3.8149,-3.9474,-3.9416,-3.8744,-3.9978,-3.9803,-3.9134,-4.0466,-4.1067,-4.132,-4.1353,-4.1639,-4.2174,-4.2793,-4.2986,-4.2986,-4.2986,-4.1471,-3.989,-3.9722,-3.9387,-3.888,-3.8119,-3.8344,-3.8424,-3.761,-3.7292,-3.7155,-3.694,-3.6984,-3.6933,-3.6828,-3.6782,-3.6736,-3.653,-3.7382,-3.792,-3.7868,-3.8957,-3.9435,-3.8776,-3.9594,-3.9833,-3.8996,-3.9994,-4.0594,-4.0516,-4.171,-4.3631,-4.6403,-4.6314,-4.6535,-4.7149,-4.7266,-4.7638,-4.8297,-4.7683,-4.867,-5.1056,-5.0817,-5.107,-5.1753,-5.2581,-5.2234,-5.1322,-5.2967,-5.3726,-5.3754,-5.4569,-5.5131,-5.544,-5.5046,-5.5131,-5.5468,1.7291,1.5619,1.3866,1.2068,1.0287,0.8501,0.6711,0.5175,0.4308,0.4308,0.3362,0.2286,0.1209,0.0135,-0.1681,-0.4565,-0.6427,-0.8092,-0.9564,-1.3569,-1.6517,-1.7946,-1.9316,-2.0683,-2.1977,-2.3406,-2.5071,-2.7105,-2.8903,-3.052,-3.191,-3.2613,-3.2912,-3.2931,-3.3228,-3.4153,-3.5376,-3.5376,-3.5376,-3.55,-3.6764,-3.6581,-3.5561,-3.6824,-3.7309,-3.7369,-3.7708,-3.7588,-3.7347,-3.7985,-3.8876,-3.9545,-3.8898,-3.9779,-4.1329,-4.2625,-4.2986,-4.2986,-4.2986,-4.2037,-4.098,-4.0451,-3.9362,-3.848,-3.8503,-3.8559,-3.8583,-3.8583,-3.8189,-3.7655,-3.7094,-3.7002,-3.6874,-3.6369,-3.6332,-3.6438,-3.6966,-3.7312,-3.7807,-3.8601,-3.8974,-3.9332,-3.9554,-3.9609,-3.9503,-3.9194,-4.0425,-4.2097,-4.42,-4.3606,-4.4125,-4.6135,-4.5718,-4.5898,-4.6887,-4.7179,-4.7638,-4.8297,-4.6766,-4.7059,-4.9044,-4.9316,-4.9722,-5.0375,-5.2172,-5.2444,-5.1899,-5.3135,-5.3726,-5.3782,-5.5018,-5.5496,-5.5496,-5.5496,-5.5496,-5.5412,1.791,1.5594,1.3187,1.1747,0.9882,0.8075,0.6631,0.5175,0.4308,0.4308,0.3362,0.2286,0.1209,0.0135,-0.1346,-0.3495,-0.603,-0.9082,-1.2742,-1.4838,-1.6656,-1.8279,-1.9699,-2.094,-2.1977,-2.4366,-2.6098,-2.7105,-2.9917,-3.1525,-3.191,-3.2613,-3.2912,-3.2975,-3.4215,-3.4528,-3.4027,-3.5005,-3.5376,-3.55,-3.6764,-3.761,-3.8089,-3.8506,-3.8089,-3.7309,-3.7407,-3.6824,-3.6154,-3.7226,-3.7887,-3.8566,-3.9686,-4.0384,-4.1076,-4.2569,-4.2986,-4.2986,-4.2986,-4.1386,-3.9721,-3.9558,-3.9244,-3.8896,-3.8453,-3.8745,-3.9233,-3.9637,-3.9256,-3.8803,-3.8642,-3.8045,-3.7517,-3.7356,-3.6736,-3.6547,-3.722,-3.7566,-3.8107,-3.8959,-3.9642,-3.9962,-3.9633,-4.0282,-4.0387,-3.9527,-4.0545,-4.2332,-4.4844,-4.4797,-4.5562,-4.7495,-4.7541,-4.7845,-4.8282,-4.7627,-4.7878,-4.8985,-4.8184,-4.8953,-5.0982,-5.0577,-5.0604,-5.0979,-5.1742,-5.1725,-5.1266,-5.2967,-5.3388,-5.3164,-5.485,-5.5243,-5.4906,-5.5327,-5.5496,-5.5468,1.7553,1.5214,1.3078,1.229,0.9993,0.8031,0.7294,0.5503,0.4253,0.43,0.3682,0.274,0.1276,0.0269,-0.1345,-0.4031,-0.7165,-1.0287,-1.335,-1.5303,-1.6721,-1.7625,-1.9799,-2.1561,-2.2818,-2.5126,-2.6939,-2.818,-3.0843,-3.2166,-3.2294,-3.2867,-3.3102,-3.3165,-3.4153,-3.4757,-3.4943,-3.5253,-3.5684,-3.6154,-3.646,-3.6703,-3.6924,-3.6924,-3.6438,-3.5786,-3.5786,-3.5602,-3.5438,-3.5848,-3.6276,-3.7006,-3.9216,-3.9627,-3.9604,-4.1076,-4.1501,-4.1501,-4.1501,-4.0384,-3.9098,-3.8566,-3.8447,-3.8492,-3.8313,-3.8789,-3.9403,-3.9755,-3.9382,-3.901,-3.901,-3.8183,-3.7494,-3.7494,-3.6916,-3.6726,-3.7498,-3.8114,-3.8706,-3.9495,-4.0272,-4.0595,-4.0258,-4.0991,-4.1472,-4.1455,-4.1439,-4.2764,-4.5723,-4.5473,-4.609,-4.808,-4.808,-4.8311,-4.8892,-4.8343,-4.8476,-4.9284,-4.8642,-4.9071,-5.0349,-5.0384,-5.0236,-5.0077,-5.0985,-5.1292,-5.1376,-5.3023,-5.3585,-5.3585,-5.4962,-5.5271,-5.499,-5.5383,-5.5496,-5.5496,1.6512,1.4667,1.3251,1.3269,1.0475,0.8167,0.8291,0.59,0.4166,0.4278,0.4248,0.3373,0.1338,0.0403,-0.1613,-0.5566,-0.9178,-1.1512,-1.2305,-1.5163,-1.6711,-1.6441,-1.9613,-2.2254,-2.4042,-2.5607,-2.7422,-2.9574,-3.1488,-3.2613,-3.2931,-3.3228,-3.3418,-3.3418,-3.3544,-3.4819,-3.6885,-3.5971,-3.6215,-3.7248,-3.6154,-3.5005,-3.3902,-3.3776,-3.367,-3.3544,-3.3418,-3.4153,-3.5067,-3.4215,-3.436,-3.5273,-3.785,-3.8029,-3.7528,-3.8803,-3.9216,-3.9216,-3.9216,-3.9098,-3.8744,-3.767,-3.7352,-3.7435,-3.7976,-3.8596,-3.9072,-3.919,-3.8905,-3.8584,-3.8596,-3.777,-3.7025,-3.6979,-3.6864,-3.6997,-3.7768,-3.8629,-3.9481,-4.0163,-4.0826,-4.1172,-4.1124,-4.1589,-4.2523,-4.4032,-4.2865,-4.344,-4.6558,-4.5894,-4.6356,-4.8284,-4.7746,-4.7981,-4.904,-4.9072,-4.9208,-4.9374,-4.872,-4.8308,-4.8269,-4.9426,-4.9388,-4.8498,-5.0077,-5.1153,-5.1902,-5.3106,-5.395,-5.4569,-5.5185,-5.5409,-5.544,-5.5468,-5.5496,-5.5496,1.5839,1.4159,1.29,1.3049,1.026,0.8048,0.8167,0.5861,0.4136,0.4161,0.4194,0.3415,0.1237,0.0335,-0.1697,-0.5707,-0.9332,-1.1777,-1.2642,-1.439,-1.5814,-1.684,-1.8836,-2.1254,-2.4042,-2.6035,-2.7361,-2.8048,-3.1212,-3.2867,-3.2931,-3.3228,-3.3418,-3.3418,-3.4528,-3.4694,-3.434,-3.6154,-3.7067,-3.7369,-3.8089,-3.8209,-3.7828,-3.6803,-3.5848,-3.4819,-3.3796,-3.3607,-3.3859,-3.4173,-3.4235,-3.4528,-3.6885,-3.7287,-3.7226,-3.8744,-3.9216,-3.9216,-3.9216,-3.8447,-3.779,-3.8052,-3.7352,-3.6667,-3.6789,-3.6911,-3.7314,-3.8276,-3.8447,-3.8444,-3.8584,-3.8068,-3.7494,-3.7048,-3.6943,-3.7192,-3.8063,-3.8901,-3.9713,-4.0466,-4.0942,-4.1028,-4.0595,-4.0893,-4.1621,-4.3015,-4.3808,-4.4858,-4.628,-4.7366,-4.8451,-4.9647,-4.8529,-4.8663,-5.0377,-4.8538,-4.8402,-4.9986,-5.0894,-5.1072,-5.0745,-5.1091,-5.0903,-5.0242,-5.0185,-5.0791,-5.1845,-5.2595,-5.3299,-5.3978,-5.4522,-5.4778,-5.485,-5.5327,-5.5496,-5.5496,1.4808,1.3614,1.2569,1.2056,0.9671,0.7743,0.7229,0.5382,0.3999,0.4117,0.4128,0.3291,0.1225,0.0,-0.2548,-0.7369,-0.9971,-1.1792,-1.2708,-1.4782,-1.6203,-1.698,-1.9225,-2.1708,-2.4287,-2.6357,-2.7947,-2.8903,-3.1598,-3.2975,-3.3165,-3.3292,-3.3418,-3.3418,-3.4153,-3.4757,-3.5232,-3.5355,-3.6154,-3.7248,-3.6682,-3.6438,-3.6438,-3.6399,-3.554,-3.4465,-3.4403,-3.4153,-3.4047,-3.5025,-3.5046,-3.4859,-3.5992,-3.6298,-3.6298,-3.7149,-3.7391,-3.7391,-3.7391,-3.6907,-3.6481,-3.6868,-3.6401,-3.6116,-3.6707,-3.6911,-3.7093,-3.7736,-3.7679,-3.7703,-3.8331,-3.7836,-3.7429,-3.7713,-3.7676,-3.7811,-3.8343,-3.9135,-3.9888,-4.0408,-4.0669,-4.0925,-4.1135,-4.0963,-4.1774,-4.4178,-4.4962,-4.5942,-4.7318,-4.8509,-4.9494,-5.0086,-4.9494,-4.9706,-5.0793,-4.9629,-4.9597,-5.0674,-5.1202,-5.1317,-5.102,-5.1169,-5.0904,-5.0378,-5.0111,-5.054,-5.1425,-5.2315,-5.322,-5.4049,-5.4098,-5.4449,-5.4988,-5.5004,-5.5261,-5.5496,1.3923,1.3144,1.2294,1.1012,0.9195,0.7465,0.6193,0.4785,0.3924,0.4018,0.387,0.304,0.1154,-0.0978,-0.43,-0.9195,-1.0811,-1.1865,-1.2774,-1.5229,-1.6721,-1.698,-1.969,-2.2162,-2.4133,-2.6503,-2.8578,-3.0401,-3.2128,-3.3102,-3.3418,-3.3418,-3.3418,-3.3418,-3.3418,-3.457,-3.652,-3.4819,-3.5191,-3.6824,-3.5129,-3.4153,-3.3839,-3.4943,-3.459,-3.3544,-3.4652,-3.4715,-3.4485,-3.5705,-3.5767,-3.5294,-3.5356,-3.5418,-3.5418,-3.5418,-3.5418,-3.5418,-3.5418,-3.5418,-3.5418,-3.5418,-3.5418,-3.5665,-3.6828,-3.7071,-3.7132,-3.7374,-3.7068,-3.7072,-3.8156,-3.7668,-3.7414,-3.8332,-3.8366,-3.8353,-3.8585,-3.9369,-3.9992,-4.0058,-4.0078,-4.0611,-4.1853,-4.1492,-4.2536,-4.5846,-4.6231,-4.6999,-4.8586,-4.932,-4.9815,-5.0086,-5.0135,-5.0375,-5.0728,-5.0941,-5.1143,-5.1314,-5.114,-5.0883,-5.0498,-5.0521,-5.0296,-4.9899,-5.004,-5.0447,-5.1103,-5.2063,-5.3201,-5.4286,-5.3652,-5.4194,-5.5261,-5.4821,-5.4939,-5.532,1.3744,1.3144,1.2294,1.1012,0.9195,0.7434,0.6109,0.4752,0.3895,0.3911,0.326,0.2336,0.1075,-0.3719,-0.765,-0.9605,-1.1641,-1.2861,-1.2782,-1.4324,-1.5749,-1.698,-1.8771,-2.063,-2.2378,-2.5876,-2.8707,-3.0707,-3.2492,-3.3355,-3.3418,-3.3418,-3.3418,-3.3418,-3.3418,-3.3607,-3.4027,-3.5971,-3.6338,-3.5786,-3.7648,-3.7127,-3.5129,-3.5314,-3.459,-3.3418,-3.3607,-3.3796,-3.411,-3.4859,-3.5046,-3.5046,-3.5294,-3.5418,-3.5418,-3.5418,-3.5418,-3.5418,-3.5418,-3.5418,-3.5418,-3.5418,-3.5418,-3.5418,-3.5603,-3.5665,-3.5972,-3.7132,-3.733,-3.7537,-3.8384,-3.8457,-3.8228,-3.7953,-3.8286,-3.8562,-3.8573,-3.95,-3.9988,-3.9554,-3.9221,-3.98,-4.1801,-4.2385,-4.3584,-4.594,-4.7501,-4.8432,-4.8663,-4.932,-4.9815,-5.0086,-4.9277,-4.9404,-5.0548,-5.0437,-5.0847,-5.1762,-5.2483,-5.2014,-5.0598,-5.0143,-4.9935,-4.9928,-5.0431,-5.0956,-5.1629,-5.1743,-5.2568,-5.3652,-5.2956,-5.3504,-5.4675,-5.5175,-5.5057,-5.4616,1.3693,1.2595,1.1253,0.9916,0.8094,0.6333,0.4991,0.4256,0.3889,0.3889,0.3064,0.2082,0.1009,-0.4147,-0.8117,-0.9588,-1.1673,-1.2921,-1.284,-1.4847,-1.6333,-1.698,-1.9157,-2.1285,-2.3241,-2.5787,-2.8242,-3.0574,-3.2441,-3.3418,-3.3418,-3.3418,-3.3418,-3.3418,-3.3418,-3.3859,-3.4528,-3.4943,-3.5253,-3.5438,-3.5786,-3.5294,-3.434,-3.5129,-3.459,-3.3418,-3.3607,-3.3922,-3.4235,-3.4735,-3.5046,-3.5232,-3.5356,-3.5418,-3.5418,-3.5418,-3.5418,-3.5418,-3.5418,-3.5418,-3.5418,-3.5418,-3.5418,-3.5418,-3.5418,-3.5665,-3.6116,-3.6728,-3.7132,-3.761,-3.8303,-3.8458,-3.8508,-3.8607,-3.8826,-3.8987,-3.8987,-3.9698,-4.0151,-3.9997,-3.9802,-4.0592,-4.284,-4.3412,-4.4807,-4.7716,-4.8927,-4.9713,-5.006,-5.0498,-5.0822,-5.0921,-5.0643,-5.0842,-5.1562,-5.0975,-5.0817,-5.1092,-5.0277,-5.0297,-5.112,-5.0545,-5.0184,-4.9899,-5.0144,-5.0638,-5.1215,-5.1531,-5.2191,-5.2956,-5.228,-5.265,-5.3504,-5.4166,-5.4254,-5.3987]}]]